[[{"header":{"parameterUnit":"m.s-1","parameterCategory":1,"la1":30.6,"la2":29.2853,"lo1":-89.7004,"lo2":-87.6739,"dy":0.0162,"dx":0.0183,"nx":112,"ny":82,"refTime":"2023-04-23T18:00:00:Z","depth":0,"parameterNumber":2,"parameterNumberName":"U-component_of_WINDS"},"data":[0.0,0.0,0.0,0.0,0.0,0.0,0.0,0.0,0.0,0.0,0.0,0.0,0.0,0.0,0.0,0.0,0.0,0.0,0.0,0.0,0.0,0.0,0.0,0.0,0.0,0.0,0.0,0.0,0.0,0.0,0.0,0.0,0.0,0.0,0.0,0.0,0.0,0.0,0.0,0.0,0.0,0.0,0.0,0.0,0.0,0.0,0.0,0.0,0.0,0.0,0.0,0.0,0.0,0.0,0.0,0.0,0.0,0.0,0.0,0.0,0.0,0.0,0.0,0.0,0.0,0.0,0.0,0.0,0.0,0.0,0.0,0.0,0.0,0.0,0.0,0.0,0.0,0.0,0.0,0.0,0.0,0.0,0.0,0.0,0.0,0.0,0.0,0.0,0.0,0.0,0.0,2.4538,2.5345,2.5723,2.5368,2.5275,2.4794,2.37,0.0,0.0,0.0,0.0,0.0,0.0,0.0,0.0,0.0,0.0,0.0,0.0,0.0,0.0,0.0,0.0,0.0,0.0,0.0,0.0,0.0,0.0,0.0,0.0,0.0,0.0,0.0,0.0,0.0,0.0,0.0,0.0,0.0,0.0,0.0,0.0,0.0,0.0,0.0,0.0,0.0,0.0,0.0,0.0,0.0,0.0,0.0,0.0,0.0,0.0,0.0,0.0,0.0,0.0,0.0,0.0,0.0,0.0,0.0,0.0,0.0,0.0,0.0,0.0,0.0,0.0,0.0,0.0,0.0,0.0,0.0,0.0,0.0,0.0,0.0,0.0,0.0,0.0,0.0,0.0,0.0,0.0,0.0,0.0,0.0,0.0,0.0,0.0,0.0,0.0,0.0,0.0,0.0,0.0,0.0,0.0,0.0,0.0,0.0,0.0,0.0,0.0,0.0,0.0,2.4459,2.6042,2.6013,2.5818,2.5813,2.544,2.4563,2.3114,0.0,0.0,0.0,0.0,0.0,0.0,0.0,0.0,0.0,0.0,0.0,0.0,0.0,0.0,0.0,0.0,0.0,0.0,0.0,0.0,0.0,0.0,0.0,0.0,0.0,0.0,0.0,0.0,0.0,0.0,0.0,0.0,0.0,0.0,0.0,0.0,0.0,0.0,0.0,0.0,0.0,0.0,0.0,0.0,0.0,0.0,0.0,0.0,0.0,0.0,0.0,0.0,0.0,0.0,0.0,0.0,0.0,0.0,0.0,0.0,0.0,0.0,0.0,0.0,0.0,0.0,0.0,0.0,0.0,0.0,0.0,0.0,0.0,0.0,0.0,0.0,0.0,0.0,0.0,0.0,0.0,0.0,0.0,0.0,0.0,0.0,0.0,0.0,0.0,0.0,0.0,0.0,0.0,0.0,0.0,0.0,0.0,0.0,0.0,0.0,0.0,0.0,0.0,2.4526,2.5147,2.6378,2.6279,2.6192,2.6289,2.6072,2.537,2.3889,2.2859,0.0,0.0,0.0,0.0,0.0,0.0,0.0,0.0,0.0,0.0,0.0,0.0,0.0,0.0,0.0,0.0,0.0,0.0,0.0,0.0,0.0,0.0,0.0,0.0,0.0,0.0,0.0,0.0,0.0,0.0,0.0,0.0,0.0,0.0,0.0,0.0,0.0,0.0,0.0,0.0,0.0,0.0,0.0,0.0,0.0,0.0,0.0,0.0,0.0,0.0,0.0,0.0,0.0,0.0,0.0,0.0,0.0,0.0,0.0,0.0,0.0,0.0,0.0,0.0,0.0,0.0,0.0,0.0,0.0,0.0,0.0,0.0,0.0,0.0,0.0,0.0,0.0,0.0,0.0,0.0,0.0,0.0,0.0,0.0,0.0,0.0,0.0,0.0,0.0,0.0,0.0,0.0,0.0,0.0,0.0,0.0,0.0,0.0,0.0,0.0,0.0,0.0,2.553,2.5804,2.6638,2.6592,2.6506,2.661,2.6568,2.6043,2.4626,2.3476,0.0,0.0,0.0,0.0,0.0,0.0,0.0,0.0,0.0,0.0,0.0,0.0,0.0,0.0,0.0,0.0,0.0,0.0,0.0,0.0,0.0,0.0,0.0,0.0,0.0,0.0,0.0,0.0,0.0,0.0,0.0,0.0,0.0,0.0,0.0,0.0,0.0,0.0,0.0,0.0,0.0,0.0,0.0,0.0,0.0,0.0,0.0,0.0,0.0,0.0,0.0,0.0,0.0,0.0,0.0,0.0,0.0,0.0,0.0,0.0,0.0,0.0,0.0,0.0,0.0,0.0,0.0,0.0,0.0,0.0,0.0,0.0,0.0,0.0,0.0,0.0,0.0,0.0,0.0,0.0,0.0,0.0,0.0,0.0,0.0,0.0,0.0,0.0,0.0,0.0,0.0,0.0,0.0,0.0,0.0,0.0,0.0,0.0,0.0,0.0,0.0,0.0,2.5728,2.6182,2.7115,2.6784,2.6506,2.661,2.6568,2.6085,2.4874,2.3951,0.0,0.0,0.0,0.0,0.0,0.0,0.0,0.0,0.0,0.0,0.0,0.0,0.0,0.0,0.0,0.0,0.0,0.0,0.0,0.0,0.0,0.0,0.0,0.0,0.0,0.0,0.0,0.0,0.0,0.0,0.0,0.0,0.0,0.0,0.0,0.0,0.0,0.0,0.0,0.0,0.0,0.0,0.0,0.0,0.0,0.0,0.0,0.0,0.0,0.0,0.0,0.0,0.0,0.0,0.0,0.0,0.0,0.0,0.0,0.0,0.0,0.0,0.0,0.0,0.0,0.0,0.0,0.0,0.0,0.0,0.0,0.0,0.0,0.0,0.0,0.0,0.0,0.0,0.0,0.0,0.0,0.0,0.0,0.0,0.0,0.0,0.0,0.0,0.0,0.0,0.0,0.0,0.0,0.0,0.0,0.0,0.0,0.0,0.0,0.0,0.0,0.0,2.5843,2.621,0.0,2.6592,2.6617,2.7013,2.7003,2.6317,2.4542,0.0,0.0,0.0,0.0,0.0,0.0,0.0,0.0,0.0,0.0,0.0,0.0,0.0,0.0,0.0,0.0,0.0,0.0,0.0,0.0,0.0,0.0,0.0,0.0,0.0,0.0,0.0,0.0,0.0,0.0,0.0,0.0,0.0,0.0,0.0,0.0,0.0,0.0,0.0,0.0,0.0,0.0,0.0,0.0,0.0,0.0,0.0,0.0,0.0,0.0,0.0,0.0,0.0,0.0,0.0,0.0,0.0,0.0,0.0,0.0,0.0,0.0,0.0,0.0,0.0,0.0,0.0,0.0,0.0,0.0,0.0,0.0,0.0,0.0,0.0,0.0,0.0,0.0,0.0,0.0,0.0,0.0,0.0,0.0,0.0,0.0,0.0,0.0,0.0,0.0,0.0,0.0,0.0,0.0,0.0,0.0,0.0,0.0,0.0,0.0,0.0,0.0,2.5858,2.6187,2.6582,0.0,2.6784,2.688,2.7262,2.7262,2.6441,2.4381,0.0,0.0,0.0,0.0,0.0,0.0,0.0,0.0,0.0,0.0,0.0,0.0,0.0,0.0,0.0,0.0,0.0,0.0,0.0,0.0,0.0,0.0,0.0,0.0,0.0,0.0,0.0,0.0,0.0,0.0,0.0,0.0,0.0,0.0,0.0,0.0,0.0,0.0,0.0,0.0,0.0,0.0,0.0,0.0,0.0,0.0,0.0,0.0,0.0,0.0,0.0,0.0,0.0,0.0,0.0,0.0,0.0,0.0,0.0,0.0,0.0,0.0,0.0,0.0,0.0,0.0,0.0,0.0,0.0,0.0,0.0,0.0,0.0,0.0,0.0,0.0,0.0,0.0,0.0,0.0,0.0,0.0,0.0,0.0,0.0,0.0,0.0,0.0,0.0,0.0,0.0,0.0,0.0,0.0,0.0,0.0,0.0,0.0,0.0,0.0,0.0,0.0,2.611,2.6784,2.7272,2.7272,2.7272,2.7272,2.7272,2.7272,2.6476,0.0,0.0,0.0,0.0,0.0,0.0,0.0,0.0,0.0,0.0,0.0,0.0,0.0,0.0,0.0,0.0,0.0,0.0,0.0,0.0,0.0,0.0,0.0,0.0,0.0,0.0,0.0,0.0,0.0,0.0,0.0,0.0,0.0,0.0,0.0,0.0,0.0,0.0,0.0,0.0,0.0,0.0,0.0,0.0,0.0,0.0,0.0,0.0,0.0,0.0,0.0,0.0,0.0,0.0,0.0,0.0,0.0,0.0,0.0,0.0,0.0,0.0,0.0,0.0,0.0,0.0,0.0,0.0,0.0,0.0,0.0,0.0,0.0,0.0,0.0,0.0,0.0,0.0,0.0,0.0,0.0,0.0,0.0,0.0,0.0,0.0,0.0,0.0,0.0,0.0,0.0,0.0,0.0,0.0,0.0,0.0,0.0,0.0,0.0,0.0,0.0,0.0,0.0,2.6556,2.7516,2.8214,2.8214,2.8214,2.8214,2.8214,2.8214,2.7282,2.5229,0.0,0.0,0.0,0.0,0.0,0.0,0.0,0.0,0.0,0.0,0.0,0.0,0.0,0.0,0.0,0.0,0.0,0.0,0.0,0.0,0.0,0.0,0.0,0.0,0.0,0.0,0.0,0.0,0.0,0.0,0.0,0.0,0.0,0.0,0.0,0.0,0.0,0.0,0.0,0.0,0.0,0.0,0.0,0.0,0.0,0.0,0.0,0.0,0.0,0.0,0.0,0.0,0.0,0.0,0.0,0.0,0.0,0.0,0.0,0.0,0.0,0.0,0.0,0.0,0.0,0.0,0.0,0.0,0.0,0.0,0.0,0.0,0.0,0.0,0.0,0.0,0.0,0.0,0.0,0.0,0.0,0.0,0.0,0.0,0.0,0.0,0.0,0.0,0.0,0.0,0.0,0.0,0.0,0.0,0.0,0.0,0.0,0.0,0.0,0.0,0.0,0.0,2.6361,2.7723,2.8707,2.8607,2.8618,2.8618,2.8618,2.8618,2.7774,2.5994,0.0,0.0,0.0,0.0,0.0,0.0,0.0,0.0,0.0,0.0,0.0,0.0,0.0,0.0,0.0,0.0,0.0,0.0,0.0,0.0,0.0,0.0,0.0,0.0,0.0,0.0,0.0,0.0,0.0,0.0,0.0,0.0,0.0,0.0,0.0,0.0,0.0,0.0,0.0,0.0,0.0,0.0,0.0,0.0,0.0,0.0,0.0,0.0,0.0,0.0,0.0,0.0,0.0,0.0,0.0,0.0,0.0,0.0,0.0,0.0,0.0,0.0,0.0,0.0,0.0,0.0,0.0,0.0,0.0,0.0,0.0,0.0,0.0,0.0,0.0,0.0,0.0,0.0,0.0,0.0,0.0,0.0,0.0,0.0,0.0,0.0,0.0,0.0,0.0,0.0,0.0,0.0,0.0,0.0,0.0,0.0,0.0,0.0,0.0,0.0,0.0,0.0,2.5816,2.7652,2.9032,2.8742,2.8742,2.8742,2.8742,2.8742,2.8208,2.6836,0.0,0.0,0.0,0.0,0.0,0.0,0.0,0.0,0.0,0.0,0.0,0.0,0.0,0.0,0.0,0.0,0.0,0.0,0.0,0.0,0.0,0.0,0.0,0.0,0.0,0.0,0.0,0.0,0.0,0.0,0.0,0.0,0.0,0.0,0.0,0.0,0.0,0.0,0.0,0.0,0.0,0.0,0.0,0.0,0.0,0.0,0.0,0.0,0.0,0.0,0.0,0.0,0.0,0.0,0.0,0.0,0.0,0.0,0.0,0.0,1.7993,0.0,0.0,0.0,0.0,0.0,0.0,0.0,0.0,0.0,0.0,0.0,0.0,0.0,0.0,0.0,0.0,0.0,0.0,0.0,0.0,0.0,0.0,0.0,0.0,0.0,0.0,0.0,0.0,0.0,0.0,0.0,0.0,0.0,0.0,0.0,0.0,0.0,0.0,0.0,0.0,0.0,2.6073,2.8296,2.9798,2.9704,2.9704,2.9704,2.9704,2.9704,2.9268,2.8295,2.7303,0.0,0.0,0.0,0.0,0.0,0.0,0.0,0.0,0.0,0.0,0.0,0.0,0.0,0.0,0.0,0.0,0.0,0.0,0.0,0.0,0.0,0.0,0.0,0.0,0.0,0.0,0.0,0.0,0.0,0.0,0.0,0.0,0.0,0.0,0.0,0.0,0.0,0.0,0.0,0.0,0.0,0.0,0.0,0.0,0.0,0.0,0.0,0.0,0.0,0.0,0.0,0.0,0.0,0.0,0.0,0.0,0.0,0.0,0.0,0.0,2.0133,0.0,0.0,0.0,0.0,0.0,0.0,0.0,0.0,0.0,0.0,0.0,0.0,0.0,0.0,0.0,0.0,0.0,0.0,0.0,0.0,0.0,0.0,0.0,0.0,0.0,0.0,0.0,0.0,0.0,0.0,0.0,0.0,0.0,0.0,0.0,0.0,0.0,0.0,0.0,0.0,2.6365,2.8635,3.0088,2.9994,2.9994,2.9994,2.9994,2.9994,2.9774,2.9343,2.8229,0.0,0.0,0.0,0.0,0.0,0.0,0.0,0.0,0.0,0.0,0.0,0.0,0.0,0.0,0.0,0.0,0.0,0.0,0.0,0.0,0.0,0.0,0.0,0.0,0.0,0.0,0.0,0.0,0.0,0.0,0.0,0.0,0.0,0.0,0.0,0.0,0.0,0.0,0.0,0.0,0.0,0.0,0.0,0.0,0.0,0.0,0.0,0.0,0.0,0.0,0.0,0.0,0.0,0.0,2.9096,2.9102,2.9812,2.9318,2.7891,2.7891,2.517,2.0969,0.0,0.0,0.0,0.0,0.0,0.0,0.0,0.0,0.0,0.0,0.0,0.0,0.0,0.0,0.0,0.0,0.0,0.0,0.0,0.0,0.0,0.0,0.0,0.0,0.0,3.1321,3.1563,0.0,0.0,0.0,0.0,0.0,0.0,0.0,0.0,0.0,0.0,0.0,0.0,2.676,2.887,3.0297,2.9994,2.9994,2.9994,2.9994,2.9994,2.9994,2.9994,2.889,2.8116,0.0,0.0,0.0,0.0,0.0,0.0,0.0,0.0,0.0,0.0,0.0,0.0,0.0,0.0,0.0,0.0,0.0,0.0,0.0,0.0,0.0,0.0,0.0,0.0,0.0,0.0,0.0,0.0,0.0,0.0,0.0,0.0,2.2805,1.9987,0.0,0.0,0.0,0.0,0.0,0.0,0.0,0.0,0.0,0.0,0.0,0.0,0.0,0.0,2.8495,2.7822,2.7154,2.6617,2.8763,3.0021,3.0658,3.3776,3.5325,3.5531,3.5531,0.0,2.5034,2.2158,0.0,0.0,0.0,0.0,0.0,0.0,0.0,0.0,0.0,0.0,0.0,0.0,0.0,0.0,0.0,0.0,0.0,0.0,0.0,0.0,0.0,0.0,2.3398,3.073,3.1979,3.1405,0.0,3.0843,3.0101,2.961,0.0,0.0,0.0,0.0,0.0,0.0,0.0,0.0,2.7561,2.8996,2.9994,2.9994,2.9994,2.9994,2.9994,2.9994,2.9994,2.9994,2.9774,2.9112,2.7892,2.6905,0.0,0.0,0.0,0.0,0.0,0.0,0.0,0.0,0.0,0.0,0.0,0.0,0.0,0.0,0.0,0.0,0.0,0.0,0.0,0.0,0.0,0.0,0.0,0.0,0.0,0.0,0.0,0.0,0.0,2.1003,2.1524,1.8281,2.0734,2.177,0.0,0.0,0.0,0.0,0.0,0.0,0.0,0.0,0.0,2.609,2.9493,3.1089,3.0563,3.1883,3.2582,3.263,3.3451,3.4044,3.4355,3.5916,3.6726,3.7007,3.7358,3.5536,3.196,2.8933,2.6914,2.5652,0.0,0.0,0.0,0.0,0.0,2.2356,2.0177,1.8998,0.0,0.0,0.0,0.0,0.0,0.0,0.0,0.0,0.0,0.0,0.0,0.0,0.0,3.1137,3.2049,3.1716,3.1616,3.135,3.0895,0.0,3.02,2.9557,2.7875,0.0,0.0,0.0,0.0,0.0,2.8232,2.9333,2.9994,2.9994,2.9994,2.9994,2.9994,2.9994,2.9994,2.9994,2.9994,2.9448,2.8349,2.7571,2.6063,0.0,0.0,0.0,0.0,0.0,0.0,0.0,0.0,0.0,0.0,0.0,0.0,0.0,0.0,0.0,0.0,0.0,0.0,0.0,0.0,0.0,0.0,0.0,0.0,0.0,0.0,0.0,0.0,2.0903,2.1685,1.767,2.0734,2.2415,0.0,0.0,0.0,0.0,0.0,0.0,2.4462,2.8316,2.9871,2.8557,3.1734,3.3317,3.2976,3.5639,3.713,3.7457,3.7303,3.7133,3.6993,3.7147,3.7217,3.7245,3.7878,3.7892,3.7231,3.4112,3.111,2.8393,2.8471,2.8798,2.9026,2.7487,2.6627,2.5923,2.3595,2.2409,2.1958,2.2205,0.0,2.2089,2.3698,0.0,0.0,0.0,0.0,2.0413,2.3422,2.5678,2.8063,3.1197,3.171,3.1505,3.1414,3.1322,3.1219,0.0,3.0899,3.0245,2.8628,0.0,0.0,0.0,0.0,2.8232,2.891,2.9564,3.0046,3.016,3.017,3.017,3.017,3.017,3.0118,3.0005,2.9774,2.9343,2.8698,2.7805,2.6452,2.4542,0.0,0.0,0.0,0.0,0.0,0.0,0.0,0.0,0.0,0.0,0.0,0.0,0.0,0.0,0.0,0.0,0.0,0.0,0.0,0.0,0.0,0.0,0.0,0.0,0.0,0.0,0.0,0.0,0.0,2.0812,2.2789,0.0,0.0,0.0,0.0,2.8002,2.8562,2.8006,2.6287,3.1071,3.3029,3.1246,3.5181,3.7325,3.7282,3.7664,3.7526,3.707,3.7569,3.754,3.7007,3.7583,3.785,3.7892,3.8538,3.8805,3.8397,3.3677,3.2537,3.3353,2.8779,2.8402,3.0025,2.7433,2.6008,2.5162,2.2829,2.1561,2.0907,2.0778,2.1531,2.2485,2.2429,2.3155,0.0,0.0,2.2358,2.295,2.5837,2.6249,2.6943,3.0721,3.1002,3.0599,3.0785,3.0391,3.0193,0.0,3.0795,3.037,2.889,0.0,2.8688,2.8581,2.8581,2.9006,2.9774,2.9994,3.016,3.0605,3.0646,3.0646,3.0646,3.0646,3.046,3.0025,2.9237,2.8804,2.8688,2.706,2.5845,2.5151,2.4309,0.0,0.0,0.0,0.0,0.0,0.0,0.0,0.0,0.0,0.0,0.0,0.0,0.0,0.0,0.0,0.0,0.0,0.0,0.0,0.0,0.0,0.0,0.0,0.0,0.0,0.0,0.0,0.0,2.469,2.7424,0.0,0.0,2.545,2.5701,2.7071,2.9415,3.048,2.9965,3.3972,3.6317,3.636,3.6907,3.7409,3.7805,3.7479,3.74,3.7569,3.7793,3.8004,3.8201,3.8426,3.8524,3.8552,3.9184,3.924,3.8749,3.7465,3.7042,3.6971,3.4602,3.4547,3.548,3.2494,3.1442,3.126,2.9189,2.8088,2.7567,2.769,2.8232,2.8522,2.6146,2.5928,2.5817,2.3025,2.3711,2.5326,2.6012,2.7569,2.937,3.053,3.0366,3.0024,3.0432,3.015,3.0034,3.065,3.0505,3.0078,2.9669,2.9799,3.0003,3.0003,3.0248,3.0648,3.1089,3.1197,3.1259,3.1643,3.1772,3.1772,3.1772,3.0993,3.0486,3.0323,2.9192,2.83,2.7763,2.7502,2.67,2.5371,2.5887,2.5023,0.0,0.0,0.0,0.0,0.0,0.0,0.0,0.0,0.0,0.0,0.0,0.0,0.0,0.0,0.0,0.0,0.0,0.0,0.0,0.0,0.0,0.0,0.0,0.0,0.0,0.0,2.7712,2.7201,2.9553,3.0768,2.9593,2.8524,2.8448,2.9825,3.2411,3.3853,3.3644,3.6302,3.7949,3.8351,3.77,3.7498,3.7906,3.792,3.8032,3.8229,3.844,3.865,3.8875,3.9086,3.917,3.9212,3.9816,3.9859,3.9521,3.9929,3.9662,3.8921,3.8448,3.8391,3.8471,3.5955,3.4865,3.4286,3.2576,3.178,3.1505,3.1724,3.2026,3.2017,2.9743,2.9139,2.8744,2.6188,2.683,2.8104,2.7747,2.9189,3.0609,3.0391,3.0263,3.0126,3.0442,3.0057,2.9829,3.036,3.0422,3.0527,3.0527,3.0925,3.112,3.0689,3.1272,3.1579,3.135,3.1678,3.2078,3.2444,3.2127,3.1908,3.1908,3.0782,2.9921,2.9774,2.8747,2.7851,2.7185,2.7273,2.6727,2.5369,2.6211,2.5696,2.3706,0.0,0.0,0.0,0.0,0.0,0.0,0.0,0.0,0.0,0.0,0.0,0.0,0.0,0.0,0.0,0.0,0.0,0.0,0.0,0.0,0.0,0.0,0.0,2.2544,2.8229,3.1326,2.8516,2.9205,3.0658,3.2436,3.1608,3.262,3.6809,3.7851,3.7937,3.7157,3.7794,3.7853,3.7035,3.7625,3.7934,3.7962,3.9156,3.9465,3.8903,3.9493,3.9479,3.8945,3.9535,3.9816,3.9845,4.0449,4.0702,4.0702,4.0702,4.0041,3.9244,3.9589,3.9143,3.8235,3.7245,3.5627,3.3627,3.2095,3.1823,3.2015,3.2015,3.2229,3.2544,3.2544,3.2555,3.2566,3.2566,3.1969,3.1273,3.1273,3.0838,3.0412,3.0412,3.062,3.0734,3.0745,3.024,2.9667,2.9687,3.0667,3.1434,3.1413,3.1934,3.1808,3.0691,3.1491,0.0,3.0711,3.1491,3.2444,3.2891,3.1809,3.1134,3.1134,2.9967,2.8983,2.8568,2.766,2.722,2.722,2.6414,2.578,2.5395,2.5386,2.5222,2.4994,0.0,0.0,0.0,0.0,0.0,0.0,0.0,0.0,0.0,0.0,0.0,0.0,0.0,0.0,0.0,0.0,0.0,0.0,0.0,0.0,0.0,0.0,2.9869,2.9124,3.0214,3.1791,3.3635,3.455,3.519,3.5798,3.5467,3.5752,3.6996,3.7264,3.7234,3.702,3.7615,3.8102,3.8327,3.851,3.8819,3.9255,3.917,3.9255,3.9521,3.9704,3.9929,4.0196,4.0378,4.0449,4.0449,4.0631,4.0702,4.0602,3.994,3.9475,3.9094,3.8604,3.8196,3.7678,3.5414,3.3784,3.2812,3.2117,3.1924,3.2015,3.1823,3.2026,3.2544,3.2544,3.2994,3.3492,3.3094,3.3146,3.3099,3.2678,3.21,3.1527,3.1527,3.0517,2.9625,3.0154,2.9459,2.8884,2.9398,3.0056,3.0509,3.0648,3.1085,3.1614,3.2159,3.2106,0.0,3.3008,3.1726,3.1301,3.2602,3.1671,3.0856,3.0856,2.9685,2.8945,2.8834,2.7683,2.7114,2.7114,2.6609,2.6157,2.5788,2.5309,2.5011,0.0,0.0,0.0,0.0,0.0,0.0,0.0,0.0,0.0,0.0,0.0,0.0,0.0,0.0,0.0,0.0,0.0,0.0,0.0,0.0,0.0,0.0,2.9666,3.3369,3.4566,3.4057,3.4242,3.6268,3.6768,3.6993,3.7053,3.6985,3.7092,3.741,3.7381,3.7484,3.7751,3.8116,3.8482,3.8861,3.9128,3.9423,3.9788,3.9676,3.9816,4.0168,4.0168,4.035,4.0702,4.0702,4.0702,0.0,4.0702,4.0416,4.0041,3.9475,3.8751,0.0,0.0,0.0,0.0,0.0,3.2633,3.2139,3.1924,3.1924,3.2026,3.2026,3.2374,3.296,3.3062,3.372,3.4234,3.3923,3.3772,3.3619,3.3188,3.2195,3.1315,3.1189,2.9928,2.9066,2.9839,2.9173,2.8736,2.9649,0.0,0.0,3.0191,3.0621,3.1023,3.1241,3.1337,3.1496,3.1852,3.1139,3.0907,3.1842,3.0791,2.9963,2.9963,2.8811,0.0,0.0,0.0,2.7073,2.7073,2.6696,0.0,0.0,0.0,2.5654,2.5694,0.0,0.0,0.0,2.0631,1.9312,0.0,0.0,0.0,0.0,0.0,0.0,0.0,0.0,0.0,0.0,0.0,0.0,0.0,0.0,0.0,0.0,3.1043,3.4339,3.8658,3.8304,3.7562,3.7233,3.7169,3.7169,3.7091,3.7091,3.7344,3.7962,3.8004,3.8257,3.8833,0.0,0.0,0.0,0.0,3.9887,3.9887,4.0421,4.0702,4.0702,4.0702,4.0702,4.0702,4.0702,4.0702,4.0702,4.0702,4.0128,3.921,3.9121,3.7848,3.6131,3.7057,3.6364,3.4715,3.2789,3.1924,0.0,0.0,0.0,0.0,3.2342,3.2949,3.3618,3.3822,3.4291,3.4716,3.4716,3.4107,3.3387,3.3387,3.1973,3.0454,3.0109,2.9268,2.8757,2.9574,2.9162,2.8945,3.0005,2.918,2.8556,2.9546,3.02,3.0198,2.9266,2.9963,3.0198,2.9266,2.9855,3.0432,3.0548,0.0,0.0,2.8692,2.7771,2.7073,2.7073,2.7073,2.7073,2.7073,2.6739,2.6722,2.7073,2.673,2.673,2.7073,2.5725,2.5111,2.4972,2.176,2.0166,0.0,0.0,0.0,0.0,0.0,0.0,0.0,0.0,0.0,0.0,0.0,0.0,0.0,0.0,0.0,2.9193,3.4148,3.8403,3.9503,3.8774,3.8178,3.831,3.8289,3.8132,3.7723,3.7723,3.799,3.8636,3.8678,3.8735,3.8861,3.9339,0.0,3.9606,4.0196,4.0519,4.0519,4.0631,4.0702,4.0702,0.0,0.0,4.0702,4.0702,4.0702,4.0702,4.0702,4.0128,3.9121,3.8419,3.6764,3.4811,3.4702,3.4409,3.3819,3.2935,3.2331,3.1913,3.224,3.2128,3.2026,3.2342,3.2724,3.3027,3.3128,3.356,0.0,3.4153,3.4291,3.4439,3.4439,3.3093,3.1559,3.1211,2.9389,2.7996,2.8839,2.8411,2.8032,2.8585,2.8427,2.8074,2.7723,2.8527,2.9502,3.0315,2.9738,2.9502,3.0315,2.8929,2.8241,2.9148,2.8233,2.7427,2.7427,2.7194,2.7073,2.7073,2.7073,2.7073,2.7073,2.7004,2.6996,2.7073,2.7004,2.6996,2.7073,2.5725,2.5111,2.5103,2.3346,2.242,0.0,0.0,0.0,0.0,0.0,0.0,0.0,0.0,0.0,0.0,0.0,2.4655,0.0,0.0,3.184,3.1396,3.5755,3.9342,3.9786,3.9633,3.9121,3.8202,3.8197,3.8145,3.7906,3.8187,3.8636,3.9283,3.9325,3.9451,3.976,4.0083,4.0238,4.0238,4.0533,4.0702,4.0702,4.0702,4.0702,4.0702,4.0378,4.0407,4.0688,4.0378,4.0407,4.0702,4.0702,3.9867,3.8405,3.6871,3.5667,3.4531,3.404,3.3656,3.3369,3.2969,3.2555,3.2229,3.2443,3.2342,3.2331,3.2555,3.2938,3.3243,3.3446,3.3902,3.4406,3.4406,3.4406,3.4406,3.4406,3.2964,3.1323,3.0443,2.918,2.8132,2.8427,2.8167,2.8224,2.9201,2.8559,2.7739,2.7381,2.7745,2.8233,2.8811,2.8462,2.8233,2.8811,2.7891,2.7306,2.7882,2.7418,2.7073,2.7073,2.6644,2.6618,2.7064,2.6644,2.6627,2.7064,2.6822,2.6571,2.6571,2.6571,2.6571,2.6571,2.5594,2.5111,2.5111,2.3736,2.3106,0.0,0.0,0.0,0.0,0.0,0.0,0.0,0.0,2.8495,2.9301,2.9363,2.9115,2.8568,3.1235,3.3603,3.3654,3.6684,3.9225,3.9873,4.0176,3.9688,3.8173,3.821,3.8337,3.8271,3.8735,3.9311,3.9915,3.9957,4.0182,4.0674,4.0702,4.0702,4.0702,4.0589,4.0575,4.0702,4.0463,4.0407,4.0519,3.9901,3.9859,4.0322,3.9831,3.9929,4.0519,4.0287,3.9251,3.7625,3.5667,3.4738,3.464,3.3941,3.3557,3.3281,3.298,3.2667,3.2555,3.2555,3.2555,3.2656,3.288,3.3242,3.3561,3.3765,3.4165,3.4509,3.4509,3.4199,3.3866,3.3866,3.2519,3.0856,2.9661,2.8966,2.8581,2.8232,2.8223,2.8573,2.9665,2.8598,2.74,2.7254,2.7073,2.6961,2.6961,2.703,2.7073,2.7073,2.7073,2.7073,2.7073,2.7073,2.7047,2.6841,2.6064,2.5869,2.6472,2.5708,2.5708,2.6582,2.6098,2.5879,2.5953,2.5953,2.5953,2.5953,2.5226,2.4865,2.4857,2.3604,2.3106,2.6052,2.7109,2.8148,2.5954,2.8359,3.0504,0.0,0.0,2.9081,2.6414,2.6841,2.7573,2.7248,3.0641,3.3794,3.4768,3.7138,3.9224,4.04,3.9503,3.8889,3.9267,3.9758,3.9964,3.9647,3.9634,3.9929,4.0547,4.0603,4.0631,4.0702,4.0702,4.0702,4.0702,4.0168,4.0154,4.0688,3.962,3.9339,3.9873,3.9269,3.9016,3.9072,3.9002,3.9311,3.9831,3.8666,3.7991,3.7625,3.5667,3.4543,3.4162,3.4052,3.3656,3.3281,3.2757,3.2555,3.2544,3.2768,3.288,3.288,3.3192,3.3315,3.3361,3.3361,3.3407,3.3453,3.3453,3.3407,3.3361,3.3361,3.2274,3.1062,3.0607,2.9597,2.8581,2.8232,2.8223,2.8028,2.7584,2.7262,2.697,2.6212,2.6394,2.6551,2.6551,2.685,2.7073,2.7073,2.7073,2.7073,2.7073,2.7073,2.6686,2.5852,2.5666,2.5288,2.4418,2.437,2.4507,2.4868,2.4755,2.4907,2.5226,2.5226,2.5226,2.5226,2.4487,2.4232,2.4232,2.3487,2.3106,3.1132,3.0434,0.0,0.0,3.1973,3.2954,3.2154,3.2176,3.2612,3.3347,3.3633,3.3698,3.358,3.5141,3.6729,0.0,3.8796,3.9846,4.0625,4.0284,3.9966,4.001,4.0347,4.0337,3.9816,4.0112,4.0421,4.0674,4.0702,4.0702,4.0702,4.0702,4.0533,4.0182,3.9915,3.9732,3.9634,3.9128,3.9002,3.924,3.8988,3.9044,3.9395,3.9395,3.9452,3.9408,3.8326,3.7415,3.6552,3.4993,3.415,3.3755,3.3656,3.3469,3.3281,3.3069,3.2969,3.2969,3.3081,3.3092,3.3181,3.3281,3.3281,3.3281,3.3281,3.3281,3.3281,3.3281,3.3281,3.3281,3.3281,3.2656,3.1597,3.0078,2.9587,2.8976,2.7482,2.7347,2.7453,2.7188,2.6753,2.6302,2.5908,2.6242,2.6491,2.6491,2.6816,2.7073,2.7073,2.7073,2.7073,2.7073,2.6627,2.6056,2.5658,2.4545,2.3983,2.4047,2.363,2.3552,2.4253,2.4107,2.4037,2.4184,2.4378,2.4487,2.4487,2.4239,2.4108,2.4108,2.3362,2.3106,3.2667,0.0,0.0,3.4173,3.5679,3.6519,3.6675,3.6522,3.6954,3.9,3.8962,3.862,3.8599,3.8826,3.9223,4.0037,4.0201,4.0423,4.0764,4.0851,4.0713,4.0487,4.0591,4.0519,4.0083,4.0435,4.0702,4.0702,4.0702,4.0631,4.0449,4.0449,4.0168,3.955,3.9353,3.9212,3.9128,3.8777,3.8777,3.9128,3.8945,3.91,3.9535,3.9704,3.9476,3.8878,3.8185,3.7137,3.5891,3.4495,3.3843,3.3656,3.3269,3.3081,3.3181,3.3181,3.3292,3.3281,3.3281,3.3281,3.3281,3.3281,3.3281,3.3281,3.3281,3.3281,3.3281,3.3281,3.3281,3.3281,3.2958,3.2432,3.1472,2.9462,2.9262,2.889,2.7092,2.6912,2.7039,2.6821,2.6302,2.5934,2.5934,2.6242,2.6491,2.6491,2.6816,2.7073,2.7073,2.7073,2.7073,2.7073,2.6234,2.5481,2.5263,2.363,2.2898,2.3286,2.2805,2.2757,2.3567,2.3421,2.3399,2.3497,2.3731,2.386,2.386,2.386,2.386,2.386,2.3362,2.3106,2.7705,0.0,3.2017,3.4211,3.8251,4.1321,4.0087,4.1032,4.1677,3.9792,3.9488,3.9514,3.9442,3.9815,4.0263,4.0961,4.0897,4.0793,4.1011,4.0627,4.0487,4.0689,4.0688,4.0688,0.0,4.0688,4.0702,4.0702,4.0702,4.0435,3.9845,3.9816,3.9521,3.8917,3.8285,3.8538,3.9746,3.8538,3.8538,3.9746,3.9156,3.8875,3.8917,3.9507,3.924,3.8296,3.7909,3.7243,3.6131,3.4311,3.3755,3.3977,3.2946,3.2667,3.2891,3.2891,3.3092,3.3281,3.3281,3.3281,3.3281,3.3281,3.3281,3.3281,3.3281,3.3281,3.3281,3.3281,3.3281,3.3069,3.1902,3.1246,3.0514,2.9398,2.8658,2.8018,2.7225,2.7105,2.6897,2.6071,2.5934,2.5934,2.5934,2.6242,2.6491,2.6491,2.6816,2.7073,2.7073,2.7073,2.7073,2.7073,2.6234,2.5263,2.4212,2.3271,2.2351,2.1369,2.1525,2.184,2.2289,2.2469,2.2769,2.3091,2.3106,2.3113,2.3113,2.3113,2.3113,2.3113,2.3113,2.3106,2.9568,0.0,3.4378,3.7696,3.9636,4.0654,4.0414,4.0468,4.024,3.9325,3.7515,3.6153,3.6263,3.6855,3.7638,3.8305,4.0081,4.1548,4.2019,4.155,4.1069,4.1198,4.0873,0.0,0.0,0.0,0.0,4.0702,4.0322,3.9999,3.9788,3.9395,3.9086,3.8875,3.865,3.8749,3.917,3.8749,3.8749,3.9184,3.9381,3.969,4.0083,4.0294,3.9491,3.796,3.7808,3.6483,3.4213,3.3633,3.3047,3.2633,3.2331,3.2342,3.2667,3.288,3.2992,3.3092,3.3292,3.3281,3.3281,3.3281,3.3281,3.3281,3.3281,3.3281,3.3281,3.3281,3.3281,3.2969,3.1575,3.1041,3.0193,2.8096,2.7573,2.717,2.622,2.6311,2.6528,2.596,2.614,2.6302,2.6302,2.6405,2.6576,2.6842,2.6987,2.7073,2.7073,2.7073,2.6849,2.6226,2.5152,2.4204,2.3263,2.2236,2.155,2.1218,2.1518,2.1745,2.1854,2.2352,2.2674,2.2784,2.3003,2.3106,2.3106,2.3106,2.3106,2.3106,2.3106,2.3106,3.1896,3.3985,3.5843,3.9466,4.0651,4.0811,4.0671,4.0203,3.9642,3.9113,3.6564,3.4481,3.4534,3.425,3.4303,3.5207,3.6842,3.8693,4.0436,4.0257,4.0206,4.1085,4.0873,4.0702,0.0,0.0,0.0,4.0378,4.0013,3.969,3.9465,3.9086,3.8861,3.8861,3.8861,3.8974,3.9198,3.9198,3.9311,3.9521,3.9929,4.0308,4.0702,4.0702,3.9779,3.8238,3.7991,3.6389,3.4017,3.3434,3.2846,3.2229,3.1924,3.2128,3.2544,3.2667,3.2779,3.2992,3.3181,3.3281,3.3281,3.3281,3.3281,3.3281,3.3281,3.3281,3.3281,3.3281,3.317,3.2633,3.0949,3.0203,2.9292,2.7011,2.6487,2.6317,2.5933,2.6148,2.6456,2.6362,2.6533,2.6696,2.6696,2.6696,2.6782,2.7039,2.7073,2.7073,2.7073,2.6824,2.6285,2.5675,2.4378,2.3302,2.2736,2.1732,2.1211,2.1211,2.1628,2.1869,2.1869,2.2469,2.2798,2.2798,2.3003,2.3106,2.3106,2.3106,2.3106,2.3106,2.3106,2.3106,3.4151,3.5761,3.6549,3.9665,4.1361,4.1956,4.0848,4.0497,4.0047,3.8952,3.6443,3.4316,0.0,0.0,3.0976,3.2123,3.2184,3.3277,3.6823,3.7343,3.8165,0.0,0.0,0.0,0.0,0.0,0.0,3.9746,0.0,3.9493,3.8945,3.8889,3.8875,3.8917,3.8917,3.9212,3.9816,3.9831,4.0112,4.0702,4.0702,4.0702,4.0702,4.0702,4.0142,3.9121,3.816,3.6858,3.5246,3.3819,3.3058,3.2656,3.1936,3.1936,3.2544,3.2544,3.2667,3.2992,3.3181,3.3281,3.3281,3.3281,3.3281,3.3281,3.3281,3.3281,3.3281,3.3281,3.2857,3.1993,3.011,2.885,2.7793,2.6243,2.5578,2.5566,2.6277,2.6456,2.6602,2.697,2.7064,2.7073,2.7073,2.7073,2.7064,2.7047,2.7047,2.7047,2.7047,2.6226,2.5506,2.5473,2.3802,2.2713,2.2581,2.1725,2.1211,2.1211,2.1825,2.2184,2.2184,2.2776,2.3106,2.3106,2.3106,2.3106,2.3106,2.3106,2.3106,2.3106,2.3106,2.3106,3.4219,3.6653,3.9005,4.0605,4.1493,4.1662,4.0626,4.0285,3.9182,3.5831,3.3062,3.0949,0.0,0.0,0.0,3.3719,3.6969,0.0,4.0626,4.0153,0.0,4.0603,0.0,4.0013,4.0013,3.9873,0.0,0.0,3.91,3.924,3.9521,3.9114,3.9086,3.9535,3.955,3.9845,4.0449,4.0463,4.0547,4.0702,4.0702,4.0702,4.0702,4.0702,3.9793,3.816,3.79,3.6282,3.372,3.3346,3.2846,3.2229,3.2026,3.2128,3.2544,3.2768,3.288,3.2992,3.3181,3.3281,3.3281,3.3281,3.3281,3.3281,3.3281,3.3281,3.3281,3.3281,3.3081,3.2443,3.0835,2.9462,2.8126,2.6646,2.5819,2.542,2.5609,2.6097,2.6516,2.6619,2.6876,2.7073,2.7073,2.7073,2.6849,2.6072,2.603,2.603,2.603,2.57,2.5079,2.3606,2.3053,2.2389,2.1695,2.1369,2.1211,2.1211,2.1825,2.2184,2.2184,2.2776,2.3106,2.3106,2.3106,2.3106,2.3106,2.3106,2.3106,2.3106,2.3106,2.3106,3.5795,3.8144,4.0335,4.0927,4.1575,4.1528,3.9485,3.8666,3.7222,3.3454,3.0473,0.0,2.8057,0.0,0.0,0.0,0.0,0.0,3.9297,3.9121,3.914,0.0,3.9999,0.0,3.9409,3.9381,3.9339,0.0,3.9269,3.9423,3.976,3.9451,3.955,4.0168,4.0182,4.035,4.0702,4.0702,4.0702,4.0702,4.0702,4.0702,4.0702,4.0702,3.9867,3.8419,0.0,3.627,3.3784,3.3522,3.2734,3.1823,3.2128,3.2331,3.2544,3.2667,3.2779,3.2891,3.3081,3.3081,3.3181,3.3281,3.3281,3.3281,3.3281,3.3281,3.3281,3.3192,3.288,3.2229,3.0835,2.9797,2.8591,2.7166,2.6412,2.6118,2.5904,2.6191,2.6533,2.6713,2.6927,2.7073,2.7073,2.6686,2.6259,2.5675,2.5271,2.476,2.4362,2.4338,2.3959,2.2875,2.2359,2.1855,2.1225,2.1211,2.1269,2.1415,2.1906,2.2242,2.2374,2.2849,2.3106,2.3106,2.3106,2.3106,2.3106,2.3106,2.3106,2.3106,2.3106,2.2856,3.7838,3.9617,4.0782,4.0942,4.1703,4.1562,3.815,3.6737,3.5109,3.1497,0.0,2.665,2.7287,2.6836,2.6974,2.8856,0.0,3.2875,3.6579,3.6954,3.7593,3.9634,3.976,3.9451,3.8917,3.8861,3.9086,3.962,3.9816,3.9901,3.9901,3.9901,4.0154,4.0674,4.0702,4.0702,4.0702,4.0702,4.0702,4.0702,4.0702,4.0702,4.0702,4.0702,4.0041,3.8944,0.0,0.0,3.4423,3.3808,3.2835,3.1732,3.224,3.2443,3.2544,3.2544,3.2667,3.288,3.2891,3.2891,3.2992,3.3181,3.3281,3.3281,3.3281,3.3281,3.3181,3.2992,3.2454,3.171,3.0742,3.0026,2.9182,2.76,2.7142,2.6897,2.6347,2.6345,2.6542,2.6987,2.7073,2.7056,2.6883,2.6226,2.5489,2.5271,2.4521,2.3622,2.2574,2.2574,2.2697,2.2543,2.171,2.1211,2.1211,2.1211,2.1328,2.1613,2.1979,2.2301,2.2557,2.2915,2.3106,2.3106,2.3106,2.3106,2.3106,2.3106,2.3106,2.3106,2.3106,2.248,3.8262,3.9486,4.0615,4.0925,4.1764,4.1671,3.8285,3.7203,0.0,0.0,2.735,2.6382,2.5014,2.6316,2.8718,3.2063,0.0,0.0,0.0,0.0,3.9562,0.0,0.0,0.0,0.0,0.0,0.0,0.0,0.0,0.0,4.0533,4.0533,4.0589,4.0702,4.0702,4.0702,4.0702,4.0702,4.0702,4.0702,4.0702,4.0702,4.0702,4.0702,3.9706,3.8069,0.0,0.0,3.3423,3.3346,3.2734,3.1924,3.2026,3.224,3.2544,3.2544,3.2555,3.2555,3.2779,3.2891,3.2992,3.3181,3.3281,3.3281,3.3281,3.2958,3.2633,3.288,3.2353,3.1721,3.171,3.0764,2.9523,2.832,2.7272,2.6345,2.5293,2.5592,2.6242,2.6944,2.7073,2.6849,2.6039,2.5691,2.5079,2.3442,2.3069,2.2574,2.1558,2.2206,2.2382,2.1543,2.1354,2.1211,2.1211,2.1211,2.1233,2.1291,2.1854,2.2206,2.2257,2.2806,2.3106,2.3106,2.3106,2.3106,2.3106,2.3106,2.3106,2.3106,2.3106,2.2208,3.8391,3.9428,4.0496,4.0453,4.1335,4.1068,3.6525,0.0,0.0,0.0,2.5403,2.4864,2.4133,2.5944,0.0,3.043,3.3969,0.0,0.0,0.0,0.0,0.0,0.0,0.0,0.0,0.0,0.0,0.0,0.0,0.0,4.0702,4.0702,4.0702,4.0702,4.0702,4.0702,4.0702,4.0702,4.0702,4.0702,4.0702,4.0702,4.0702,4.0702,3.9779,3.816,3.7586,0.0,3.3621,3.3135,3.2544,3.1823,3.2128,3.2229,3.2229,3.2229,3.2342,3.2544,3.2667,3.2779,3.2992,3.3181,3.3281,3.3281,3.3281,3.2969,3.2656,3.2667,3.224,3.1823,3.1823,3.13,3.0349,2.8648,2.7168,2.6056,2.5508,2.5994,2.6457,2.6371,2.6285,2.6039,2.4952,2.4378,2.3794,2.2883,2.2228,2.1717,2.1225,2.1565,2.1717,2.1225,2.1211,2.1211,2.1211,2.1211,2.1284,2.1452,2.1913,2.225,2.2403,2.2857,2.3106,2.3106,2.2821,2.2617,2.2617,2.232,2.2119,2.2126,2.2414,2.139,3.8125,3.9353,4.0393,4.003,4.0928,4.0482,3.4958,3.3455,0.0,2.579,2.4074,2.3613,2.3802,0.0,2.664,0.0,3.1625,3.484,3.5761,3.7442,3.8664,0.0,3.8299,0.0,0.0,0.0,0.0,0.0,0.0,0.0,4.0702,4.0702,4.0702,4.0702,4.0702,4.0702,4.0702,4.0702,4.0702,4.0702,4.0702,4.0702,4.0702,4.0702,3.9779,3.8121,3.735,0.0,0.0,3.2935,3.2229,3.1629,3.2139,3.2139,3.1924,3.2026,3.2128,3.2443,3.2555,3.2768,3.2992,3.3181,3.3281,3.3281,3.317,3.2869,3.2667,3.2353,3.2026,3.1823,3.1618,3.1618,3.1013,2.8874,2.7021,2.5857,2.602,2.6346,2.6396,2.5691,2.5464,2.4935,2.3999,2.3247,2.2581,2.2397,2.171,2.1211,2.1211,2.1211,2.1211,2.1211,2.1211,2.1211,2.1211,2.1211,2.132,2.1576,2.1964,2.2286,2.252,2.2901,2.3106,2.3106,2.2552,2.2148,2.2148,2.1583,2.1194,2.1194,2.1432,2.0176,3.7135,3.9119,4.0228,3.9891,4.0849,4.0482,3.5027,0.0,3.2192,2.6406,2.4664,2.4017,2.367,2.3316,0.0,0.0,2.7088,2.9163,3.4522,3.4955,3.577,3.8538,0.0,0.0,0.0,0.0,0.0,0.0,0.0,0.0,0.0,4.0702,4.0702,4.0702,4.0702,4.0702,4.0702,4.0702,4.0702,4.0702,4.0702,4.0702,4.0702,4.0702,3.9387,3.7153,0.0,0.0,0.0,3.2521,3.2128,3.1629,3.1629,3.1629,3.1618,3.1924,3.2015,3.2128,3.2667,3.2891,3.2992,3.3181,3.3281,3.3181,3.2633,3.2319,3.2026,3.1721,3.1527,3.1322,3.1516,3.1618,3.1098,2.9242,2.7002,2.5609,2.6294,2.5755,2.5301,2.5592,2.4903,2.3991,2.2937,2.2736,2.2389,2.1521,2.1225,2.1211,2.1211,2.1211,2.1211,2.1211,2.1211,2.1211,2.1211,2.1211,2.1218,2.1254,2.184,2.2198,2.2228,2.2791,2.3106,2.3106,2.2552,2.2148,2.2148,2.1583,2.1194,2.1187,2.0113,1.8625,3.7094,3.8697,3.9518,3.961,3.9075,3.7634,3.4213,0.0,3.0151,2.5967,2.4632,2.4044,2.3478,2.2799,2.2734,2.3878,2.5388,2.737,2.9785,3.1138,3.2877,3.5756,0.0,0.0,0.0,0.0,0.0,0.0,0.0,0.0,0.0,4.0702,4.0702,4.0702,4.0702,4.0702,4.0702,4.0702,4.0702,4.0702,4.0702,4.0702,4.0702,4.0702,3.9867,3.8328,0.0,0.0,0.0,3.2409,3.1823,3.1618,3.1618,3.1721,3.1823,3.1913,3.224,3.2566,3.2779,3.2992,3.3227,3.3625,3.3298,3.2734,3.2521,3.2218,3.1924,3.1527,3.1127,3.1034,3.1127,3.036,2.9524,2.8719,2.7264,2.5946,2.5662,2.5502,2.5107,2.3991,2.3473,2.2929,2.2022,2.1855,2.1695,2.1225,2.1211,2.1211,2.1211,2.1211,2.1211,2.1211,2.1211,2.1211,2.1211,2.1211,2.1298,2.1489,2.1935,2.2264,2.244,2.2566,2.2581,2.2581,2.1598,2.1103,2.1103,2.044,2.006,2.006,1.9137,1.7787,3.576,3.7674,3.8969,3.9235,3.7834,3.5853,0.0,0.0,2.8742,2.5727,2.4576,2.396,2.3507,2.274,2.2184,2.2184,2.396,2.5588,2.6441,2.7925,2.9953,0.0,0.0,0.0,0.0,0.0,0.0,0.0,0.0,0.0,0.0,4.0702,4.0702,4.0702,4.0702,4.0702,4.0702,4.0702,4.0702,4.0702,4.0702,4.0616,4.053,4.053,3.9807,3.8535,0.0,0.0,0.0,3.2912,3.2117,3.2015,3.1924,3.1924,3.2015,3.2229,3.2555,3.2891,3.2992,3.3284,3.3545,3.3889,3.3345,3.2644,3.243,3.2137,3.1618,3.1116,3.092,3.0859,3.1091,3.0058,2.8935,2.8868,2.7706,2.6377,2.5419,2.494,2.4346,2.2921,2.2405,2.2037,2.1362,2.1211,2.1211,2.1211,2.1211,2.1211,2.1211,2.1211,2.1211,2.1211,2.1211,2.1211,2.1211,2.1211,2.1306,2.154,2.195,2.2235,2.2217,2.2162,2.2105,2.189,2.0886,2.0267,2.0267,1.9739,1.9366,1.9372,1.8121,1.6436,3.2327,3.5821,3.874,3.8776,3.7712,3.5982,0.0,3.1324,2.8817,2.5972,2.4608,2.3918,2.3876,2.2995,2.2184,2.2184,2.2212,2.3083,2.5556,2.5921,2.6863,0.0,0.0,0.0,0.0,0.0,0.0,0.0,0.0,0.0,0.0,4.0702,4.0702,4.0702,4.0702,4.0702,4.0702,4.0702,4.0702,4.0702,4.0702,4.0443,3.9996,3.9996,3.8881,0.0,0.0,0.0,0.0,3.3895,3.34,3.3101,3.2633,3.2342,3.2026,3.2667,3.288,3.2992,3.3181,3.3602,3.3993,3.4004,3.3594,3.3079,3.2537,3.1793,3.1127,3.0599,3.0609,3.0934,3.1675,3.1031,3.0174,3.0064,2.8452,2.6672,2.5788,2.4133,2.272,2.2713,2.1885,2.1218,2.1211,2.1211,2.1211,2.1211,2.1211,2.1211,2.1211,2.1211,2.1211,2.1211,2.1211,2.1211,2.1211,2.1211,2.1211,2.1211,2.1825,2.1911,2.1217,2.1811,2.1875,2.1201,2.0662,2.0267,2.0267,1.9739,1.9366,1.9366,1.6762,1.4272,3.0094,3.1552,3.2565,3.3561,3.1969,3.018,3.0466,2.855,2.651,2.5707,2.4672,2.3918,2.3918,2.2995,2.2325,2.2746,2.2658,2.2839,0.0,0.0,0.0,0.0,0.0,0.0,0.0,0.0,0.0,0.0,0.0,0.0,0.0,4.0702,4.0702,4.0702,4.0702,4.0702,4.0702,4.0702,4.0702,4.0702,4.0343,4.017,3.9996,3.9645,0.0,0.0,0.0,0.0,0.0,3.4483,3.3598,3.2409,3.3012,3.3035,3.2667,3.2779,3.2992,3.3227,3.366,3.3878,3.3959,3.3991,3.3347,3.2548,3.2036,3.1388,3.0795,3.0297,3.0527,3.1011,3.1254,3.121,3.1065,3.1023,2.9707,2.7961,2.6304,2.4862,2.3443,2.197,2.1391,2.1211,2.1211,2.1211,2.1211,2.1211,2.1211,2.1211,2.1211,2.1211,2.1211,2.1211,2.1211,2.1211,2.1211,2.1211,2.1401,2.1847,2.1611,2.1622,2.1825,2.1265,2.0745,2.0648,1.9999,1.9739,1.9739,1.9529,1.8538,1.6756,1.5095,1.3435,2.7456,2.8761,2.9747,3.1118,2.935,0.0,2.9016,2.7294,2.5378,2.5378,2.4664,2.3991,2.3822,2.3039,2.253,2.2738,2.2602,2.2776,0.0,0.0,0.0,0.0,0.0,0.0,0.0,0.0,0.0,0.0,0.0,0.0,0.0,0.0,4.0702,4.0702,4.0702,4.0702,4.0702,4.0702,4.0702,4.0702,4.0257,3.9908,3.9733,3.9216,0.0,0.0,0.0,0.0,0.0,3.5367,3.4385,3.3201,3.3423,3.3258,3.2891,3.298,3.3307,3.3602,3.3901,3.4028,3.4027,3.4031,3.3166,3.2003,3.1201,3.0727,3.0527,3.0401,3.0768,3.1274,3.1847,3.2138,3.2114,3.1544,3.0379,2.8766,2.6531,2.5247,2.4031,2.2245,2.1873,2.1759,2.1325,2.1211,2.1211,2.1211,2.1211,2.1211,2.1211,2.1211,2.1203,2.0967,2.0967,2.0967,2.0859,2.0967,2.1141,2.1428,2.1253,2.1088,2.1244,2.0642,2.0219,1.9985,1.9576,1.9366,1.9366,1.8887,1.7584,1.5575,1.4262,1.308,0.0,2.6867,2.908,3.0386,2.8974,2.7573,2.8722,2.7144,0.0,2.5045,2.4645,2.4177,2.3696,2.3246,2.2814,2.2334,2.2147,0.0,0.0,0.0,0.0,0.0,0.0,0.0,0.0,0.0,0.0,0.0,0.0,0.0,0.0,0.0,4.0702,4.0702,4.0702,4.0702,4.0702,4.0702,4.0702,4.0702,4.017,3.9733,3.9305,3.8782,0.0,0.0,0.0,0.0,0.0,3.6345,3.5559,3.4981,3.3953,3.3281,3.2992,3.3181,3.3591,3.4004,3.4039,3.4061,3.4027,3.3888,3.2805,3.1296,3.0328,2.9994,3.0192,3.0862,3.1115,3.1571,3.3018,3.3396,3.3065,3.1544,3.0488,2.9153,2.6861,2.5567,2.4505,2.3199,2.2974,2.2652,2.1432,2.1211,2.1211,2.1211,2.1211,2.1211,2.1211,2.1211,2.1081,2.0716,2.0716,2.0608,2.027,2.0493,2.0615,2.0305,2.0557,2.0468,1.9856,2.0096,1.9992,1.9372,1.9366,1.9366,1.9366,1.8052,1.6744,1.5575,1.4143,1.296,2.1756,0.0,2.2633,2.3828,2.4068,2.4233,0.0,0.0,0.0,0.0,0.0,0.0,0.0,0.0,2.3274,2.2802,0.0,0.0,0.0,0.0,0.0,0.0,0.0,0.0,0.0,0.0,0.0,0.0,0.0,0.0,0.0,0.0,4.0702,4.0702,4.0702,4.0702,4.0702,4.0702,4.0702,4.0702,3.9821,3.9394,3.9305,3.8434,0.0,0.0,0.0,0.0,3.6977,3.7441,3.6402,3.4678,3.5078,3.4421,3.3181,3.3281,3.3591,3.4062,3.4475,3.4368,3.376,3.2539,3.137,3.0339,3.013,2.9994,3.0192,3.0862,3.1571,3.22,3.3114,3.3855,3.3928,3.2865,3.1761,3.0409,2.8186,2.6784,2.5525,2.3424,2.2974,2.2652,2.1432,2.1211,2.1211,2.1211,2.1211,2.1211,2.1211,2.0967,2.0838,2.0716,2.0493,2.027,1.9924,2.0155,2.0491,2.0613,2.024,2.011,2.0157,1.978,1.9549,1.9366,1.9366,1.9366,1.9366,1.7109,1.5924,1.5575,1.332,1.1764,2.0438,2.0203,2.0481,2.1647,2.2226,2.2766,2.3798,2.4322,0.0,0.0,0.0,0.0,0.0,0.0,0.0,0.0,0.0,0.0,0.0,0.0,0.0,0.0,0.0,0.0,0.0,0.0,0.0,0.0,0.0,0.0,0.0,0.0,4.0702,4.0702,4.0702,4.0702,4.0702,4.0421,4.028,4.028,3.9335,3.8898,3.881,3.8225,0.0,0.0,0.0,0.0,3.7428,3.7717,3.6764,3.515,3.5343,3.4507,3.3315,3.3534,3.3935,3.444,3.4957,3.4441,3.327,3.1423,3.0506,2.9994,2.9994,3.0149,3.0514,3.1176,3.1962,3.2767,3.3469,3.4115,3.4115,3.2632,3.1835,3.0816,2.8622,2.7781,2.6744,2.4974,2.4189,2.3416,2.2207,2.1546,2.1211,2.1211,2.1089,2.0967,2.0967,2.073,2.0493,2.0263,2.0155,1.9931,1.9591,1.9822,2.0007,2.0172,1.9795,1.9665,1.9827,1.9562,1.9366,1.9366,1.9366,1.9127,1.8525,1.652,1.5095,1.4252,1.2238,1.1039,2.0004,2.0212,2.0905,2.1582,2.1811,2.2258,2.356,2.3978,0.0,0.0,0.0,0.0,0.0,0.0,0.0,0.0,0.0,0.0,0.0,0.0,0.0,0.0,0.0,0.0,0.0,0.0,0.0,0.0,0.0,0.0,0.0,0.0,0.0,4.0702,4.0603,4.0561,4.0561,4.0041,3.9732,3.9634,3.8704,3.8274,3.8214,3.7841,3.7625,0.0,0.0,0.0,3.8094,3.7678,3.6951,3.6011,3.5259,3.4457,3.3642,3.3957,3.4383,3.4957,3.5066,3.4269,3.2801,3.0706,2.9994,3.0005,3.0077,3.0419,3.0992,3.1657,3.2395,3.314,3.3856,3.4145,3.3741,3.1866,3.1278,3.0673,2.8682,2.8291,2.796,2.6744,2.5507,2.4283,2.3199,2.1979,2.1089,2.1089,2.0845,2.0601,2.0601,2.0385,2.0155,1.9815,1.9815,1.9707,1.9366,1.9366,1.9366,1.9366,1.9366,1.9366,1.9366,1.9366,1.9366,1.9366,1.9366,1.8765,1.7331,1.6037,1.449,1.2577,1.1265,1.0304,1.9957,2.1383,2.2733,2.0998,2.1016,2.1744,2.2629,2.3362,2.4067,0.0,0.0,0.0,0.0,0.0,0.0,0.0,0.0,0.0,0.0,0.0,0.0,0.0,0.0,0.0,0.0,0.0,0.0,0.0,0.0,0.0,0.0,0.0,0.0,4.0702,4.0196,3.9929,3.9929,3.9831,3.9521,3.9016,3.8059,3.7623,3.7636,3.677,3.6384,0.0,0.0,3.7322,3.7553,3.7911,3.7717,3.7044,3.6106,3.5539,3.5087,3.4275,3.4601,3.5253,3.3933,3.334,3.2801,3.0706,2.9994,3.0067,3.046,3.0905,3.136,3.1816,3.2427,3.314,3.3856,3.3662,3.287,3.1673,3.0724,2.9776,2.8623,2.8291,2.796,2.6744,2.5507,2.4283,2.3199,2.1737,2.0838,2.0838,2.0493,2.0385,2.0385,2.0046,1.9815,1.9815,1.9591,1.9482,1.9366,1.9366,1.9366,1.9366,1.9366,1.9366,1.9366,1.9366,1.9366,1.9366,1.9366,1.8519,1.6603,1.5413,1.3756,1.1852,1.0539,0.9579,2.0193,2.076,2.1702,2.2317,2.39,2.5621,2.6767,2.7311,0.0,0.0,0.0,0.0,0.0,0.0,0.0,0.0,0.0,0.0,0.0,0.0,0.0,0.0,0.0,0.0,0.0,0.0,0.0,0.0,0.0,0.0,0.0,0.0,0.0,0.0,3.9437,3.9128,3.8777,3.8531,3.8573,3.8861,3.7593,3.7175,3.7487,3.6532,3.6279,3.6606,0.0,3.7464,3.7857,3.8211,3.7913,3.715,3.62,3.5502,3.4825,3.4518,3.506,3.5699,3.3752,3.3071,3.2844,3.1,3.0367,3.046,3.0915,3.1381,3.1774,3.1981,3.2668,3.3359,3.3582,3.3274,3.2674,3.1454,3.0574,2.9597,2.8496,2.8291,2.8184,2.7628,2.5954,2.4505,2.3958,2.2297,2.096,2.0716,2.0493,2.027,2.004,1.9822,1.9591,1.9591,1.9482,1.9366,1.9366,1.9366,1.9366,1.9366,1.9366,1.9366,1.9366,1.9366,1.9366,1.9366,1.901,1.7689,1.5526,1.446,1.268,1.0172,0.9576,0.897,2.0408,2.0538,2.1349,2.3697,2.5466,2.7379,3.0133,3.0258,0.0,0.0,0.0,0.0,0.0,0.0,0.0,0.0,0.0,0.0,0.0,0.0,0.0,0.0,0.0,0.0,0.0,0.0,0.0,0.0,0.0,0.0,0.0,0.0,0.0,0.0,3.8861,3.8552,3.776,3.7451,3.7618,3.8263,3.6948,3.6534,3.7115,3.626,3.624,3.6802,3.7138,3.753,3.7938,3.8264,3.8031,3.7256,3.6402,3.5428,3.4596,3.4762,3.5172,3.5461,3.3619,3.2896,3.2522,3.1113,3.0688,3.0791,3.136,3.1774,3.2064,3.2168,3.2797,3.3378,3.3056,3.2769,3.2185,3.098,3.0096,2.9252,2.8476,2.8291,2.8291,2.8291,2.6391,2.4727,2.4727,2.2636,2.0852,2.0608,2.027,2.0046,1.97,1.9482,1.9366,1.9366,1.9366,1.9366,1.9366,1.9366,1.9366,1.9366,1.9366,1.9366,1.9366,1.9366,1.9366,1.9133,1.8655,1.7097,1.4584,1.4113,1.2204,0.9092,0.9092,0.8601,2.0339,2.2101,2.4015,2.4256,2.2601,0.0,2.9131,2.8651,0.0,3.1716,0.0,0.0,0.0,0.0,0.0,0.0,0.0,0.0,0.0,0.0,0.0,0.0,0.0,0.0,0.0,0.0,0.0,0.0,0.0,0.0,0.0,0.0,0.0,0.0,0.0,3.8403,3.7384,3.7289,3.704,3.6609,3.5656,3.5528,3.6018,3.5522,3.5652,3.6201,3.6763,3.7024,3.7103,3.7665,3.8057,3.8018,3.6989,3.6072,3.5118,3.4901,3.4516,3.3955,3.2884,3.2079,3.1572,3.0912,3.0688,3.0853,3.1723,3.2012,3.2126,3.2561,3.2934,3.3088,3.2413,3.1622,3.096,3.0194,2.9202,2.8437,2.8301,2.8291,2.8291,2.8291,2.6391,2.4727,2.4727,2.2281,2.0385,2.0385,1.9822,1.9482,1.9482,1.9366,1.9366,1.9366,1.9366,1.9366,1.9366,1.9366,1.9366,1.9366,1.9366,1.9366,1.9366,1.9366,1.9133,1.8538,1.8421,1.7109,1.4599,1.4604,1.2924,0.9684,0.9684,0.9079,2.0339,2.2255,2.4317,2.4234,2.3508,0.0,0.0,3.2044,3.2168,3.4208,3.4837,0.0,0.0,0.0,0.0,0.0,0.0,0.0,0.0,0.0,0.0,0.0,0.0,0.0,0.0,0.0,0.0,0.0,0.0,0.0,0.0,0.0,0.0,0.0,0.0,3.7655,3.8266,3.6689,3.6144,3.6525,3.5868,3.5938,3.6524,3.5982,3.6109,3.6671,3.6907,3.722,3.7586,3.7808,3.7979,3.7965,3.7002,3.6096,3.5241,3.5039,3.4601,3.3854,3.2724,3.2219,3.1847,3.1329,3.1298,3.165,3.2282,3.2468,3.2509,3.2685,3.2302,3.1922,3.185,3.1359,3.0799,2.9798,2.8927,2.8291,2.8291,2.8291,2.8291,2.8291,2.6391,2.4727,2.4727,2.2387,2.0493,2.027,1.9931,1.9591,1.9366,1.9366,1.9366,1.9366,1.9366,1.9366,1.9366,1.9366,1.9366,1.9366,1.9366,1.9366,1.9366,1.901,1.8655,1.8421,1.7596,1.6402,1.4604,1.4252,1.2573,0.9805,0.9805,0.9079,2.0076,2.1095,2.2562,2.3667,0.0,0.0,3.1882,3.3321,3.4032,3.643,3.6554,0.0,0.0,0.0,0.0,0.0,0.0,0.0,0.0,0.0,0.0,0.0,0.0,0.0,0.0,0.0,0.0,0.0,0.0,0.0,0.0,0.0,0.0,0.0,0.0,3.7164,3.7702,3.6156,3.5541,3.5908,3.5774,3.5923,3.6406,3.6035,3.6279,3.6998,3.6998,3.7351,3.79,3.79,3.79,3.7808,3.7002,3.6273,3.5636,3.5155,3.4365,3.3499,3.2542,3.192,3.1474,3.121,3.1464,3.1919,3.2375,3.2613,3.2727,3.2727,3.1942,3.1216,3.1177,3.0701,3.0148,2.9263,2.8721,2.8291,2.8291,2.8291,2.8291,2.8291,2.6617,2.5177,2.4727,2.2725,2.0945,2.0385,1.9931,1.9591,1.9366,1.9366,1.9366,1.9366,1.9366,1.9366,1.9366,1.9366,1.9366,1.9366,1.9366,1.9366,1.9127,1.8655,1.8181,1.783,1.6891,1.5935,1.4852,1.4143,1.2577,1.0407,1.0044,0.8958,1.9553,1.8711,1.8951,0.0,0.0,0.0,3.096,3.1397,3.2182,3.8277,0.0,0.0,0.0,0.0,0.0,0.0,0.0,0.0,0.0,0.0,0.0,0.0,0.0,0.0,0.0,0.0,0.0,0.0,0.0,0.0,0.0,0.0,0.0,0.0,0.0,0.0,3.5194,3.5755,3.5491,3.4424,3.5012,3.5299,3.5299,3.5312,3.5926,3.6998,3.6998,3.7338,3.79,3.79,3.79,3.7808,3.7015,3.6709,3.6521,3.4969,3.3697,3.2711,3.1924,3.092,3.0077,3.0532,3.0998,3.1464,3.1909,3.2354,3.2727,3.2727,3.1942,3.1033,3.0247,2.9579,2.8828,2.8398,2.8291,2.8291,2.8291,2.8291,2.8291,2.8291,2.7305,2.6073,2.4948,2.3295,2.1737,2.05,1.9822,1.9366,1.9366,1.9366,1.9366,1.9366,1.9366,1.9366,1.9366,1.9366,1.9366,1.9366,1.9366,1.9127,1.8421,1.8421,1.783,1.6537,1.6537,1.6183,1.5601,1.4272,1.3062,1.1611,1.0407,0.8711,2.0147,2.2532,0.0,0.0,0.0,0.0,0.0,3.2706,0.0,0.0,0.0,0.0,0.0,0.0,0.0,0.0,0.0,0.0,0.0,0.0,0.0,0.0,0.0,0.0,0.0,0.0,0.0,0.0,0.0,0.0,0.0,0.0,0.0,0.0,0.0,0.0,3.7907,3.6271,3.5746,3.6154,3.5575,3.5299,3.5312,3.5691,3.6279,3.6985,3.6554,3.6946,3.79,3.79,3.79,3.79,3.7611,3.7214,3.6615,3.5559,3.419,3.2711,3.1924,3.1134,3.0501,3.0636,3.0998,3.1464,3.1909,3.2137,3.2313,3.2633,3.1481,3.0073,3.0046,2.8804,2.7682,2.7989,2.8184,2.8291,2.8291,2.8291,2.8291,2.8291,2.7305,2.6409,2.6073,2.4531,2.2982,2.1737,2.1067,2.0385,1.9482,1.9366,1.9366,1.9366,1.9366,1.9366,1.9366,1.9366,1.9366,1.9366,1.901,1.8655,1.8421,1.7954,1.7361,1.6537,1.607,1.5833,1.5601,1.4272,1.3062,1.1611,0.9916,0.834,2.0512,0.0,0.0,0.0,0.0,0.0,0.0,0.0,0.0,0.0,0.0,0.0,0.0,0.0,0.0,0.0,0.0,0.0,0.0,0.0,0.0,0.0,0.0,0.0,0.0,0.0,0.0,0.0,0.0,0.0,0.0,0.0,0.0,0.0,0.0,0.0,3.7833,3.6537,3.6049,3.6254,3.5851,3.5626,3.5613,3.5482,3.5757,3.6332,3.6423,3.6881,3.756,3.7808,3.79,3.79,3.79,3.7598,3.7015,3.5953,3.4775,3.3388,3.2015,3.1195,3.0716,3.0514,3.0729,3.1153,3.1422,3.1629,3.1868,3.2333,3.1248,3.0066,3.0458,2.9069,2.7621,2.7891,2.8067,2.8184,2.8291,2.8291,2.8291,2.8291,2.7736,2.7079,2.6527,2.5525,2.4189,2.241,2.1174,2.027,1.9482,1.9366,1.9366,1.9366,1.9366,1.9366,1.9366,1.9366,1.9249,1.901,1.8655,1.8181,1.7713,1.7244,1.6773,1.6188,1.5833,1.5359,1.4873,1.3545,1.2093,1.0521,0.8824,0.7368,2.1085,0.0,0.0,0.0,0.0,0.0,0.0,0.0,0.0,0.0,0.0,0.0,0.0,0.0,0.0,0.0,0.0,0.0,0.0,0.0,0.0,0.0,0.0,0.0,0.0,0.0,0.0,0.0,0.0,0.0,0.0,0.0,0.0,0.0,0.0,0.0,3.6213,3.6663,3.6393,0.0,3.5848,3.6109,3.607,3.4972,3.4776,3.5365,3.6567,3.705,3.705,3.7652,3.79,3.79,3.79,3.79,3.7703,3.625,3.5355,3.4545,3.2409,3.1414,3.0888,3.0297,3.0379,3.0732,3.0774,3.1086,3.1402,3.1857,3.1238,3.057,3.0983,2.9764,2.8372,2.7997,2.7881,2.796,2.8291,2.8291,2.8291,2.8291,2.8291,2.796,2.6853,2.6391,2.5168,2.241,2.0493,1.9366,1.9366,1.9366,1.9366,1.9366,1.9366,1.9366,1.9366,1.9366,1.9133,1.8421,1.8305,1.7713,1.6537,1.6537,1.6183,1.5601,1.5477,1.4873,1.3665,1.2213,1.0517,0.8821,0.737,0.6029,0.0,2.6566,0.0,0.0,0.0,0.0,0.0,0.0,0.0,0.0,0.0,0.0,0.0,0.0,0.0,0.0,0.0,0.0,0.0,0.0,0.0,0.0,0.0,0.0,0.0,0.0,0.0,0.0,0.0,0.0,0.0,0.0,0.0,0.0,0.0,3.8542,3.7253,3.7048,3.6393,0.0,3.5848,3.6109,3.6083,3.5417,3.5168,3.5391,3.7011,3.7442,3.705,3.7652,3.79,3.79,3.79,3.79,3.7808,3.6815,3.6106,3.5294,3.3289,3.2611,3.2499,3.1289,3.1056,3.1216,3.1486,3.1264,3.0936,3.1391,3.0993,3.05,3.059,2.9437,2.8248,2.8362,2.8083,2.796,2.8291,2.8291,2.8291,2.8291,2.8291,2.8184,2.796,2.6853,2.5075,2.2184,2.0385,1.9366,1.9366,1.9366,1.9366,1.9366,1.9366,1.9366,1.9366,1.9366,1.9133,1.8421,1.7954,1.7361,1.6537,1.6537,1.6183,1.5601,1.4629,1.4028,1.3665,1.088,0.9185,0.8699,0.639,0.517,0.0,0.0,0.0,0.0,0.0,0.0,0.0,0.0,0.0,0.0,0.0,0.0,0.0,0.0,0.0,0.0,0.0,0.0,0.0,0.0,0.0,0.0,0.0,0.0,0.0,0.0,0.0,0.0,0.0,0.0,0.0,0.0,0.0,3.9897,3.9393,3.8597,3.7429,3.7102,3.6393,3.5312,3.6136,3.6541,3.6515,3.594,3.5678,3.5757,3.6946,3.7299,3.705,3.7652,3.79,3.79,3.79,3.79,3.7808,3.7015,3.6508,3.5998,3.4068,3.3499,3.34,3.2196,3.1483,3.123,3.1478,3.0947,3.045,3.0915,3.0822,3.0537,3.053,2.9479,2.8497,2.8468,2.8042,2.7745,2.8067,2.8184,2.8291,2.8291,2.8291,2.8291,2.8291,2.6961,2.5177,2.2942,2.1281,2.0046,1.9482,1.9366,1.9366,1.9366,1.9366,1.9366,1.9366,1.9133,1.8655,1.8071,1.7361,1.6773,1.607,1.6065,1.5591,1.4753,1.413,1.291,1.1362,0.9741,0.8275,0.6874,0.5535,0.4681,0.0,0.0,0.0,0.0,0.0,0.0,0.0,0.0,0.0,0.0,0.0,0.0,0.0,0.0,0.0,0.0,0.0,0.0,0.0,0.0,0.0,0.0,0.0,0.0,0.0,0.0,0.0,0.0,0.0,0.0,4.0345,3.9999,3.9927,4.0385,3.9684,3.8677,3.7394,3.7142,3.6379,3.5385,3.6345,3.6959,3.7142,3.6645,3.6358,3.6292,3.6894,3.7155,3.7194,3.7691,3.79,3.79,3.79,3.79,3.7808,3.7108,3.6815,3.6521,3.4763,3.419,3.4091,3.2812,3.1902,3.1392,3.1278,3.0692,3.0077,3.046,3.0626,3.0642,3.0387,2.959,2.8916,2.8382,2.7777,2.7422,2.7853,2.8067,2.8291,2.8291,2.8291,2.8184,2.8067,2.6626,2.5177,2.3718,2.2168,2.0723,1.9597,1.9366,1.9366,1.9366,1.9366,1.9366,1.9366,1.8771,1.8188,1.7485,1.6891,1.6183,1.5596,1.5601,1.4893,1.3477,1.3364,1.1752,0.8821,0.8444,0.7086,0.4925,0.4803,0.4438,0.0,0.0,0.0,0.0,0.0,0.0,0.0,0.0,0.0,0.0,0.0,0.0,0.0,0.0,0.0,0.0,0.0,0.0,0.0,0.0,0.0,0.0,0.0,0.0,0.0,0.0,0.0,0.0,0.0,0.0,4.0318,4.0504,4.046,4.0399,4.0315,3.9595,3.826,3.7488,3.6596,3.5587,3.6,3.6776,3.7782,3.7704,3.7377,3.692,3.7521,3.7782,3.7795,3.7874,3.79,3.79,3.79,3.79,3.79,3.7808,3.7413,3.6815,3.5439,3.5174,3.5017,3.3012,3.2308,3.2106,3.1392,3.0692,3.0005,3.0067,3.0377,3.0498,2.9596,2.9232,2.8739,2.78,2.7352,2.7206,2.7745,2.8067,2.8291,2.8291,2.8291,2.796,2.6961,2.6073,2.4846,2.2628,2.1623,2.0723,1.9597,1.9366,1.9366,1.9366,1.9366,1.9366,1.9366,1.8771,1.8188,1.7485,1.6891,1.6183,1.5596,1.5601,1.448,1.2213,1.1461,1.0411,0.8821,0.6523,0.5302,0.4925,0.4316,0.395,2.7318,0.0,0.0,0.0,0.0,0.0,0.0,0.0,0.0,0.0,0.0,0.0,0.0,0.0,0.0,0.0,0.0,0.0,0.0,0.0,0.0,0.0,0.0,0.0,0.0,0.0,0.0,0.0,0.0,4.0251,4.0887,4.0773,4.063,4.0399,3.9951,3.936,3.8655,3.77,3.7029,3.6603,3.6766,3.7166,3.79,3.79,3.7756,3.7521,3.7782,3.79,3.79,3.79,3.79,3.79,3.79,3.79,3.79,3.79,3.7598,3.7015,3.6131,3.5679,3.532,3.3598,3.2812,3.2207,3.1494,3.0692,2.9994,2.9994,3.0139,3.0137,2.9394,2.8658,2.8048,2.7313,2.6858,2.6761,2.7188,2.7689,2.8077,2.8291,2.8291,2.8174,2.7628,2.6409,2.5067,2.3287,2.1949,2.0723,1.9597,1.9366,1.9366,1.9366,1.9366,1.9249,1.8894,1.8305,1.7596,1.7009,1.6307,1.5833,1.5601,1.5601,1.4431,1.1849,1.113,0.9665,0.7338,0.5731,0.4721,0.4316,0.4073,0.3951,0.0,0.0,0.0,0.0,0.0,0.0,0.0,0.0,0.0,0.0,0.0,0.0,0.0,0.0,0.0,0.0,0.0,0.0,0.0,0.0,0.0,0.0,0.0,0.0,0.0,0.0,0.0,0.0,0.0,4.0574,4.1108,4.0689,4.0462,4.0399,3.974,3.9319,3.9074,3.8016,3.7531,3.7471,3.7471,3.7685,3.7979,3.7979,3.7992,3.79,3.79,3.79,3.79,3.79,3.79,3.79,3.79,3.79,3.79,3.7703,3.7413,3.6828,3.6358,3.5895,3.5126,3.3709,3.2901,3.2207,3.1187,3.0495,2.9994,2.9994,2.9994,2.9858,2.9096,2.8476,2.7868,2.7227,2.6788,2.6623,2.6949,2.7534,2.8067,2.8291,2.8291,2.8291,2.8291,2.6844,2.5168,2.3933,2.2281,2.0723,1.9597,1.9366,1.9243,1.9243,1.9249,1.8894,1.8298,1.7713,1.7126,1.6537,1.5952,1.5601,1.5601,1.524,1.3928,1.155,1.0652,0.872,0.6008,0.5261,0.4488,0.3951,0.3951,0.3951,0.0,0.0,0.0,0.0,0.0,0.0,0.0,0.0,0.0,0.0,0.0,0.0,0.0,0.0,0.0,0.0,0.0,0.0,0.0,0.0,0.0,0.0,0.0,0.0,0.0,0.0,0.0,0.0,0.0,4.0009,4.0627,4.0136,4.0027,4.0385,4.0371,4.0243,3.9954,3.8888,3.8081,3.7683,3.7683,3.7824,3.8213,3.8213,3.8044,3.79,3.79,3.79,3.79,3.79,3.79,3.79,3.79,3.79,3.7808,3.7307,3.6828,3.6358,3.58,3.532,3.4628,3.3012,3.2409,3.2117,3.0495,2.9994,2.9994,2.9994,2.9994,2.9786,2.8806,2.879,2.878,2.7829,2.7208,2.6997,2.7728,2.8057,2.8291,2.8291,2.8291,2.8291,2.8291,2.6844,2.5168,2.3933,2.2281,2.0723,1.9597,1.912,1.8874,1.8874,1.8648,1.8298,1.7935,1.7349,1.6879,1.6537,1.5952,1.5601,1.5601,1.4391,1.2902,1.0983,0.9007,0.7245,0.5914,0.4567,0.3954,0.3951,0.3951,0.3951,0.0,0.0,0.0,0.0,0.0,0.0,0.0,0.0,0.0,0.0,0.0,0.0,0.0,0.0,0.0,0.0,0.0,0.0,0.0,0.0,0.0,0.0,0.0,0.0,0.0,0.0,0.0,0.0,0.0,0.0,4.0584,4.0163,4.0154,4.0616,4.0336,4.0138,3.9996,3.9601,3.9128,3.851,3.851,3.8362,3.82,3.82,3.8044,3.79,3.79,3.79,3.79,3.79,3.79,3.79,3.79,3.79,3.7808,3.7307,3.6828,3.6358,3.5812,3.4908,3.3808,3.2711,3.2004,3.1392,3.0297,2.9994,2.9994,2.9994,2.9994,2.9953,2.9569,2.9103,2.8545,2.7865,2.7418,2.7228,2.7756,2.796,2.8067,2.8291,2.8291,2.8067,2.7295,2.5617,2.4053,2.2846,2.1167,1.9815,1.912,1.8997,1.8881,1.8648,1.8292,1.7818,1.7349,1.6885,1.6414,1.5952,1.5715,1.5235,1.4391,1.3909,1.2363,0.9625,0.8352,0.7028,0.5372,0.4339,0.3951,0.3951,0.3951,0.3951,2.6178,0.0,0.0,0.0,0.0,0.0,0.0,0.0,0.0,0.0,0.0,0.0,0.0,0.0,0.0,0.0,0.0,0.0,0.0,0.0,0.0,0.0,0.0,0.0,0.0,0.0,0.0,0.0,0.0,0.0,4.0814,4.0392,4.0322,4.0745,4.0379,4.0096,3.9996,3.9821,3.9557,3.9011,3.9011,3.8832,3.8472,3.8395,3.8226,3.7979,3.79,3.79,3.79,3.79,3.79,3.79,3.79,3.7808,3.7611,3.7015,3.6546,3.6086,3.5512,3.4714,3.3906,3.3101,3.2308,3.1494,3.0692,3.0193,2.9994,2.9994,2.9994,2.9994,2.9994,2.9548,2.8847,2.8177,2.7953,2.79,2.7719,2.7756,2.796,2.8174,2.8291,2.7901,2.682,2.5034,2.3424,2.2436,2.055,1.912,1.8874,1.8765,1.8421,1.8188,1.783,1.7355,1.6773,1.6543,1.6188,1.5596,1.5601,1.5116,1.4267,1.3297,1.1483,0.9064,0.7601,0.6175,0.4755,0.4216,0.3951,0.3951,0.3951,0.3951,0.0,0.0,0.0,0.0,0.0,0.0,0.0,0.0,0.0,0.0,0.0,0.0,0.0,0.0,0.0,0.0,0.0,0.0,0.0,0.0,0.0,0.0,0.0,0.0,0.0,0.0,0.0,0.0,0.0,4.0532,4.1158,4.0501,4.0406,4.0944,4.0546,4.0229,3.9996,3.9571,3.9305,3.9305,3.9305,3.9203,3.8908,3.8679,3.8408,3.8213,3.7979,3.79,3.79,3.79,3.79,3.79,3.79,3.7611,3.7015,3.6546,3.6086,3.5524,3.503,3.4823,3.4628,3.3895,3.3001,3.2207,3.1494,3.0692,2.9994,2.9994,2.9994,2.9994,2.9994,2.9994,2.9776,2.8786,2.88,2.88,2.7534,2.7661,2.796,2.7853,2.8077,2.7987,2.7068,2.5207,2.3497,2.2598,2.0431,1.8874,1.8881,1.8428,1.7849,1.7485,1.7138,1.679,1.6205,1.6087,1.5963,1.5601,1.5596,1.5359,1.4992,1.2324,1.0269,0.9182,0.6388,0.4561,0.3951,0.3951,0.3951,0.3951,0.3951,0.3951,2.4768,0.0,0.0,0.0,0.0,0.0,0.0,0.0,0.0,0.0,0.0,0.0,0.0,0.0,0.0,0.0,0.0,0.0,0.0,0.0,0.0,0.0,0.0,0.0,0.0,0.0,0.0,0.0,4.1094,4.0929,4.1017,4.0739,4.0562,4.0599,4.0264,4.0083,3.9996,3.9571,3.9305,3.9305,3.9305,3.9127,3.8679,3.8602,3.833,3.7979,3.79,3.79,3.79,3.79,3.79,3.79,3.7703,3.74,3.7015,3.6358,3.5883,3.5524,3.5223,3.4617,3.3906,3.3895,3.2789,3.1494,3.1289,3.0692,2.9994,2.9994,2.9994,2.9994,2.9994,2.9994,2.9963,2.962,2.9357,2.88,2.7829,2.7873,2.8174,2.796,2.8077,2.7762,2.6028,2.4639,2.3167,2.1482,1.987,1.8765,1.8532,1.8194,1.7732,1.7256,1.6897,1.6543,1.6087,1.5844,1.572,1.5601,1.5359,1.4262,1.208,1.0993,0.9054,0.6145,0.5291,0.4561,0.3951,0.3951,0.3951,0.3951,0.3951,0.3951,2.5045,2.4293,2.338,0.0,0.0,0.0,2.5796,2.7411,0.0,0.0,0.0,0.0,0.0,0.0,0.0,0.0,0.0,0.0,0.0,0.0,0.0,0.0,0.0,0.0,0.0,0.0,0.0,4.1829,4.2007,4.1983,4.1609,4.1124,4.0647,4.0177,3.9909,3.961,3.9188,3.9081,3.9038,3.91,3.9203,3.9127,3.8859,3.8769,3.8589,3.8317,3.8148,3.8057,3.8057,3.7887,3.7808,3.7703,3.7598,3.7227,3.6734,3.6156,3.5787,3.5416,3.5126,3.4617,3.4115,3.4311,3.3101,3.1699,3.1699,3.0888,2.9994,2.9994,2.9994,2.9994,2.9994,2.9994,2.9994,2.9994,2.9774,2.9116,2.7924,2.7937,2.8018,2.7487,2.7514,2.7138,2.5665,2.4072,2.2557,2.0977,1.9613,1.8532,1.8311,1.796,1.7491,1.6897,1.6661,1.6307,1.5963,1.572,1.5601,1.5601,1.5235,1.4267,1.2333,1.0755,0.8818,0.639,0.517,0.4316,0.3951,0.3951,0.3951,0.3951,0.3951,0.3815,2.5171,2.4254,2.3247,0.0,0.0,0.0,2.6574,2.7659,2.9067,0.0,0.0,0.0,0.0,0.0,0.0,0.0,0.0,0.0,0.0,0.0,0.0,0.0,0.0,0.0,0.0,4.1852,4.226,4.2254,4.2901,4.3107,4.2761,4.1728,4.0816,4.0096,3.9837,3.9284,3.8344,3.8515,3.8756,3.8908,3.9114,3.9203,3.9203,3.9011,3.8819,3.8819,3.8381,3.82,3.8213,3.7979,3.7795,3.7505,3.7505,3.7028,3.6358,3.6156,3.5679,3.5223,3.5017,3.492,3.4823,3.4823,3.372,3.2409,3.2308,3.1208,2.9994,2.9994,2.9994,2.9994,2.9994,2.9994,2.9994,2.9994,2.9994,2.9536,2.7969,2.791,2.7845,2.6807,2.6449,2.6152,2.5439,2.351,2.1725,2.0821,1.9358,1.8305,1.8083,1.7726,1.7244,1.6537,1.6419,1.6188,1.5596,1.5601,1.5596,1.5477,1.5116,1.452,1.3808,1.0763,0.8821,0.7975,0.5295,0.3951,0.3951,0.3951,0.3951,0.3951,0.3951,0.3676,0.0,0.0,0.0,0.0,0.0,0.0,2.235,2.2335,2.328,0.0,0.0,0.0,0.0,0.0,0.0,0.0,0.0,0.0,0.0,0.0,0.0,0.0,0.0,0.0,0.0,4.1294,4.1317,4.1194,4.1836,4.2566,4.3382,4.2534,4.2068,4.2033,4.1014,4.0201,3.9656,3.9326,3.9114,3.8908,3.8769,3.8845,3.8997,3.8769,3.8575,3.8291,3.82,3.82,3.82,3.8122,3.7861,3.7505,3.7505,3.7121,3.6628,3.6615,3.6168,3.5608,3.6156,3.5679,3.4823,3.4799,3.3697,3.2308,3.1597,3.0795,2.9994,2.9994,2.9994,2.9994,2.9994,2.9994,2.9994,2.9994,2.9994,2.9454,2.7594,2.7702,2.7522,2.5611,2.546,2.5195,2.3435,2.2551,2.1643,2.0183,1.9338,1.8648,1.8305,1.7837,1.7244,1.6537,1.6312,1.6081,1.5596,1.5601,1.524,1.451,1.4162,1.2955,1.0774,0.907,0.7492,0.6031,0.4562,0.3951,0.3951,0.3951,0.3951,0.3951,0.3951,0.3698,0.0,0.0,0.0,2.3745,0.0,0.0,0.0,2.308,2.3541,0.0,0.0,0.0,0.0,0.0,0.0,0.0,0.0,0.0,0.0,0.0,0.0,0.0,0.0,0.0,0.0,4.1345,4.1519,4.1611,4.1262,4.1303,4.2034,4.1499,4.0958,4.0545,4.0322,3.9743,3.8844,3.8787,3.8652,3.8549,3.8589,3.8679,3.8756,3.8692,3.8589,3.8549,3.8485,3.8408,3.8408,3.8304,3.7939,3.7505,3.7677,3.7492,3.7108,3.6815,3.6439,3.6168,3.6439,3.6156,3.5488,3.4787,3.3796,3.2611,3.1494,3.0692,2.9994,2.9994,2.9994,2.9994,2.9994,2.9994,2.9994,2.9994,2.9994,2.9423,2.7495,2.754,2.7246,2.4925,2.4175,2.3701,2.2875,2.1706,2.0599,1.9509,1.8952,1.8538,1.8194,1.7837,1.7361,1.6767,1.6312,1.5963,1.5596,1.5477,1.5116,1.4629,1.3918,1.2595,1.0649,0.883,0.6884,0.4685,0.4196,0.3951,0.3951,0.3951,0.3951,0.3951,0.3951,0.3673,0.0,0.0,0.0,0.0,0.0,2.2512,0.0,0.0,0.0,0.0,0.0,0.0,0.0,0.0,0.0,0.0,0.0,0.0,0.0,0.0,0.0,0.0,0.0,0.0,0.0,4.02,4.0909,4.2,4.0248,3.9589,4.0639,4.0357,3.9765,3.8805,3.9294,3.9033,3.7784,3.8179,3.8291,3.82,3.8421,3.8512,3.8602,3.8512,3.8575,3.8729,3.8679,3.8602,3.8512,3.8317,3.8044,3.769,3.7861,3.7769,3.7505,3.7188,3.7002,3.6815,3.6734,3.6452,3.5966,3.4872,3.3685,3.2499,3.1483,3.0588,2.9994,2.9994,2.9994,2.9994,2.9994,2.9994,2.9994,2.9994,2.9994,2.9454,2.7594,2.7486,2.6931,2.4534,2.3102,2.2497,2.2587,2.0929,1.9432,1.8957,1.8685,1.8421,1.8077,1.7719,1.7361,1.6885,1.6307,1.5844,1.5601,1.5235,1.4873,1.4634,1.3315,1.1989,1.077,0.8587,0.6272,0.395,0.3951,0.3951,0.3951,0.3951,0.3944,0.3933,0.3946,0.3527,0.0,0.0,0.0,0.0,2.2617,0.0,0.0,0.0,0.0,0.0,0.0,0.0,0.0,0.0,0.0,0.0,0.0,0.0,0.0,0.0,0.0,0.0,0.0,0.0,0.0,0.0,3.7093,4.0883,3.7719,3.7292,4.107,4.0757,4.0211,3.965,3.97,3.9126,3.8075,3.8537,3.8639,3.82,3.807,3.8161,3.8602,3.8304,3.8304,3.8291,3.8498,3.8498,3.8304,3.8498,3.8512,3.8421,3.8213,3.8031,3.7861,3.8226,3.7952,3.7492,3.7848,3.6803,3.5307,3.4763,3.3066,3.1094,3.0888,3.0495,2.9994,2.9994,2.9994,2.9994,2.9994,2.9994,2.9994,2.9994,2.9994,2.9536,2.7969,2.7692,2.6967,2.4682,2.3182,2.2245,2.1546,2.0074,1.9004,1.892,1.89,1.8642,1.7935,1.7707,1.7132,1.6318,1.5839,1.5601,1.5601,1.4753,1.3913,1.308,1.1261,0.9805,0.8717,0.6764,0.5176,0.3951,0.3951,0.3951,0.3951,0.3951,0.3922,0.3872,0.3925,0.3303,0.0,0.0,0.0,0.0,0.0,0.0,2.1922,0.0,2.0909,0.0,0.0,0.0,0.0,0.0,0.0,0.0,0.0,0.0,0.0,0.0,0.0,0.0,0.0,0.0,0.0,0.0,0.0,0.0,0.0,3.4177,3.7941,3.8351,3.8323,3.7919,3.8117,3.7952,3.7404,3.7688,3.7712,3.7545,3.773,3.7992,3.8161,3.807,3.8044,3.8213,3.8304,3.8304,3.82,3.8304,3.833,3.8161,3.8226,3.8122,3.8122,3.8148,3.7979,3.7795,3.7979,3.7201,3.5858,3.4471,3.2577,3.0785,3.0785,3.0391,2.9994,2.9994,2.9994,2.9994,2.9994,2.9994,2.9994,2.9994,2.9774,2.9116,2.7924,2.737,2.6464,2.4352,2.2733,2.1432,2.0702,1.9441,1.8532,1.8428,1.8188,1.8058,1.7935,1.7355,1.6779,1.6425,1.5833,1.5477,1.5353,1.4401,1.3435,1.2221,0.9431,0.7492,0.6644,0.5298,0.4318,0.3951,0.3951,0.3951,0.3951,0.3951,0.392,0.3861,0.3185,0.2939,2.4386,0.0,0.0,0.0,0.0,0.0,0.0,0.0,0.0,0.0,0.0,0.0,0.0,0.0,0.0,2.1066,0.0,2.2792,0.0,0.0,0.0,0.0,0.0,0.0,0.0,0.0,0.0,3.5392,3.1895,3.1351,3.5465,3.628,3.6511,3.6196,3.6596,3.6762,3.6446,3.6652,3.6763,3.6763,3.7364,3.7652,3.7665,3.7835,3.7979,3.8135,3.8213,3.8213,3.8122,3.8213,3.8044,3.79,3.8057,3.8135,3.8135,3.807,3.807,3.7979,3.7979,3.7294,3.6131,3.4374,3.26,3.0991,3.0991,3.0495,2.9994,2.9994,2.9994,2.9994,2.9994,2.9994,2.9963,2.962,2.9357,2.8724,2.7545,2.6754,2.5611,2.3822,2.1979,2.0639,1.9925,1.892,1.8188,1.8083,1.7719,1.7596,1.7695,1.7003,1.6419,1.6301,1.5833,1.5359,1.5116,1.3794,1.2105,1.0155,0.7609,0.5784,0.5054,0.4319,0.3951,0.3951,0.3951,0.3951,0.3951,0.3951,0.3928,0.3886,0.2577,0.2325,0.0,0.0,0.0,2.2773,0.0,0.0,0.0,0.0,2.0827,0.0,0.0,0.0,0.0,0.0,2.1098,2.0451,2.0342,0.0,0.0,0.0,0.0,0.0,0.0,0.0,0.0,0.0,0.0,3.1475,2.851,2.9133,3.5343,3.5737,3.5589,3.5194,3.5672,3.5738,3.5325,3.5861,3.6136,3.6136,3.6737,3.7037,3.705,3.7639,3.79,3.79,3.8135,3.8044,3.79,3.8135,3.8044,3.79,3.79,3.79,3.7992,3.8434,3.8408,3.82,3.82,3.7083,3.5475,3.4678,3.3101,3.1516,3.1516,3.0806,2.9994,2.9994,2.9994,2.9994,2.9994,2.9994,2.9776,2.8786,2.881,2.8581,2.6518,2.5626,2.4718,2.302,2.1124,1.9658,1.9015,1.8127,1.7719,1.8305,1.783,1.7361,1.7114,1.6767,1.6301,1.5715,1.5353,1.5116,1.5116,1.2457,0.9434,0.5786,0.5542,0.493,0.395,0.3951,0.3951,0.3951,0.3951,0.3951,0.3951,0.3951,0.395,0.3825,0.259,0.1346,0.0,0.0,3.0167,2.5218,0.0,0.0,0.0,0.0,0.0,0.0,0.0,0.0,0.0,2.1277,2.1244,2.1017,2.0519,1.9814,0.0,0.0,0.0,0.0,0.0,0.0,0.0,0.0,0.0,3.0508,2.9315,3.0317,3.4643,3.4812,3.4812,3.4647,3.4844,3.4866,3.4711,3.5273,3.5574,3.5574,3.6136,3.641,3.6423,3.7037,3.7312,3.7325,3.7808,3.7979,3.79,3.7979,3.7979,3.79,3.79,3.79,3.79,3.8083,3.807,3.7874,3.6803,3.6131,3.5379,3.4127,3.2734,3.1618,3.1618,3.0806,2.9994,2.9994,2.9994,2.9994,2.9994,2.9548,2.9032,2.886,2.8256,2.7351,2.6591,2.5104,2.3568,2.1979,2.0344,1.8893,1.8102,1.7545,1.7256,1.7719,1.7244,1.6773,1.6649,1.6183,1.5472,1.451,1.4275,1.3565,1.2093,0.9425,0.7123,0.5542,0.4808,0.4195,0.3951,0.3951,0.3951,0.3951,0.3951,0.3951,0.3951,0.3951,0.3951,0.3951,0.3459,0.2094,3.1957,3.281,0.0,2.7987,2.7926,0.0,2.3396,0.0,0.0,0.0,0.0,0.0,0.0,0.0,2.1181,2.0954,2.0519,1.9814,0.0,1.7322,0.0,0.0,0.0,0.0,0.0,0.0,2.3677,2.766,2.8116,2.9413,0.0,0.0,3.4577,3.4577,3.4481,3.4397,3.4397,3.4789,3.4972,3.4986,3.5547,3.5822,3.5835,3.6423,3.6802,3.7024,3.7416,3.7704,3.79,3.79,3.79,3.79,3.79,3.79,3.79,3.79,3.7703,3.7307,3.6345,3.5655,3.4981,3.4028,3.2734,3.1618,3.1618,3.0806,3.0025,3.0191,3.0118,3.0036,3.0201,2.9462,2.8719,2.865,2.7622,2.6454,2.5482,2.3829,2.2188,2.0697,1.9332,1.8158,1.7633,1.7256,1.702,1.725,1.6779,1.6307,1.6307,1.5957,1.5147,1.3889,1.3458,1.2088,0.9188,0.7362,0.5906,0.4931,0.4318,0.3951,0.3951,0.3951,0.395,0.4071,0.395,0.395,0.4071,0.395,0.3703,0.3209,0.3708,0.2471]},{"header":{"parameterUnit":"m.s-1","parameterCategory":1,"la1":30.6,"la2":29.2853,"lo1":-89.7004,"lo2":-87.6739,"dy":0.0162,"dx":0.0183,"nx":112,"ny":82,"refTime":"2023-04-23T18:00:00:Z","depth":0,"parameterNumber":3,"parameterNumberName":"V-component_of_WINDS"},"data":[0.0,0.0,0.0,0.0,0.0,0.0,0.0,0.0,0.0,0.0,0.0,0.0,0.0,0.0,0.0,0.0,0.0,0.0,0.0,0.0,0.0,0.0,0.0,0.0,0.0,0.0,0.0,0.0,0.0,0.0,0.0,0.0,0.0,0.0,0.0,0.0,0.0,0.0,0.0,0.0,0.0,0.0,0.0,0.0,0.0,0.0,0.0,0.0,0.0,0.0,0.0,0.0,0.0,0.0,0.0,0.0,0.0,0.0,0.0,0.0,0.0,0.0,0.0,0.0,0.0,0.0,0.0,0.0,0.0,0.0,0.0,0.0,0.0,0.0,0.0,0.0,0.0,0.0,0.0,0.0,0.0,0.0,0.0,0.0,0.0,0.0,0.0,0.0,0.0,0.0,0.0,-3.9847,-4.0956,-4.1365,-4.0597,-4.0448,-4.0263,-4.0034,0.0,0.0,0.0,0.0,0.0,0.0,0.0,0.0,0.0,0.0,0.0,0.0,0.0,0.0,0.0,0.0,0.0,0.0,0.0,0.0,0.0,0.0,0.0,0.0,0.0,0.0,0.0,0.0,0.0,0.0,0.0,0.0,0.0,0.0,0.0,0.0,0.0,0.0,0.0,0.0,0.0,0.0,0.0,0.0,0.0,0.0,0.0,0.0,0.0,0.0,0.0,0.0,0.0,0.0,0.0,0.0,0.0,0.0,0.0,0.0,0.0,0.0,0.0,0.0,0.0,0.0,0.0,0.0,0.0,0.0,0.0,0.0,0.0,0.0,0.0,0.0,0.0,0.0,0.0,0.0,0.0,0.0,0.0,0.0,0.0,0.0,0.0,0.0,0.0,0.0,0.0,0.0,0.0,0.0,0.0,0.0,0.0,0.0,0.0,0.0,0.0,0.0,0.0,0.0,-4.0308,-4.1879,-4.2449,-4.2339,-4.1309,-4.0713,-4.0679,-4.1273,0.0,0.0,0.0,0.0,0.0,0.0,0.0,0.0,0.0,0.0,0.0,0.0,0.0,0.0,0.0,0.0,0.0,0.0,0.0,0.0,0.0,0.0,0.0,0.0,0.0,0.0,0.0,0.0,0.0,0.0,0.0,0.0,0.0,0.0,0.0,0.0,0.0,0.0,0.0,0.0,0.0,0.0,0.0,0.0,0.0,0.0,0.0,0.0,0.0,0.0,0.0,0.0,0.0,0.0,0.0,0.0,0.0,0.0,0.0,0.0,0.0,0.0,0.0,0.0,0.0,0.0,0.0,0.0,0.0,0.0,0.0,0.0,0.0,0.0,0.0,0.0,0.0,0.0,0.0,0.0,0.0,0.0,0.0,0.0,0.0,0.0,0.0,0.0,0.0,0.0,0.0,0.0,0.0,0.0,0.0,0.0,0.0,0.0,0.0,0.0,0.0,0.0,0.0,-4.1429,-4.2059,-4.3256,-4.3521,-4.3163,-4.2071,-4.1723,-4.14,-4.1169,-4.2992,0.0,0.0,0.0,0.0,0.0,0.0,0.0,0.0,0.0,0.0,0.0,0.0,0.0,0.0,0.0,0.0,0.0,0.0,0.0,0.0,0.0,0.0,0.0,0.0,0.0,0.0,0.0,0.0,0.0,0.0,0.0,0.0,0.0,0.0,0.0,0.0,0.0,0.0,0.0,0.0,0.0,0.0,0.0,0.0,0.0,0.0,0.0,0.0,0.0,0.0,0.0,0.0,0.0,0.0,0.0,0.0,0.0,0.0,0.0,0.0,0.0,0.0,0.0,0.0,0.0,0.0,0.0,0.0,0.0,0.0,0.0,0.0,0.0,0.0,0.0,0.0,0.0,0.0,0.0,0.0,0.0,0.0,0.0,0.0,0.0,0.0,0.0,0.0,0.0,0.0,0.0,0.0,0.0,0.0,0.0,0.0,0.0,0.0,0.0,0.0,0.0,0.0,-4.3127,-4.3373,-4.3898,-4.4039,-4.3681,-4.2585,-4.2518,-4.2086,-4.1188,-4.3014,0.0,0.0,0.0,0.0,0.0,0.0,0.0,0.0,0.0,0.0,0.0,0.0,0.0,0.0,0.0,0.0,0.0,0.0,0.0,0.0,0.0,0.0,0.0,0.0,0.0,0.0,0.0,0.0,0.0,0.0,0.0,0.0,0.0,0.0,0.0,0.0,0.0,0.0,0.0,0.0,0.0,0.0,0.0,0.0,0.0,0.0,0.0,0.0,0.0,0.0,0.0,0.0,0.0,0.0,0.0,0.0,0.0,0.0,0.0,0.0,0.0,0.0,0.0,0.0,0.0,0.0,0.0,0.0,0.0,0.0,0.0,0.0,0.0,0.0,0.0,0.0,0.0,0.0,0.0,0.0,0.0,0.0,0.0,0.0,0.0,0.0,0.0,0.0,0.0,0.0,0.0,0.0,0.0,0.0,0.0,0.0,0.0,0.0,0.0,0.0,0.0,0.0,-4.3032,-4.3146,-4.3604,-4.3923,-4.3681,-4.2585,-4.2518,-4.2359,-4.2017,-4.255,0.0,0.0,0.0,0.0,0.0,0.0,0.0,0.0,0.0,0.0,0.0,0.0,0.0,0.0,0.0,0.0,0.0,0.0,0.0,0.0,0.0,0.0,0.0,0.0,0.0,0.0,0.0,0.0,0.0,0.0,0.0,0.0,0.0,0.0,0.0,0.0,0.0,0.0,0.0,0.0,0.0,0.0,0.0,0.0,0.0,0.0,0.0,0.0,0.0,0.0,0.0,0.0,0.0,0.0,0.0,0.0,0.0,0.0,0.0,0.0,0.0,0.0,0.0,0.0,0.0,0.0,0.0,0.0,0.0,0.0,0.0,0.0,0.0,0.0,0.0,0.0,0.0,0.0,0.0,0.0,0.0,0.0,0.0,0.0,0.0,0.0,0.0,0.0,0.0,0.0,0.0,0.0,0.0,0.0,0.0,0.0,0.0,0.0,0.0,0.0,0.0,0.0,-4.3872,-4.3836,0.0,-4.4039,-4.3864,-4.323,-4.3214,-4.3156,-4.3158,0.0,0.0,0.0,0.0,0.0,0.0,0.0,0.0,0.0,0.0,0.0,0.0,0.0,0.0,0.0,0.0,0.0,0.0,0.0,0.0,0.0,0.0,0.0,0.0,0.0,0.0,0.0,0.0,0.0,0.0,0.0,0.0,0.0,0.0,0.0,0.0,0.0,0.0,0.0,0.0,0.0,0.0,0.0,0.0,0.0,0.0,0.0,0.0,0.0,0.0,0.0,0.0,0.0,0.0,0.0,0.0,0.0,0.0,0.0,0.0,0.0,0.0,0.0,0.0,0.0,0.0,0.0,0.0,0.0,0.0,0.0,0.0,0.0,0.0,0.0,0.0,0.0,0.0,0.0,0.0,0.0,0.0,0.0,0.0,0.0,0.0,0.0,0.0,0.0,0.0,0.0,0.0,0.0,0.0,0.0,0.0,0.0,0.0,0.0,0.0,0.0,0.0,-4.4339,-4.4236,-4.4023,0.0,-4.3923,-4.3864,-4.3628,-4.3628,-4.3788,-4.4211,0.0,0.0,0.0,0.0,0.0,0.0,0.0,0.0,0.0,0.0,0.0,0.0,0.0,0.0,0.0,0.0,0.0,0.0,0.0,0.0,0.0,0.0,0.0,0.0,0.0,0.0,0.0,0.0,0.0,0.0,0.0,0.0,0.0,0.0,0.0,0.0,0.0,0.0,0.0,0.0,0.0,0.0,0.0,0.0,0.0,0.0,0.0,0.0,0.0,0.0,0.0,0.0,0.0,0.0,0.0,0.0,0.0,0.0,0.0,0.0,0.0,0.0,0.0,0.0,0.0,0.0,0.0,0.0,0.0,0.0,0.0,0.0,0.0,0.0,0.0,0.0,0.0,0.0,0.0,0.0,0.0,0.0,0.0,0.0,0.0,0.0,0.0,0.0,0.0,0.0,0.0,0.0,0.0,0.0,0.0,0.0,0.0,0.0,0.0,0.0,0.0,0.0,-4.4327,-4.3923,-4.3645,-4.3645,-4.3645,-4.3645,-4.3645,-4.3645,-4.4064,0.0,0.0,0.0,0.0,0.0,0.0,0.0,0.0,0.0,0.0,0.0,0.0,0.0,0.0,0.0,0.0,0.0,0.0,0.0,0.0,0.0,0.0,0.0,0.0,0.0,0.0,0.0,0.0,0.0,0.0,0.0,0.0,0.0,0.0,0.0,0.0,0.0,0.0,0.0,0.0,0.0,0.0,0.0,0.0,0.0,0.0,0.0,0.0,0.0,0.0,0.0,0.0,0.0,0.0,0.0,0.0,0.0,0.0,0.0,0.0,0.0,0.0,0.0,0.0,0.0,0.0,0.0,0.0,0.0,0.0,0.0,0.0,0.0,0.0,0.0,0.0,0.0,0.0,0.0,0.0,0.0,0.0,0.0,0.0,0.0,0.0,0.0,0.0,0.0,0.0,0.0,0.0,0.0,0.0,0.0,0.0,0.0,0.0,0.0,0.0,0.0,0.0,0.0,-4.5084,-4.5123,-4.5152,-4.5152,-4.5152,-4.5152,-4.5152,-4.5152,-4.563,-4.6708,0.0,0.0,0.0,0.0,0.0,0.0,0.0,0.0,0.0,0.0,0.0,0.0,0.0,0.0,0.0,0.0,0.0,0.0,0.0,0.0,0.0,0.0,0.0,0.0,0.0,0.0,0.0,0.0,0.0,0.0,0.0,0.0,0.0,0.0,0.0,0.0,0.0,0.0,0.0,0.0,0.0,0.0,0.0,0.0,0.0,0.0,0.0,0.0,0.0,0.0,0.0,0.0,0.0,0.0,0.0,0.0,0.0,0.0,0.0,0.0,0.0,0.0,0.0,0.0,0.0,0.0,0.0,0.0,0.0,0.0,0.0,0.0,0.0,0.0,0.0,0.0,0.0,0.0,0.0,0.0,0.0,0.0,0.0,0.0,0.0,0.0,0.0,0.0,0.0,0.0,0.0,0.0,0.0,0.0,0.0,0.0,0.0,0.0,0.0,0.0,0.0,0.0,-4.6123,-4.5912,-4.5719,-4.5781,-4.5798,-4.5798,-4.5798,-4.5798,-4.6223,-4.7136,0.0,0.0,0.0,0.0,0.0,0.0,0.0,0.0,0.0,0.0,0.0,0.0,0.0,0.0,0.0,0.0,0.0,0.0,0.0,0.0,0.0,0.0,0.0,0.0,0.0,0.0,0.0,0.0,0.0,0.0,0.0,0.0,0.0,0.0,0.0,0.0,0.0,0.0,0.0,0.0,0.0,0.0,0.0,0.0,0.0,0.0,0.0,0.0,0.0,0.0,0.0,0.0,0.0,0.0,0.0,0.0,0.0,0.0,0.0,0.0,0.0,0.0,0.0,0.0,0.0,0.0,0.0,0.0,0.0,0.0,0.0,0.0,0.0,0.0,0.0,0.0,0.0,0.0,0.0,0.0,0.0,0.0,0.0,0.0,0.0,0.0,0.0,0.0,0.0,0.0,0.0,0.0,0.0,0.0,0.0,0.0,0.0,0.0,0.0,0.0,0.0,0.0,-4.73,-4.6478,-4.5791,-4.5997,-4.5997,-4.5997,-4.5997,-4.5997,-4.6257,-4.6954,0.0,0.0,0.0,0.0,0.0,0.0,0.0,0.0,0.0,0.0,0.0,0.0,0.0,0.0,0.0,0.0,0.0,0.0,0.0,0.0,0.0,0.0,0.0,0.0,0.0,0.0,0.0,0.0,0.0,0.0,0.0,0.0,0.0,0.0,0.0,0.0,0.0,0.0,0.0,0.0,0.0,0.0,0.0,0.0,0.0,0.0,0.0,0.0,0.0,0.0,0.0,0.0,0.0,0.0,0.0,0.0,0.0,0.0,0.0,0.0,-1.73,0.0,0.0,0.0,0.0,0.0,0.0,0.0,0.0,0.0,0.0,0.0,0.0,0.0,0.0,0.0,0.0,0.0,0.0,0.0,0.0,0.0,0.0,0.0,0.0,0.0,0.0,0.0,0.0,0.0,0.0,0.0,0.0,0.0,0.0,0.0,0.0,0.0,0.0,0.0,0.0,0.0,-4.8272,-4.7799,-4.7455,-4.7537,-4.7537,-4.7537,-4.7537,-4.7537,-4.7761,-4.8276,-4.8014,0.0,0.0,0.0,0.0,0.0,0.0,0.0,0.0,0.0,0.0,0.0,0.0,0.0,0.0,0.0,0.0,0.0,0.0,0.0,0.0,0.0,0.0,0.0,0.0,0.0,0.0,0.0,0.0,0.0,0.0,0.0,0.0,0.0,0.0,0.0,0.0,0.0,0.0,0.0,0.0,0.0,0.0,0.0,0.0,0.0,0.0,0.0,0.0,0.0,0.0,0.0,0.0,0.0,0.0,0.0,0.0,0.0,0.0,0.0,0.0,-1.9358,0.0,0.0,0.0,0.0,0.0,0.0,0.0,0.0,0.0,0.0,0.0,0.0,0.0,0.0,0.0,0.0,0.0,0.0,0.0,0.0,0.0,0.0,0.0,0.0,0.0,0.0,0.0,0.0,0.0,0.0,0.0,0.0,0.0,0.0,0.0,0.0,0.0,0.0,0.0,0.0,-4.9068,-4.8371,-4.7919,-4.8001,-4.8001,-4.8001,-4.8001,-4.8001,-4.8115,-4.8356,-4.8405,0.0,0.0,0.0,0.0,0.0,0.0,0.0,0.0,0.0,0.0,0.0,0.0,0.0,0.0,0.0,0.0,0.0,0.0,0.0,0.0,0.0,0.0,0.0,0.0,0.0,0.0,0.0,0.0,0.0,0.0,0.0,0.0,0.0,0.0,0.0,0.0,0.0,0.0,0.0,0.0,0.0,0.0,0.0,0.0,0.0,0.0,0.0,0.0,0.0,0.0,0.0,0.0,0.0,0.0,-2.7732,-2.7981,-2.8538,-2.8066,-2.6816,-2.6816,-2.4095,-1.9726,0.0,0.0,0.0,0.0,0.0,0.0,0.0,0.0,0.0,0.0,0.0,0.0,0.0,0.0,0.0,0.0,0.0,0.0,0.0,0.0,0.0,0.0,0.0,0.0,0.0,-4.4113,-4.3844,0.0,0.0,0.0,0.0,0.0,0.0,0.0,0.0,0.0,0.0,0.0,0.0,-4.9543,-4.8526,-4.7787,-4.8001,-4.8001,-4.8001,-4.8001,-4.8001,-4.8001,-4.8001,-4.856,-4.8944,0.0,0.0,0.0,0.0,0.0,0.0,0.0,0.0,0.0,0.0,0.0,0.0,0.0,0.0,0.0,0.0,0.0,0.0,0.0,0.0,0.0,0.0,0.0,0.0,0.0,0.0,0.0,0.0,0.0,0.0,0.0,0.0,-2.0265,-1.7761,0.0,0.0,0.0,0.0,0.0,0.0,0.0,0.0,0.0,0.0,0.0,0.0,0.0,0.0,-2.5883,-2.5606,-2.5322,-2.5039,-2.7176,-2.8489,-2.9094,-3.2334,-3.3964,-3.4312,-3.4312,0.0,-2.3756,-2.1027,0.0,0.0,0.0,0.0,0.0,0.0,0.0,0.0,0.0,0.0,0.0,0.0,0.0,0.0,0.0,0.0,0.0,0.0,0.0,0.0,0.0,0.0,-3.1766,-4.0966,-4.4218,-4.5271,0.0,-4.4876,-4.4837,-4.5163,0.0,0.0,0.0,0.0,0.0,0.0,0.0,0.0,-4.9214,-4.8497,-4.8001,-4.8001,-4.8001,-4.8001,-4.8001,-4.8001,-4.8001,-4.8001,-4.8115,-4.845,-4.905,-4.9554,0.0,0.0,0.0,0.0,0.0,0.0,0.0,0.0,0.0,0.0,0.0,0.0,0.0,0.0,0.0,0.0,0.0,0.0,0.0,0.0,0.0,0.0,0.0,0.0,0.0,0.0,0.0,0.0,0.0,-1.8911,-1.9295,-1.6388,-1.8916,-2.0213,0.0,0.0,0.0,0.0,0.0,0.0,0.0,0.0,0.0,-2.2382,-2.6556,-2.8488,-2.7761,-2.9472,-3.0383,-3.0561,-3.1882,-3.259,-3.2887,-3.4532,-3.5465,-3.5737,-3.6076,-3.4167,-3.0729,-2.7818,-2.6448,-2.6218,0.0,0.0,0.0,0.0,0.0,-2.8486,-2.5826,-2.5326,0.0,0.0,0.0,0.0,0.0,0.0,0.0,0.0,0.0,0.0,0.0,0.0,0.0,-4.3452,-4.5559,-4.6148,-4.6217,-4.6044,-4.6021,0.0,-4.6504,-4.6845,-4.7798,0.0,0.0,0.0,0.0,0.0,-4.89,-4.8339,-4.8001,-4.8001,-4.8001,-4.8001,-4.8001,-4.8001,-4.8001,-4.8001,-4.8001,-4.8292,-4.8855,-4.9231,-4.9538,0.0,0.0,0.0,0.0,0.0,0.0,0.0,0.0,0.0,0.0,0.0,0.0,0.0,0.0,0.0,0.0,0.0,0.0,0.0,0.0,0.0,0.0,0.0,0.0,0.0,0.0,0.0,0.0,-1.8904,-1.9525,-1.584,-1.8916,-2.0811,0.0,0.0,0.0,0.0,0.0,0.0,-2.0435,-2.4942,-2.6661,-2.4606,-2.8825,-3.0798,-3.0217,-3.3234,-3.4928,-3.5236,-3.571,-3.5859,-3.5723,-3.5873,-3.594,-3.5967,-3.6578,-3.6592,-3.5954,-3.2942,-3.0705,-2.9274,-2.9741,-3.0882,-3.2237,-3.1901,-3.2015,-3.2012,-2.9797,-2.9873,-3.0927,-3.0703,0.0,-3.2595,-3.4642,0.0,0.0,0.0,0.0,-3.0263,-3.4239,-3.7713,-4.1216,-4.5604,-4.6791,-4.6929,-4.7014,-4.7098,-4.7167,0.0,-4.7354,-4.7704,-4.8601,0.0,0.0,0.0,0.0,-4.89,-4.8593,-4.8244,-4.8084,-4.8266,-4.8282,-4.8282,-4.8282,-4.8282,-4.8199,-4.8017,-4.8115,-4.8356,-4.8719,-4.9144,-4.9487,-4.9766,0.0,0.0,0.0,0.0,0.0,0.0,0.0,0.0,0.0,0.0,0.0,0.0,0.0,0.0,0.0,0.0,0.0,0.0,0.0,0.0,0.0,0.0,0.0,0.0,0.0,0.0,0.0,0.0,0.0,-1.8332,-2.0429,0.0,0.0,0.0,0.0,-2.4883,-2.3966,-2.2984,-2.2452,-2.6655,-2.8839,-2.8258,-3.2521,-3.4806,-3.4766,-3.5898,-3.6239,-3.5642,-3.628,-3.6252,-3.5737,-3.6293,-3.6551,-3.6592,-3.7216,-3.7473,-3.708,-3.2239,-3.1284,-3.2491,-2.9032,-2.9156,-3.1228,-3.0201,-3.0184,-3.0388,-2.8958,-2.8873,-2.9446,-2.9537,-3.1036,-3.2869,-3.3096,-3.4491,0.0,0.0,-3.3779,-3.4839,-3.8125,-3.9471,-4.1096,-4.5761,-4.7286,-4.7571,-4.7404,-4.7704,-4.7853,0.0,-4.7421,-4.7671,-4.856,0.0,-4.8702,-4.8765,-4.8765,-4.8513,-4.8115,-4.8001,-4.8266,-4.8978,-4.9044,-4.9044,-4.9044,-4.9044,-4.8746,-4.805,-4.842,-4.8656,-4.8702,-4.958,-5.0181,-5.0445,-5.0964,0.0,0.0,0.0,0.0,0.0,0.0,0.0,0.0,0.0,0.0,0.0,0.0,0.0,0.0,0.0,0.0,0.0,0.0,0.0,0.0,0.0,0.0,0.0,0.0,0.0,0.0,0.0,0.0,-2.3125,-2.5462,0.0,0.0,-2.2815,-2.2739,-2.3636,-2.5345,-2.6263,-2.5934,-3.0455,-3.2988,-3.2882,-3.4567,-3.5656,-3.6033,-3.6035,-3.6117,-3.628,-3.6497,-3.67,-3.689,-3.7107,-3.7202,-3.7229,-3.784,-3.7894,-3.7419,-3.6022,-3.5615,-3.5858,-3.5058,-3.5002,-3.548,-3.689,-3.7306,-3.7255,-3.7869,-3.8837,-3.9923,-4.0478,-4.1077,-4.0924,-3.7866,-3.7375,-3.7215,-3.3659,-3.4988,-3.7903,-3.93,-4.225,-4.5226,-4.7011,-4.721,-4.7128,-4.7539,-4.7325,-4.7144,-4.7422,-4.7654,-4.7902,-4.8179,-4.8627,-4.896,-4.896,-4.936,-4.9526,-4.9273,-4.9205,-4.9304,-4.9431,-4.9395,-4.9395,-4.9395,-4.9841,-4.9993,-4.9726,-5.0308,-5.0793,-5.1133,-5.0652,-5.0748,-5.1447,-5.0533,-5.0465,0.0,0.0,0.0,0.0,0.0,0.0,0.0,0.0,0.0,0.0,0.0,0.0,0.0,0.0,0.0,0.0,0.0,0.0,0.0,0.0,0.0,0.0,0.0,0.0,0.0,0.0,-2.6069,-2.6153,-2.8045,-2.8692,-2.6999,-2.591,-2.5615,-2.6271,-2.8299,-2.9558,-2.9766,-3.2975,-3.508,-3.5451,-3.5776,-3.6212,-3.6605,-3.6619,-3.6727,-3.6917,-3.7121,-3.7324,-3.7541,-3.7745,-3.7826,-3.7867,-3.845,-3.8491,-3.8165,-3.8559,-3.8637,-3.8583,-3.8616,-3.8727,-3.8978,-4.118,-4.2107,-4.2529,-4.4024,-4.5176,-4.6056,-4.6592,-4.6598,-4.5725,-4.2477,-4.1422,-4.0672,-3.7575,-3.9221,-4.2061,-4.2321,-4.4947,-4.7588,-4.7704,-4.7276,-4.7062,-4.7556,-4.7638,-4.7736,-4.8117,-4.8216,-4.815,-4.815,-4.8777,-4.9323,-4.9593,-4.9804,-5.005,-5.0171,-4.9964,-4.9871,-4.996,-5.0187,-5.0327,-5.0327,-5.0978,-5.1307,-5.1054,-5.1595,-5.2106,-5.25,-5.1837,-5.1616,-5.2014,-5.0893,-5.098,-5.2321,0.0,0.0,0.0,0.0,0.0,0.0,0.0,0.0,0.0,0.0,0.0,0.0,0.0,0.0,0.0,0.0,0.0,0.0,0.0,0.0,0.0,0.0,0.0,-2.1301,-2.7141,-3.0119,-2.718,-2.7958,-2.9349,-3.105,-2.8963,-2.9243,-3.3289,-3.2759,-3.2689,-3.3603,-3.4179,-3.4839,-3.5764,-3.6334,-3.6632,-3.6659,-3.7813,-3.8111,-3.7568,-3.8138,-3.8125,-3.7609,-3.8179,-3.845,-3.8477,-3.9061,-3.9305,-3.9305,-3.9305,-3.9867,-4.0462,-3.9074,-3.9659,-4.1363,-4.2283,-4.3605,-4.5238,-4.648,-4.6738,-4.6582,-4.6582,-4.6458,-4.6262,-4.6262,-4.6278,-4.6294,-4.6294,-4.6733,-4.7248,-4.7248,-4.7486,-4.7737,-4.7737,-4.7604,-4.7554,-4.757,-4.863,-4.962,-4.9653,-4.9077,-4.8636,-4.8603,-4.9173,-4.9928,-5.0577,-5.0152,0.0,-5.061,-5.0152,-4.996,-5.0648,-5.1403,-5.1815,-5.1815,-5.2431,-5.2558,-5.1805,-5.2296,-5.257,-5.257,-5.2979,-5.2857,-5.2067,-5.2049,-5.2584,-5.3599,0.0,0.0,0.0,0.0,0.0,0.0,0.0,0.0,0.0,0.0,0.0,0.0,0.0,0.0,0.0,0.0,0.0,0.0,0.0,0.0,0.0,0.0,-2.7131,-2.7759,-2.905,-3.0566,-3.2339,-3.3219,-3.354,-3.2947,-3.3218,-3.3485,-3.3605,-3.4296,-3.4874,-3.513,-3.5695,-3.6316,-3.7012,-3.7189,-3.7487,-3.7908,-3.7826,-3.7908,-3.8165,-3.8342,-3.8559,-3.8817,-3.8993,-3.9061,-3.9061,-3.9237,-3.9305,-3.938,-3.994,-4.0346,-4.0661,-4.0858,-4.132,-4.2029,-4.3928,-4.5243,-4.6001,-4.6512,-4.6668,-4.6582,-4.6738,-4.6598,-4.6262,-4.6262,-4.647,-4.6739,-4.7045,-4.7558,-4.816,-4.8447,-4.8269,-4.8086,-4.8086,-4.8133,-4.8344,-4.8729,-4.9516,-5.0282,-5.0663,-5.1024,-5.1028,-5.0259,-5.0725,-5.1087,-5.0723,-5.138,0.0,-5.1316,-5.2027,-5.2352,-5.1922,-5.2449,-5.291,-5.291,-5.3553,-5.3868,-5.3662,-5.433,-5.4682,-5.4682,-5.4256,-5.3629,-5.2874,-5.3062,-5.3333,0.0,0.0,0.0,0.0,0.0,0.0,0.0,0.0,0.0,0.0,0.0,0.0,0.0,0.0,0.0,0.0,0.0,0.0,0.0,0.0,0.0,0.0,-2.6246,-2.9783,-3.2093,-3.2038,-3.2637,-3.4871,-3.5506,-3.5413,-3.4553,-3.5251,-3.5507,-3.4886,-3.5629,-3.6198,-3.6456,-3.6809,-3.7161,-3.7528,-3.7786,-3.807,-3.8423,-3.8315,-3.845,-3.879,-3.879,-3.8966,-3.9305,-3.9305,-3.9305,0.0,-3.9305,-3.9543,-3.9867,-4.0346,-4.1014,0.0,0.0,0.0,0.0,0.0,-4.6175,-4.6545,-4.6668,-4.6668,-4.6598,-4.6598,-4.6667,-4.6638,-4.6566,-4.684,-4.7336,-4.7559,-4.7786,-4.8013,-4.8289,-4.8183,-4.7991,-4.8027,-4.8364,-4.8614,-4.8694,-4.9527,-5.0277,-5.0335,0.0,0.0,-5.1511,-5.1984,-5.2404,-5.2252,-5.2672,-5.2941,-5.275,-5.3129,-5.3264,-5.2733,-5.3331,-5.3778,-5.3778,-5.4471,0.0,0.0,0.0,-5.5507,-5.5507,-5.4735,0.0,0.0,0.0,-5.4088,-5.4479,0.0,0.0,0.0,-5.555,-5.5692,0.0,0.0,0.0,0.0,0.0,0.0,0.0,0.0,0.0,0.0,0.0,0.0,0.0,0.0,0.0,0.0,-2.7224,-2.9982,-3.4504,-3.5099,-3.5181,-3.5643,-3.5737,-3.5737,-3.5818,-3.5818,-3.6062,-3.6659,-3.67,-3.6944,-3.7501,0.0,0.0,0.0,0.0,-3.8518,-3.8518,-3.9034,-3.9305,-3.9305,-3.9305,-3.9305,-3.9305,-3.9305,-3.9305,-3.9305,-3.9305,-3.9779,-4.0603,-4.0689,-4.185,-4.3442,-4.2629,-4.3145,-4.4433,-4.5969,-4.6668,0.0,0.0,0.0,0.0,-4.6404,-4.6622,-4.6913,-4.6766,-4.7198,-4.7782,-4.7782,-4.7596,-4.746,-4.746,-4.7626,-4.7803,-4.7952,-4.847,-4.882,-4.8261,-4.9261,-5.0135,-4.969,-5.1575,-5.3146,-5.2759,-5.3107,-5.3647,-5.4183,-5.3778,-5.3647,-5.4183,-5.3861,-5.3515,-5.3448,0.0,0.0,-5.4534,-5.5096,-5.5507,-5.5507,-5.5507,-5.5507,-5.5507,-5.4823,-5.4788,-5.5507,-5.4805,-5.4805,-5.5507,-5.6123,-5.6401,-5.642,-5.5957,-5.5783,0.0,0.0,0.0,0.0,0.0,0.0,0.0,0.0,0.0,0.0,0.0,0.0,0.0,0.0,0.0,-2.5154,-2.9037,-3.2655,-3.4491,-3.4608,-3.4831,-3.5725,-3.5862,-3.6029,-3.6429,-3.6429,-3.6687,-3.7311,-3.7351,-3.7406,-3.7528,-3.7989,0.0,-3.8247,-3.8817,-3.9129,-3.9129,-3.9237,-3.9305,-3.9305,0.0,0.0,-3.9305,-3.9305,-3.9305,-3.9305,-3.9305,-3.9779,-4.0689,-4.138,-4.2856,-4.4556,-4.4617,-4.4843,-4.529,-4.5961,-4.6388,-4.6652,-4.6474,-4.6528,-4.6598,-4.6404,-4.6303,-4.6303,-4.6231,-4.6618,0.0,-4.7008,-4.7415,-4.7838,-4.7838,-4.7927,-4.8135,-4.8292,-4.9399,-5.0247,-4.97,-5.0731,-5.1898,-5.2375,-5.2905,-5.3644,-5.4704,-5.451,-5.4055,-5.3581,-5.3926,-5.4055,-5.3581,-5.4408,-5.4834,-5.4247,-5.4817,-5.5312,-5.5312,-5.5448,-5.5507,-5.5507,-5.5507,-5.5507,-5.5507,-5.5367,-5.5349,-5.5507,-5.5367,-5.5349,-5.5507,-5.6123,-5.6401,-5.6383,-5.6711,-5.6915,0.0,0.0,0.0,0.0,0.0,0.0,0.0,0.0,0.0,0.0,0.0,-2.0964,0.0,0.0,-2.7557,-2.6815,-3.0403,-3.3601,-3.4433,-3.4757,-3.507,-3.5468,-3.5932,-3.6356,-3.6605,-3.6877,-3.7311,-3.7935,-3.7975,-3.8098,-3.8396,-3.8708,-3.8857,-3.8857,-3.9142,-3.9305,-3.9305,-3.9305,-3.9305,-3.9305,-3.8993,-3.902,-3.9292,-3.8993,-3.902,-3.9305,-3.9305,-4.0041,-4.1365,-4.279,-4.3849,-4.4799,-4.5173,-4.5484,-4.5719,-4.6008,-4.6278,-4.6458,-4.6333,-4.6404,-4.6388,-4.6278,-4.6391,-4.6605,-4.6459,-4.6877,-4.7356,-4.7356,-4.7356,-4.7356,-4.7356,-4.7517,-4.7776,-4.8249,-4.9046,-4.9722,-4.9486,-5.0039,-5.0656,-5.1091,-5.2056,-5.3004,-5.3739,-5.4452,-5.4817,-5.4471,-5.4676,-5.4817,-5.4471,-5.5035,-5.5371,-5.5018,-5.5294,-5.5507,-5.5507,-5.5238,-5.5185,-5.549,-5.5238,-5.5203,-5.549,-5.5607,-5.5706,-5.5706,-5.5706,-5.5706,-5.5706,-5.6162,-5.6401,-5.6401,-5.6951,-5.7188,0.0,0.0,0.0,0.0,0.0,0.0,0.0,0.0,-2.0989,-2.2484,-2.3356,-2.3788,-2.3654,-2.6914,-2.934,-2.8743,-3.1331,-3.3798,-3.4661,-3.5234,-3.5579,-3.5442,-3.626,-3.6861,-3.6958,-3.7406,-3.7962,-3.8545,-3.8586,-3.8803,-3.9278,-3.9305,-3.9305,-3.9305,-3.9197,-3.9183,-3.9305,-3.9074,-3.902,-3.9129,-3.8532,-3.8491,-3.8939,-3.8464,-3.8559,-3.9129,-3.959,-4.0645,-4.2155,-4.3849,-4.4663,-4.4739,-4.5247,-4.5557,-4.5807,-4.6024,-4.6223,-4.6278,-4.6278,-4.6278,-4.6207,-4.6096,-4.6389,-4.6834,-4.6687,-4.7024,-4.7498,-4.7498,-4.7071,-4.6613,-4.6613,-4.6875,-4.7288,-4.7932,-4.8446,-4.8765,-4.89,-4.8883,-4.8996,-4.9371,-5.0805,-5.2079,-5.2354,-5.4004,-5.5279,-5.5279,-5.542,-5.5507,-5.5507,-5.5507,-5.5507,-5.5507,-5.5507,-5.5455,-5.5338,-5.4952,-5.485,-5.519,-5.4818,-5.4818,-5.5419,-5.5649,-5.5816,-5.5975,-5.5975,-5.5975,-5.5975,-5.6328,-5.651,-5.6492,-5.6984,-5.7188,-1.7081,-1.7605,-1.8193,-1.6694,-1.8154,-1.9621,0.0,0.0,-1.9894,-2.0086,-2.0876,-2.2031,-2.3582,-2.6286,-2.8609,-2.9694,-3.2,-3.4097,-3.5274,-3.5725,-3.6106,-3.6617,-3.7237,-3.7759,-3.812,-3.8274,-3.8559,-3.9156,-3.921,-3.9237,-3.9305,-3.9305,-3.9305,-3.9305,-3.879,-3.8776,-3.9292,-3.826,-3.7989,-3.8505,-3.7921,-3.7677,-3.7731,-3.7663,-3.7962,-3.8632,-4.0746,-4.1825,-4.2155,-4.3849,-4.4814,-4.5129,-4.5188,-4.5484,-4.5807,-4.6136,-4.6278,-4.6262,-4.6152,-4.6096,-4.6096,-4.5896,-4.5855,-4.5918,-4.5918,-4.5981,-4.6044,-4.6044,-4.5981,-4.5918,-4.5918,-4.6522,-4.7153,-4.7357,-4.8063,-4.8765,-4.89,-4.8883,-4.9287,-5.054,-5.1003,-5.1533,-5.2862,-5.3817,-5.4437,-5.4437,-5.5051,-5.5507,-5.5507,-5.5507,-5.5507,-5.5507,-5.5507,-5.5326,-5.4815,-5.473,-5.454,-5.4207,-5.41,-5.4403,-5.5204,-5.5276,-5.5615,-5.6328,-5.6328,-5.6328,-5.6328,-5.6653,-5.6742,-5.6742,-5.7054,-5.7188,-2.0411,-1.9764,0.0,0.0,-2.0369,-2.1299,-2.0881,-2.1908,-2.3262,-2.4676,-2.6395,-2.7902,-2.868,-3.0279,-3.1787,0.0,-3.3428,-3.4334,-3.5314,-3.6113,-3.6783,-3.731,-3.8121,-3.8614,-3.845,-3.8735,-3.9034,-3.9278,-3.9305,-3.9305,-3.9305,-3.9305,-3.9142,-3.8803,-3.8545,-3.8369,-3.8274,-3.7786,-3.7663,-3.7894,-3.765,-3.7704,-3.8043,-3.8043,-3.8601,-3.9754,-4.1279,-4.229,-4.2986,-4.4389,-4.5114,-4.541,-4.5484,-4.5646,-4.5807,-4.5936,-4.6008,-4.6008,-4.5952,-4.5968,-4.588,-4.5807,-4.5807,-4.5807,-4.5807,-4.5807,-4.5807,-4.5807,-4.5807,-4.5807,-4.5807,-4.6207,-4.6844,-4.7671,-4.8046,-4.8463,-4.9325,-4.9847,-5.03,-5.0865,-5.1668,-5.2468,-5.312,-5.3805,-5.4314,-5.4314,-5.4981,-5.5507,-5.5507,-5.5507,-5.5507,-5.5507,-5.5203,-5.4935,-5.4712,-5.4171,-5.3867,-5.401,-5.3703,-5.3844,-5.4474,-5.5114,-5.5613,-5.5954,-5.6402,-5.6653,-5.6653,-5.676,-5.6794,-5.6794,-5.7105,-5.7188,-2.1418,0.0,0.0,-2.1458,-2.2512,-2.3265,-2.3817,-2.5101,-2.6726,-2.8858,-3.0992,-3.255,-3.2967,-3.3602,-3.4247,-3.465,-3.464,-3.4831,-3.5749,-3.6622,-3.7471,-3.8086,-3.8857,-3.9129,-3.8708,-3.9047,-3.9305,-3.9305,-3.9305,-3.9237,-3.9061,-3.9061,-3.879,-3.8193,-3.8003,-3.7867,-3.7786,-3.7446,-3.7446,-3.7786,-3.7609,-3.7758,-3.8179,-3.8342,-3.9133,-4.0435,-4.1489,-4.2534,-4.3539,-4.4752,-4.5321,-4.5484,-4.5792,-4.5952,-4.588,-4.588,-4.5823,-4.5807,-4.5807,-4.5807,-4.5807,-4.5807,-4.5807,-4.5807,-4.5807,-4.5807,-4.5807,-4.5807,-4.5807,-4.5807,-4.5992,-4.6317,-4.688,-4.8077,-4.8222,-4.856,-4.9897,-5.0614,-5.1122,-5.1523,-5.2468,-5.3173,-5.3173,-5.3805,-5.4314,-5.4314,-5.4981,-5.5507,-5.5507,-5.5507,-5.5507,-5.5507,-5.5001,-5.4644,-5.4487,-5.3703,-5.3297,-5.3555,-5.3401,-5.3612,-5.42,-5.5176,-5.58,-5.6034,-5.6593,-5.6899,-5.6899,-5.6899,-5.6899,-5.6899,-5.7105,-5.7188,-1.7906,0.0,-2.0299,-2.169,-2.3555,-2.5198,-2.5662,-2.7288,-2.9047,-3.0533,-3.1835,-3.3156,-3.459,-3.4459,-3.4388,-3.4984,-3.5239,-3.5775,-3.6765,-3.7391,-3.8086,-3.9121,-3.9292,-3.9292,0.0,-3.9292,-3.9305,-3.9305,-3.9305,-3.9047,-3.8477,-3.845,-3.8165,-3.7582,-3.6971,-3.7216,-3.8383,-3.7216,-3.7216,-3.8383,-3.7813,-3.7541,-3.7582,-3.8152,-3.8899,-3.983,-4.1371,-4.2467,-4.3442,-4.4918,-4.541,-4.5294,-4.5977,-4.6223,-4.6112,-4.6112,-4.5968,-4.5807,-4.5807,-4.5807,-4.5807,-4.5807,-4.5807,-4.5807,-4.5807,-4.5807,-4.5807,-4.5807,-4.5807,-4.5936,-4.6636,-4.6984,-4.744,-4.8208,-4.8652,-4.927,-5.0668,-5.0976,-5.1395,-5.2866,-5.3173,-5.3173,-5.3173,-5.3805,-5.4314,-5.4314,-5.4981,-5.5507,-5.5507,-5.5507,-5.5507,-5.5507,-5.5001,-5.4487,-5.4064,-5.3519,-5.2978,-5.256,-5.3277,-5.4055,-5.4822,-5.5613,-5.6355,-5.7152,-5.7188,-5.7206,-5.7206,-5.7206,-5.7206,-5.7206,-5.7206,-5.7188,-1.9019,0.0,-2.1901,-2.367,-2.4767,-2.5899,-2.7646,-2.8999,-3.0461,-3.2129,-3.2041,-3.1705,-3.2083,-3.2179,-3.2288,-3.286,-3.4689,-3.6276,-3.7012,-3.7742,-3.8465,-3.8756,-3.9127,0.0,0.0,0.0,0.0,-3.9305,-3.8939,-3.8627,-3.8423,-3.8043,-3.7745,-3.7541,-3.7324,-3.7419,-3.7826,-3.7419,-3.7419,-3.784,-3.803,-3.8328,-3.8708,-3.8912,-3.9837,-4.1245,-4.1807,-4.3096,-4.4993,-4.5452,-4.5905,-4.6175,-4.6388,-4.6404,-4.6223,-4.6096,-4.604,-4.5968,-4.5823,-4.5807,-4.5807,-4.5807,-4.5807,-4.5807,-4.5807,-4.5807,-4.5807,-4.5807,-4.5807,-4.6008,-4.6811,-4.712,-4.7622,-4.8911,-4.9744,-5.0565,-5.1459,-5.2485,-5.3207,-5.3225,-5.3594,-5.3928,-5.3928,-5.4138,-5.4489,-5.5033,-5.5332,-5.5507,-5.5507,-5.5507,-5.5355,-5.4984,-5.4559,-5.4046,-5.3501,-5.3026,-5.2676,-5.2516,-5.3259,-5.382,-5.4092,-5.5323,-5.612,-5.6391,-5.6935,-5.7188,-5.7188,-5.7188,-5.7188,-5.7188,-5.7188,-5.7188,-2.0418,-2.1755,-2.2945,-2.4781,-2.5649,-2.663,-2.8611,-3.0021,-3.1392,-3.2965,-3.2066,-3.0911,-3.0823,-2.9905,-2.9427,-3.0203,-3.1745,-3.3487,-3.5618,-3.6406,-3.7329,-3.8649,-3.9127,-3.9305,0.0,0.0,0.0,-3.8993,-3.864,-3.8328,-3.8111,-3.7745,-3.7528,-3.7528,-3.7528,-3.7636,-3.7853,-3.7853,-3.7962,-3.8165,-3.8559,-3.8925,-3.9305,-3.9305,-4.0128,-4.1547,-4.1825,-4.3175,-4.5142,-4.5599,-4.6048,-4.6458,-4.6668,-4.6528,-4.6262,-4.6223,-4.6168,-4.604,-4.588,-4.5807,-4.5807,-4.5807,-4.5807,-4.5807,-4.5807,-4.5807,-4.5807,-4.5807,-4.5864,-4.6175,-4.7204,-4.7638,-4.8272,-5.0007,-5.0882,-5.165,-5.2586,-5.3612,-5.4244,-5.405,-5.4401,-5.4735,-5.4735,-5.4735,-5.4911,-5.5437,-5.5507,-5.5507,-5.5507,-5.5303,-5.5107,-5.4747,-5.4118,-5.3591,-5.3239,-5.2792,-5.2498,-5.2498,-5.353,-5.4128,-5.4128,-5.5613,-5.6428,-5.6428,-5.6935,-5.7188,-5.7188,-5.7188,-5.7188,-5.7188,-5.7188,-5.7188,-2.1966,-2.3002,-2.3509,-2.4906,-2.6097,-2.7377,-2.8868,-3.0379,-3.1855,-3.2975,-3.1819,-3.0628,0.0,0.0,-2.6223,-2.7557,-2.7366,-2.8673,-3.3302,-3.392,-3.5279,0.0,0.0,0.0,0.0,0.0,0.0,-3.8383,0.0,-3.8138,-3.7609,-3.7555,-3.7541,-3.7582,-3.7582,-3.7867,-3.845,-3.8464,-3.8735,-3.9305,-3.9305,-3.9305,-3.9305,-3.9305,-3.9793,-4.0689,-4.1645,-4.2776,-4.4113,-4.529,-4.592,-4.6207,-4.6684,-4.6684,-4.6262,-4.6262,-4.6223,-4.604,-4.588,-4.5807,-4.5807,-4.5807,-4.5807,-4.5807,-4.5807,-4.5807,-4.5807,-4.5807,-4.6064,-4.655,-4.7721,-4.8493,-4.9375,-5.1228,-5.1868,-5.2418,-5.3875,-5.4244,-5.4542,-5.5297,-5.549,-5.5507,-5.5507,-5.5507,-5.549,-5.5455,-5.5455,-5.5455,-5.5455,-5.4984,-5.4697,-5.4626,-5.3776,-5.3185,-5.3199,-5.2773,-5.2498,-5.2498,-5.4019,-5.4907,-5.4907,-5.6373,-5.7188,-5.7188,-5.7188,-5.7188,-5.7188,-5.7188,-5.7188,-5.7188,-5.7188,-5.7188,-2.2542,-2.4031,-2.5573,-2.5868,-2.6689,-2.8102,-3.0337,-3.1332,-3.1871,-3.198,-3.0296,-2.8236,0.0,0.0,0.0,-2.8545,-3.2137,0.0,-3.658,-3.7443,0.0,-3.921,0.0,-3.864,-3.864,-3.8505,0.0,0.0,-3.7758,-3.7894,-3.8165,-3.7772,-3.7745,-3.8179,-3.8193,-3.8477,-3.9061,-3.9074,-3.9156,-3.9305,-3.9305,-3.9305,-3.9305,-3.9305,-4.0142,-4.1645,-4.1908,-4.324,-4.5363,-4.5687,-4.6048,-4.6458,-4.6598,-4.6528,-4.6262,-4.6152,-4.6096,-4.604,-4.588,-4.5807,-4.5807,-4.5807,-4.5807,-4.5807,-4.5807,-4.5807,-4.5807,-4.5807,-4.5952,-4.6333,-4.7255,-4.8077,-4.8961,-5.0114,-5.1224,-5.2119,-5.2506,-5.3506,-5.4366,-5.4577,-5.5104,-5.5507,-5.5507,-5.5507,-5.5355,-5.497,-5.4882,-5.4882,-5.4882,-5.48,-5.44,-5.3649,-5.3337,-5.3068,-5.2701,-5.256,-5.2498,-5.2498,-5.4019,-5.4907,-5.4907,-5.6373,-5.7188,-5.7188,-5.7188,-5.7188,-5.7188,-5.7188,-5.7188,-5.7188,-5.7188,-5.7188,-2.3805,-2.5247,-2.6571,-2.6451,-2.7388,-2.8541,-2.9351,-3.0073,-3.0412,-2.9598,-2.7802,0.0,-2.4822,0.0,0.0,0.0,0.0,0.0,-3.6009,-3.6802,-3.7632,0.0,-3.8627,0.0,-3.8057,-3.803,-3.7989,0.0,-3.7921,-3.807,-3.8396,-3.8098,-3.8193,-3.879,-3.8803,-3.8966,-3.9305,-3.9305,-3.9305,-3.9305,-3.9305,-3.9305,-3.9305,-3.9305,-4.0041,-4.138,0.0,-4.3225,-4.5243,-4.551,-4.6104,-4.6738,-4.6528,-4.6388,-4.6262,-4.6223,-4.6168,-4.6112,-4.5952,-4.5952,-4.588,-4.5807,-4.5807,-4.5807,-4.5807,-4.5807,-4.5807,-4.5896,-4.6096,-4.6458,-4.7255,-4.7917,-4.8781,-5.0034,-5.1009,-5.1817,-5.2818,-5.3699,-5.4401,-5.477,-5.5209,-5.5507,-5.5507,-5.5326,-5.5054,-5.4747,-5.4504,-5.4331,-5.4082,-5.4029,-5.3813,-5.3243,-5.2996,-5.2762,-5.2534,-5.2498,-5.2643,-5.3005,-5.4218,-5.5051,-5.5377,-5.6554,-5.7188,-5.7188,-5.7188,-5.7188,-5.7188,-5.7188,-5.7188,-5.7188,-5.7188,-5.7289,-2.5283,-2.6347,-2.6993,-2.6715,-2.7865,-2.8699,-2.7338,-2.7936,-2.8304,-2.6546,0.0,-2.4313,-2.4248,-2.3638,-2.3865,-2.6096,0.0,-2.9601,-3.426,-3.4915,-3.5831,-3.8274,-3.8396,-3.8098,-3.7582,-3.7528,-3.7745,-3.826,-3.845,-3.8532,-3.8532,-3.8532,-3.8776,-3.9278,-3.9305,-3.9305,-3.9305,-3.9305,-3.9305,-3.9305,-3.9305,-3.9305,-3.9305,-3.9305,-3.9867,-4.0859,0.0,0.0,-4.4659,-4.5274,-4.6032,-4.6823,-4.6474,-4.6333,-4.6262,-4.6262,-4.6223,-4.6096,-4.6112,-4.6112,-4.604,-4.588,-4.5807,-4.5807,-4.5807,-4.5807,-4.588,-4.604,-4.6349,-4.6791,-4.7339,-4.7819,-4.8567,-5.0309,-5.0779,-5.1395,-5.3427,-5.4015,-5.4419,-5.5332,-5.5507,-5.5472,-5.5426,-5.4984,-5.4662,-5.4504,-5.4118,-5.3685,-5.3181,-5.3181,-5.3149,-5.3109,-5.2737,-5.2498,-5.2498,-5.2498,-5.2788,-5.3494,-5.4399,-5.5196,-5.583,-5.6717,-5.7188,-5.7188,-5.7188,-5.7188,-5.7188,-5.7188,-5.7188,-5.7188,-5.7188,-5.7437,-2.5808,-2.6508,-2.7138,-2.6704,-2.7774,-2.8506,-2.7182,-2.7279,0.0,0.0,-2.388,-2.3443,-2.213,-2.3282,-2.5519,-2.8869,0.0,0.0,0.0,0.0,-3.8038,0.0,0.0,0.0,0.0,0.0,0.0,0.0,0.0,0.0,-3.9142,-3.9142,-3.9197,-3.9305,-3.9305,-3.9305,-3.9305,-3.9305,-3.9305,-3.9305,-3.9305,-3.9305,-3.9305,-3.9305,-4.0229,-4.1728,0.0,0.0,-4.5583,-4.5687,-4.6104,-4.6668,-4.6598,-4.6474,-4.6262,-4.6262,-4.6278,-4.6278,-4.6168,-4.6112,-4.604,-4.588,-4.5807,-4.5807,-4.5807,-4.5992,-4.6175,-4.6096,-4.642,-4.6807,-4.6791,-4.7372,-4.8177,-4.9052,-4.971,-5.0339,-5.129,-5.247,-5.3805,-5.5244,-5.5507,-5.5355,-5.4899,-5.4783,-5.44,-5.3593,-5.3372,-5.3181,-5.2694,-5.2954,-5.305,-5.2658,-5.2524,-5.2498,-5.2498,-5.2498,-5.2552,-5.2697,-5.4092,-5.4961,-5.5088,-5.6446,-5.7188,-5.7188,-5.7188,-5.7188,-5.7188,-5.7188,-5.7188,-5.7188,-5.7188,-5.748,-2.5895,-2.6594,-2.7315,-2.7414,-2.8409,-2.8623,-2.5814,0.0,0.0,0.0,-2.1411,-2.1709,-2.1445,-2.3463,0.0,-2.7762,-3.1127,0.0,0.0,0.0,0.0,0.0,0.0,0.0,0.0,0.0,0.0,0.0,0.0,0.0,-3.9305,-3.9305,-3.9305,-3.9305,-3.9305,-3.9305,-3.9305,-3.9305,-3.9305,-3.9305,-3.9305,-3.9305,-3.9305,-3.9305,-4.0128,-4.1645,-4.2111,0.0,-4.5437,-4.5817,-4.6262,-4.6738,-4.6528,-4.6458,-4.6458,-4.6458,-4.6404,-4.6262,-4.6223,-4.6168,-4.604,-4.588,-4.5807,-4.5807,-4.5807,-4.6008,-4.6207,-4.6223,-4.6474,-4.6738,-4.6738,-4.7066,-4.7638,-4.8635,-5.0299,-5.1695,-5.2011,-5.3296,-5.4547,-5.4979,-5.5107,-5.4899,-5.4437,-5.4118,-5.3758,-5.3261,-5.3008,-5.2755,-5.2534,-5.2712,-5.2755,-5.2534,-5.2498,-5.2498,-5.2498,-5.2498,-5.2679,-5.3096,-5.4237,-5.507,-5.545,-5.6573,-5.7188,-5.7188,-5.684,-5.669,-5.669,-5.6303,-5.6152,-5.617,-5.6539,-5.6831,-2.5837,-2.6669,-2.7503,-2.8029,-2.9059,-2.8743,-2.4478,-2.3863,0.0,-1.9259,-1.915,-2.0079,-2.0966,0.0,-2.4842,0.0,-2.9491,-3.2631,-3.4384,-3.6157,-3.7338,0.0,-3.6985,0.0,0.0,0.0,0.0,0.0,0.0,0.0,-3.9305,-3.9305,-3.9305,-3.9305,-3.9305,-3.9305,-3.9305,-3.9305,-3.9305,-3.9305,-3.9305,-3.9305,-3.9305,-3.9305,-4.0128,-4.1601,-4.2216,0.0,0.0,-4.5961,-4.6458,-4.6892,-4.6545,-4.6545,-4.6668,-4.6598,-4.6528,-4.6333,-4.6278,-4.6152,-4.604,-4.588,-4.5807,-4.5807,-4.5864,-4.608,-4.6223,-4.642,-4.6598,-4.6738,-4.6876,-4.6876,-4.7302,-4.8774,-5.1087,-5.3015,-5.3348,-5.4319,-5.5032,-5.4783,-5.4608,-5.4401,-5.3903,-5.3465,-5.3199,-5.3086,-5.2737,-5.2498,-5.2498,-5.2498,-5.2498,-5.2498,-5.2498,-5.2498,-5.2498,-5.2498,-5.277,-5.3403,-5.4363,-5.516,-5.574,-5.6681,-5.7188,-5.7188,-5.6527,-5.6225,-5.6225,-5.5502,-5.5212,-5.5212,-5.5832,-5.6195,-2.5761,-2.7012,-2.7778,-2.8192,-2.9137,-2.8743,-2.4413,0.0,-2.2332,-1.8576,-1.8417,-1.919,-1.9861,-2.0719,0.0,0.0,-2.5706,-2.7434,-3.3192,-3.3756,-3.4543,-3.7216,0.0,0.0,0.0,0.0,0.0,0.0,0.0,0.0,0.0,-3.9305,-3.9305,-3.9305,-3.9305,-3.9305,-3.9305,-3.9305,-3.9305,-3.9305,-3.9305,-3.9305,-3.9305,-3.9305,-4.0432,-4.2364,0.0,0.0,0.0,-4.623,-4.6528,-4.6892,-4.6892,-4.6892,-4.6876,-4.6668,-4.6582,-4.6528,-4.6223,-4.6112,-4.604,-4.588,-4.5807,-4.588,-4.6175,-4.6372,-4.6598,-4.6807,-4.6961,-4.7098,-4.6945,-4.6876,-4.7433,-4.9396,-5.1053,-5.2506,-5.391,-5.3996,-5.3952,-5.457,-5.433,-5.3885,-5.3387,-5.3239,-5.3068,-5.2604,-5.2534,-5.2498,-5.2498,-5.2498,-5.2498,-5.2498,-5.2498,-5.2498,-5.2498,-5.2498,-5.2516,-5.2607,-5.4055,-5.4943,-5.5015,-5.641,-5.7188,-5.7188,-5.6527,-5.6225,-5.6225,-5.5502,-5.5212,-5.5194,-5.5636,-5.607,-2.5853,-2.697,-2.7671,-2.8384,-2.8259,-2.7218,-2.4516,0.0,-2.0819,-1.8351,-1.8394,-1.9125,-1.9876,-2.0709,-2.1668,-2.2958,-2.4517,-2.6316,-2.8763,-3.0201,-3.2027,-3.4529,0.0,0.0,0.0,0.0,0.0,0.0,0.0,0.0,0.0,-3.9305,-3.9305,-3.9305,-3.9305,-3.9305,-3.9305,-3.9305,-3.9305,-3.9305,-3.9305,-3.9305,-3.9305,-3.9305,-4.0041,-4.1463,0.0,0.0,0.0,-4.6285,-4.6738,-4.6876,-4.6876,-4.6807,-4.6738,-4.6652,-4.6474,-4.6294,-4.6168,-4.604,-4.5943,-4.6281,-4.6253,-4.6104,-4.623,-4.6442,-4.6668,-4.6961,-4.7251,-4.7335,-4.7251,-4.8117,-4.9136,-4.9994,-5.182,-5.3493,-5.3802,-5.4073,-5.415,-5.3885,-5.3665,-5.3369,-5.284,-5.2762,-5.2701,-5.2534,-5.2498,-5.2498,-5.2498,-5.2498,-5.2498,-5.2498,-5.2498,-5.2498,-5.2498,-5.2498,-5.2715,-5.3186,-5.4291,-5.5106,-5.554,-5.6205,-5.6599,-5.6599,-5.5538,-5.4975,-5.4975,-5.4308,-5.4012,-5.4012,-5.4801,-5.5152,-2.5273,-2.6625,-2.7669,-2.8769,-2.7741,-2.6048,0.0,0.0,-1.9939,-1.8182,-1.8436,-1.923,-1.9812,-2.0746,-2.1423,-2.1423,-2.3239,-2.4927,-2.5534,-2.7203,-2.9179,0.0,0.0,0.0,0.0,0.0,0.0,0.0,0.0,0.0,0.0,-3.9305,-3.9305,-3.9305,-3.9305,-3.9305,-3.9305,-3.9305,-3.9305,-3.9305,-3.9305,-3.9394,-3.9482,-3.9482,-4.0156,-4.1324,0.0,0.0,0.0,-4.5929,-4.6512,-4.6582,-4.6668,-4.6668,-4.6582,-4.6458,-4.6278,-4.6112,-4.604,-4.6022,-4.6171,-4.6645,-4.6748,-4.6621,-4.6747,-4.6759,-4.6876,-4.7235,-4.7386,-4.7519,-4.7648,-4.8811,-5.0118,-5.0764,-5.2382,-5.3782,-5.3896,-5.4098,-5.4047,-5.3351,-5.3104,-5.2877,-5.2542,-5.2498,-5.2498,-5.2498,-5.2498,-5.2498,-5.2498,-5.2498,-5.2498,-5.2498,-5.2498,-5.2498,-5.2498,-5.2498,-5.2733,-5.3313,-5.4327,-5.5033,-5.5335,-5.5904,-5.6116,-5.5927,-5.4766,-5.4206,-5.4206,-5.3506,-5.3206,-5.3225,-5.4158,-5.4611,-2.3921,-2.6026,-2.7889,-2.9353,-2.7905,-2.5903,0.0,-2.2343,-1.9898,-1.7934,-1.8459,-1.9282,-1.9334,-2.0434,-2.1423,-2.1423,-2.145,-2.2291,-2.4679,-2.5032,-2.5941,0.0,0.0,0.0,0.0,0.0,0.0,0.0,0.0,0.0,0.0,-3.9305,-3.9305,-3.9305,-3.9305,-3.9305,-3.9305,-3.9305,-3.9305,-3.9305,-3.9305,-3.9571,-3.9996,-3.9996,-4.0972,0.0,0.0,0.0,0.0,-4.5184,-4.5551,-4.5769,-4.6175,-4.6404,-4.6598,-4.6223,-4.6096,-4.604,-4.588,-4.625,-4.6787,-4.6803,-4.7098,-4.7461,-4.7787,-4.7582,-4.7251,-4.7571,-4.7588,-4.7634,-4.8083,-4.8709,-4.9725,-5.1811,-5.2403,-5.2916,-5.437,-5.3886,-5.3203,-5.3185,-5.2834,-5.2516,-5.2498,-5.2498,-5.2498,-5.2498,-5.2498,-5.2498,-5.2498,-5.2498,-5.2498,-5.2498,-5.2498,-5.2498,-5.2498,-5.2498,-5.2498,-5.2498,-5.4019,-5.4574,-5.3862,-5.5371,-5.5891,-5.5231,-5.4537,-5.4206,-5.4206,-5.3506,-5.3206,-5.3206,-5.3981,-5.4692,-2.2472,-2.3029,-2.3228,-2.4384,-2.312,-2.1727,-2.1932,-2.0177,-1.822,-1.7422,-1.834,-1.9282,-1.9282,-2.0434,-2.1559,-2.1966,-2.2169,-2.2542,0.0,0.0,0.0,0.0,0.0,0.0,0.0,0.0,0.0,0.0,0.0,0.0,0.0,-3.9305,-3.9305,-3.9305,-3.9305,-3.9305,-3.9305,-3.9305,-3.9305,-3.9305,-3.9645,-3.9821,-3.9996,-4.0343,0.0,0.0,0.0,0.0,0.0,-4.4737,-4.5405,-4.6285,-4.5857,-4.5889,-4.6223,-4.6168,-4.604,-4.5943,-4.6329,-4.6629,-4.6956,-4.7654,-4.7846,-4.7803,-4.8172,-4.7874,-4.7421,-4.7787,-4.815,-4.8444,-4.859,-4.9705,-5.0943,-5.1631,-5.2242,-5.2865,-5.3339,-5.3014,-5.2654,-5.2714,-5.2614,-5.2498,-5.2498,-5.2498,-5.2498,-5.2498,-5.2498,-5.2498,-5.2498,-5.2498,-5.2498,-5.2498,-5.2498,-5.2498,-5.2498,-5.2498,-5.2969,-5.4074,-5.4168,-5.4542,-5.5407,-5.5039,-5.4756,-5.4501,-5.3847,-5.3506,-5.3506,-5.3292,-5.3459,-5.3962,-5.443,-5.4903,-2.0878,-2.1088,-2.1023,-2.2094,-2.0839,0.0,-2.0602,-1.9112,-1.7523,-1.7523,-1.8417,-1.9254,-1.9463,-2.0383,-2.1287,-2.1862,-2.2114,-2.2578,0.0,0.0,0.0,0.0,0.0,0.0,0.0,0.0,0.0,0.0,0.0,0.0,0.0,0.0,-3.9305,-3.9305,-3.9305,-3.9305,-3.9305,-3.9305,-3.9305,-3.9305,-3.9733,-4.0083,-4.0257,-4.0787,0.0,0.0,0.0,0.0,0.0,-4.4066,-4.4812,-4.5697,-4.5583,-4.5776,-4.6112,-4.6024,-4.6054,-4.625,-4.6661,-4.7051,-4.7485,-4.8153,-4.8256,-4.8123,-4.8275,-4.8,-4.7687,-4.8183,-4.8529,-4.8855,-4.9276,-5.0204,-5.1144,-5.1475,-5.1831,-5.2164,-5.2352,-5.2052,-5.1829,-5.2089,-5.2162,-5.2209,-5.2452,-5.2498,-5.2498,-5.2498,-5.2498,-5.2498,-5.2498,-5.2498,-5.248,-5.2554,-5.2554,-5.2554,-5.2618,-5.2554,-5.2989,-5.4052,-5.3953,-5.4227,-5.4984,-5.4482,-5.4078,-5.3811,-5.3421,-5.3206,-5.3206,-5.3336,-5.3719,-5.4315,-5.4654,-5.5009,0.0,-1.9971,-2.0647,-2.1674,-2.0288,-1.895,-2.0205,-1.8918,0.0,-1.803,-1.8572,-1.9146,-1.9708,-2.0207,-2.0723,-2.138,-2.1574,0.0,0.0,0.0,0.0,0.0,0.0,0.0,0.0,0.0,0.0,0.0,0.0,0.0,0.0,0.0,-3.9305,-3.9305,-3.9305,-3.9305,-3.9305,-3.9305,-3.9305,-3.9305,-3.9821,-4.0257,-4.0702,-4.1227,0.0,0.0,0.0,0.0,0.0,-4.3314,-4.3912,-4.4373,-4.5262,-4.5807,-4.604,-4.588,-4.6234,-4.6803,-4.685,-4.7532,-4.8371,-4.8397,-4.8408,-4.8423,-4.8068,-4.8001,-4.8084,-4.8678,-4.8841,-4.9082,-5.0121,-5.0456,-5.0674,-5.1475,-5.1245,-5.1007,-5.1326,-5.1001,-5.0805,-5.15,-5.1601,-5.1786,-5.2387,-5.2498,-5.2498,-5.2498,-5.2498,-5.2498,-5.2498,-5.2498,-5.2508,-5.259,-5.259,-5.2654,-5.2806,-5.2698,-5.2672,-5.2897,-5.3553,-5.3671,-5.3108,-5.3749,-5.3829,-5.3225,-5.3206,-5.3206,-5.3206,-5.3563,-5.3925,-5.4315,-5.4685,-5.5038,-1.7855,0.0,-1.7055,-1.7312,-1.7247,-1.7285,0.0,0.0,0.0,0.0,0.0,0.0,0.0,0.0,-2.0501,-2.202,0.0,0.0,0.0,0.0,0.0,0.0,0.0,0.0,0.0,0.0,0.0,0.0,0.0,0.0,0.0,0.0,-3.9305,-3.9305,-3.9305,-3.9305,-3.9305,-3.9305,-3.9305,-3.9305,-4.017,-4.0616,-4.0702,-4.1578,0.0,0.0,0.0,0.0,-4.2725,-4.2319,-4.319,-4.4586,-4.4297,-4.4858,-4.588,-4.5807,-4.6234,-4.6882,-4.7451,-4.7961,-4.8439,-4.8469,-4.8305,-4.8084,-4.7985,-4.8001,-4.8084,-4.8678,-4.9082,-4.9583,-5.0268,-5.0668,-5.1018,-5.0851,-5.0582,-5.0359,-5.0588,-5.0373,-5.0366,-5.1398,-5.1601,-5.1786,-5.2387,-5.2498,-5.2498,-5.2498,-5.2498,-5.2498,-5.2498,-5.2554,-5.2563,-5.259,-5.2698,-5.2806,-5.2937,-5.285,-5.3034,-5.3699,-5.3423,-5.3431,-5.3913,-5.3616,-5.3347,-5.3206,-5.3206,-5.3206,-5.3206,-5.3851,-5.4193,-5.4315,-5.4952,-5.5345,-1.7149,-1.636,-1.5787,-1.5728,-1.5927,-1.6314,-1.7053,-1.7429,0.0,0.0,0.0,0.0,0.0,0.0,0.0,0.0,0.0,0.0,0.0,0.0,0.0,0.0,0.0,0.0,0.0,0.0,0.0,0.0,0.0,0.0,0.0,0.0,-3.9305,-3.9305,-3.9305,-3.9305,-3.9305,-3.9034,-3.8898,-3.8898,-3.9853,-4.028,-4.0365,-4.1532,0.0,0.0,0.0,0.0,-4.2304,-4.2073,-4.2856,-4.419,-4.4036,-4.4768,-4.5855,-4.6155,-4.6708,-4.7403,-4.8114,-4.8509,-4.8635,-4.8387,-4.8117,-4.8001,-4.8001,-4.8249,-4.8597,-4.9173,-4.969,-5.0216,-5.0807,-5.1057,-5.1057,-5.049,-5.0212,-5.0042,-4.9825,-4.9606,-4.9774,-5.0642,-5.0999,-5.1381,-5.2,-5.234,-5.2498,-5.2498,-5.2526,-5.2554,-5.2554,-5.2627,-5.2698,-5.2787,-5.285,-5.2955,-5.3103,-5.3017,-5.3156,-5.3595,-5.3298,-5.3305,-5.3744,-5.3384,-5.3206,-5.3206,-5.3206,-5.3272,-5.3422,-5.4035,-5.443,-5.4616,-5.5203,-5.5495,-1.6785,-1.6441,-1.626,-1.5752,-1.5702,-1.595,-1.6883,-1.7103,0.0,0.0,0.0,0.0,0.0,0.0,0.0,0.0,0.0,0.0,0.0,0.0,0.0,0.0,0.0,0.0,0.0,0.0,0.0,0.0,0.0,0.0,0.0,0.0,0.0,-3.9305,-3.921,-3.9169,-3.9169,-3.8667,-3.8369,-3.8274,-3.9214,-3.9634,-3.9745,-4.1116,-4.1787,0.0,0.0,0.0,-4.1573,-4.2029,-4.2695,-4.3491,-4.4128,-4.4905,-4.5882,-4.6523,-4.7324,-4.8114,-4.871,-4.8941,-4.8858,-4.8198,-4.8001,-4.8017,-4.8133,-4.868,-4.9358,-4.9931,-5.0364,-5.0788,-5.1394,-5.1343,-5.0978,-5.0261,-5.0055,-4.9809,-4.9181,-4.9001,-4.9168,-4.9774,-5.0331,-5.0911,-5.15,-5.2096,-5.2526,-5.2526,-5.2581,-5.2635,-5.2635,-5.2761,-5.285,-5.2999,-5.2999,-5.306,-5.3206,-5.3206,-5.3206,-5.3206,-5.3206,-5.3206,-5.3206,-5.3206,-5.3206,-5.3206,-5.3206,-5.3359,-5.3739,-5.4139,-5.4554,-5.5026,-5.5369,-5.5596,-1.6598,-1.7784,-1.8573,-1.6332,-1.6053,-1.6385,-1.6898,-1.7287,-1.7647,0.0,0.0,0.0,0.0,0.0,0.0,0.0,0.0,0.0,0.0,0.0,0.0,0.0,0.0,0.0,0.0,0.0,0.0,0.0,0.0,0.0,0.0,0.0,0.0,-3.9305,-3.8817,-3.8559,-3.8559,-3.8464,-3.8165,-3.7677,-3.8561,-3.8959,-3.8974,-3.9952,-4.0408,0.0,0.0,-4.1088,-4.0982,-4.1555,-4.2073,-4.2614,-4.3412,-4.4479,-4.5726,-4.6532,-4.7624,-4.8744,-4.8914,-4.8966,-4.8858,-4.8198,-4.8001,-4.8117,-4.8746,-4.9458,-5.0187,-5.0916,-5.09,-5.0788,-5.1394,-5.11,-5.0615,-5.0198,-4.9892,-4.9555,-4.908,-4.9001,-4.9168,-4.9774,-5.0331,-5.0911,-5.15,-5.2155,-5.2563,-5.2563,-5.2698,-5.2761,-5.2761,-5.2912,-5.2999,-5.2999,-5.3103,-5.3164,-5.3206,-5.3206,-5.3206,-5.3206,-5.3206,-5.3206,-5.3206,-5.3206,-5.3206,-5.3206,-5.3206,-5.3404,-5.3887,-5.4198,-5.4663,-5.5167,-5.5512,-5.5745,-1.6279,-1.7037,-1.789,-1.7593,-1.8422,-1.9483,-2.017,-2.0487,0.0,0.0,0.0,0.0,0.0,0.0,0.0,0.0,0.0,0.0,0.0,0.0,0.0,0.0,0.0,0.0,0.0,0.0,0.0,0.0,0.0,0.0,0.0,0.0,0.0,0.0,-3.8084,-3.7786,-3.7446,-3.7699,-3.774,-3.7528,-3.8088,-3.8496,-3.8819,-3.9693,-4.0292,-4.0655,0.0,-4.1064,-4.1313,-4.1518,-4.1922,-4.2548,-4.3334,-4.4234,-4.5385,-4.6862,-4.8256,-4.9362,-4.9109,-4.903,-4.8923,-4.866,-4.8597,-4.8746,-4.9475,-5.022,-5.085,-5.1181,-5.1279,-5.1368,-5.1712,-5.1237,-5.0555,-5.0336,-4.9893,-4.9502,-4.9108,-4.9001,-4.9063,-4.9333,-5.0124,-5.0805,-5.1087,-5.1897,-5.2536,-5.259,-5.2698,-5.2806,-5.2893,-5.3017,-5.3103,-5.3103,-5.3164,-5.3206,-5.3206,-5.3206,-5.3206,-5.3206,-5.3206,-5.3206,-5.3206,-5.3206,-5.3206,-5.3206,-5.3314,-5.3643,-5.4146,-5.444,-5.4922,-5.5561,-5.5726,-5.5847,-1.5945,-1.641,-1.7365,-1.8682,-1.9718,-2.0914,-2.281,-2.2904,0.0,0.0,0.0,0.0,0.0,0.0,0.0,0.0,0.0,0.0,0.0,0.0,0.0,0.0,0.0,0.0,0.0,0.0,0.0,0.0,0.0,0.0,0.0,0.0,0.0,0.0,-3.7528,-3.7229,-3.6784,-3.7126,-3.7291,-3.7274,-3.7599,-3.8164,-3.8771,-3.9571,-4.0249,-4.0873,-4.0885,-4.1136,-4.1583,-4.1576,-4.1868,-4.2482,-4.319,-4.4143,-4.529,-4.7193,-4.8634,-4.9485,-4.8916,-4.8771,-4.8904,-4.9074,-4.911,-4.9276,-5.0187,-5.085,-5.1313,-5.1479,-5.1729,-5.1891,-5.1888,-5.1191,-5.0521,-5.0308,-4.9841,-4.9413,-4.9075,-4.9001,-4.9001,-4.9001,-4.9896,-5.0697,-5.0697,-5.175,-5.2599,-5.2654,-5.2806,-5.2912,-5.3042,-5.3164,-5.3206,-5.3206,-5.3206,-5.3206,-5.3206,-5.3206,-5.3206,-5.3206,-5.3206,-5.3206,-5.3206,-5.3206,-5.3206,-5.329,-5.3418,-5.3814,-5.4428,-5.4572,-5.505,-5.5827,-5.5827,-5.5885,-1.5748,-1.7267,-1.8847,-1.8951,-1.7579,0.0,-2.2353,-2.1984,0.0,-2.4117,0.0,0.0,0.0,0.0,0.0,0.0,0.0,0.0,0.0,0.0,0.0,0.0,0.0,0.0,0.0,0.0,0.0,0.0,0.0,0.0,0.0,0.0,0.0,0.0,0.0,-3.7411,-3.7221,-3.7289,-3.704,-3.6449,-3.7247,-3.7933,-3.8625,-3.9107,-3.9596,-4.0205,-4.0829,-4.112,-4.1207,-4.1831,-4.1897,-4.1854,-4.2739,-4.4149,-4.5973,-4.7381,-4.8167,-4.8493,-4.8071,-4.8237,-4.8617,-4.8993,-4.911,-4.9375,-5.0767,-5.1231,-5.1413,-5.2108,-5.2197,-5.1938,-5.1371,-5.0852,-5.0275,-4.9758,-4.9329,-4.9007,-4.9018,-4.9001,-4.9001,-4.9001,-4.9896,-5.0697,-5.0697,-5.1861,-5.2761,-5.2761,-5.3017,-5.3164,-5.3164,-5.3206,-5.3206,-5.3206,-5.3206,-5.3206,-5.3206,-5.3206,-5.3206,-5.3206,-5.3206,-5.3206,-5.3206,-5.3206,-5.329,-5.3459,-5.3499,-5.3851,-5.4484,-5.4503,-5.4886,-5.5628,-5.5628,-5.575,-1.5748,-1.7388,-1.8999,-1.9105,-1.8449,0.0,0.0,-2.4588,-2.4683,-2.6131,-2.6852,0.0,0.0,0.0,0.0,0.0,0.0,0.0,0.0,0.0,0.0,0.0,0.0,0.0,0.0,0.0,0.0,0.0,0.0,0.0,0.0,0.0,0.0,0.0,0.0,-3.7003,-3.744,-3.7498,-3.7428,-3.733,-3.7962,-3.8539,-3.9167,-3.9613,-4.0104,-4.0728,-4.0989,-4.1337,-4.1744,-4.199,-4.1995,-4.198,-4.2754,-4.418,-4.5928,-4.6499,-4.7407,-4.8349,-4.8062,-4.8448,-4.9276,-4.9653,-5.0088,-5.0651,-5.1661,-5.1959,-5.2026,-5.2307,-5.22,-5.1838,-5.1469,-5.0923,-5.0259,-4.9838,-4.9354,-4.9001,-4.9001,-4.9001,-4.9001,-4.9001,-4.9896,-5.0697,-5.0697,-5.1795,-5.2698,-5.2806,-5.2955,-5.3103,-5.3206,-5.3206,-5.3206,-5.3206,-5.3206,-5.3206,-5.3206,-5.3206,-5.3206,-5.3206,-5.3206,-5.3206,-5.3206,-5.3314,-5.3418,-5.3499,-5.3756,-5.4071,-5.4503,-5.4616,-5.5007,-5.5607,-5.5607,-5.575,-1.5545,-1.6556,-1.7787,-1.8657,0.0,0.0,-2.4575,-2.5683,-2.6232,-2.808,-2.8303,0.0,0.0,0.0,0.0,0.0,0.0,0.0,0.0,0.0,0.0,0.0,0.0,0.0,0.0,0.0,0.0,0.0,0.0,0.0,0.0,0.0,0.0,0.0,0.0,-3.7164,-3.7538,-3.7769,-3.7947,-3.8005,-3.8531,-3.9032,-3.9384,-3.9671,-4.0292,-4.1091,-4.1091,-4.1482,-4.2092,-4.2092,-4.2092,-4.2175,-4.2754,-4.3807,-4.5001,-4.5403,-4.6441,-4.762,-4.7571,-4.8225,-4.9168,-4.9705,-5.0353,-5.1082,-5.181,-5.2191,-5.2373,-5.2373,-5.2124,-5.1697,-5.1378,-5.0844,-5.0174,-4.9678,-4.9249,-4.9001,-4.9001,-4.9001,-4.9001,-4.9001,-4.9797,-5.0497,-5.0697,-5.1647,-5.2499,-5.2761,-5.2955,-5.3103,-5.3206,-5.3206,-5.3206,-5.3206,-5.3206,-5.3206,-5.3206,-5.3206,-5.3206,-5.3206,-5.3206,-5.3206,-5.3272,-5.3418,-5.3561,-5.3678,-5.3981,-5.4231,-5.4476,-5.4685,-5.5026,-5.5477,-5.5544,-5.5769,-1.5071,-1.4817,-1.5142,0.0,0.0,0.0,-2.4297,-2.453,-2.5143,-2.9905,0.0,0.0,0.0,0.0,0.0,0.0,0.0,0.0,0.0,0.0,0.0,0.0,0.0,0.0,0.0,0.0,0.0,0.0,0.0,0.0,0.0,0.0,0.0,0.0,0.0,0.0,-3.7577,-3.8175,-3.8394,-3.8231,-3.8884,-3.9204,-3.9204,-3.9218,-3.99,-4.1091,-4.1091,-4.1468,-4.2092,-4.2092,-4.2092,-4.2175,-4.2769,-4.2981,-4.314,-4.4358,-4.5332,-4.6072,-4.6668,-4.7386,-4.8133,-4.8862,-4.9607,-5.0353,-5.1065,-5.1777,-5.2373,-5.2373,-5.2124,-5.1648,-5.1093,-5.0466,-4.9932,-4.9187,-4.9001,-4.9001,-4.9001,-4.9001,-4.9001,-4.9001,-4.9513,-5.0085,-5.0589,-5.1414,-5.2155,-5.2717,-5.3017,-5.3206,-5.3206,-5.3206,-5.3206,-5.3206,-5.3206,-5.3206,-5.3206,-5.3206,-5.3206,-5.3206,-5.3206,-5.3272,-5.3499,-5.3499,-5.3678,-5.4091,-5.4091,-5.4198,-5.4409,-5.4692,-5.4933,-5.5218,-5.5477,-5.5789,-1.574,-1.7763,0.0,0.0,0.0,0.0,0.0,-2.5899,0.0,0.0,0.0,0.0,0.0,0.0,0.0,0.0,0.0,0.0,0.0,0.0,0.0,0.0,0.0,0.0,0.0,0.0,0.0,0.0,0.0,0.0,0.0,0.0,0.0,0.0,0.0,0.0,-3.8574,-3.8896,-3.9009,-3.9111,-3.9165,-3.9204,-3.9218,-3.9639,-4.0292,-4.1076,-4.0597,-4.1033,-4.2092,-4.2092,-4.2092,-4.2092,-4.2325,-4.2622,-4.3061,-4.3912,-4.4962,-4.6072,-4.6668,-4.7713,-4.8812,-4.9028,-4.9607,-5.0353,-5.1065,-5.1429,-5.1711,-5.2224,-5.1879,-5.1309,-5.1008,-5.0396,-4.9684,-4.9219,-4.9063,-4.9001,-4.9001,-4.9001,-4.9001,-4.9001,-4.9513,-4.993,-5.0085,-5.0858,-5.1619,-5.2155,-5.2472,-5.2761,-5.3164,-5.3206,-5.3206,-5.3206,-5.3206,-5.3206,-5.3206,-5.3206,-5.3206,-5.3206,-5.3314,-5.3418,-5.3499,-5.3658,-5.3832,-5.4091,-5.4252,-5.4321,-5.4409,-5.4692,-5.4933,-5.5218,-5.5528,-5.5806,-1.6098,0.0,0.0,0.0,0.0,0.0,0.0,0.0,0.0,0.0,0.0,0.0,0.0,0.0,0.0,0.0,0.0,0.0,0.0,0.0,0.0,0.0,0.0,0.0,0.0,0.0,0.0,0.0,0.0,0.0,0.0,0.0,0.0,0.0,0.0,0.0,-3.8837,-3.9182,-3.9341,-3.9391,-3.9469,-3.9567,-3.9552,-3.9407,-3.9712,-4.035,-4.0452,-4.096,-4.1715,-4.199,-4.2092,-4.2092,-4.2092,-4.231,-4.2769,-4.3615,-4.451,-4.5536,-4.6582,-4.758,-4.8447,-4.8597,-4.9177,-4.9856,-5.0286,-5.0618,-5.0999,-5.1744,-5.1495,-5.1041,-5.1195,-5.0604,-4.9829,-4.9297,-4.9107,-4.9063,-4.9001,-4.9001,-4.9001,-4.9001,-4.9273,-4.9615,-4.989,-5.0366,-5.0999,-5.1848,-5.2408,-5.2806,-5.3164,-5.3206,-5.3206,-5.3206,-5.3206,-5.3206,-5.3206,-5.3206,-5.3248,-5.3314,-5.3418,-5.3561,-5.3717,-5.387,-5.4018,-5.4217,-5.4321,-5.4458,-5.4552,-5.4836,-5.5115,-5.5416,-5.5712,-5.5962,-1.6474,0.0,0.0,0.0,0.0,0.0,0.0,0.0,0.0,0.0,0.0,0.0,0.0,0.0,0.0,0.0,0.0,0.0,0.0,0.0,0.0,0.0,0.0,0.0,0.0,0.0,0.0,0.0,0.0,0.0,0.0,0.0,0.0,0.0,0.0,0.0,-3.8495,-3.9145,-3.9369,0.0,-3.9813,-4.0104,-4.006,-3.8841,-3.8623,-3.9276,-4.0612,-4.1149,-4.1149,-4.1816,-4.2092,-4.2092,-4.2092,-4.2092,-4.2242,-4.3394,-4.4051,-4.4615,-4.6285,-4.7014,-4.7337,-4.7787,-4.8382,-4.8944,-4.901,-4.9507,-5.0253,-5.0982,-5.0975,-5.0877,-5.1564,-5.1037,-5.0147,-4.9484,-4.928,-4.9168,-4.9001,-4.9001,-4.9001,-4.9001,-4.9001,-4.9168,-4.9715,-4.9896,-5.048,-5.1848,-5.2698,-5.3206,-5.3206,-5.3206,-5.3206,-5.3206,-5.3206,-5.3206,-5.3206,-5.3206,-5.329,-5.3499,-5.3539,-5.3717,-5.4091,-5.4091,-5.4198,-5.4409,-5.4424,-5.4552,-5.4806,-5.5088,-5.5397,-5.5692,-5.5982,-5.6181,0.0,-2.0943,0.0,0.0,0.0,0.0,0.0,0.0,0.0,0.0,0.0,0.0,0.0,0.0,0.0,0.0,0.0,0.0,0.0,0.0,0.0,0.0,0.0,0.0,0.0,0.0,0.0,0.0,0.0,0.0,0.0,0.0,0.0,0.0,0.0,-3.888,-3.8746,-3.9211,-3.9369,0.0,-3.9813,-4.0104,-4.0075,-3.9334,-3.9059,-3.9305,-4.1105,-4.1584,-4.1149,-4.1816,-4.2092,-4.2092,-4.2092,-4.2092,-4.2175,-4.2915,-4.3412,-4.3975,-4.5608,-4.6143,-4.6198,-4.705,-4.7368,-4.7613,-4.8253,-4.8839,-4.9508,-5.0237,-5.0575,-5.076,-5.0911,-5.073,-5.0441,-5.013,-4.9637,-4.9168,-4.9001,-4.9001,-4.9001,-4.9001,-4.9001,-4.9063,-4.9168,-4.9715,-5.057,-5.1946,-5.2761,-5.3206,-5.3206,-5.3206,-5.3206,-5.3206,-5.3206,-5.3206,-5.3206,-5.3206,-5.329,-5.3499,-5.3658,-5.3832,-5.4091,-5.4091,-5.4198,-5.4409,-5.4597,-5.4735,-5.4806,-5.5327,-5.5633,-5.5711,-5.6082,-5.6267,0.0,0.0,0.0,0.0,0.0,0.0,0.0,0.0,0.0,0.0,0.0,0.0,0.0,0.0,0.0,0.0,0.0,0.0,0.0,0.0,0.0,0.0,0.0,0.0,0.0,0.0,0.0,0.0,0.0,0.0,0.0,0.0,0.0,-3.9207,-3.9051,-3.8935,-3.8929,-3.9268,-3.9369,-3.9218,-4.0133,-4.0583,-4.0554,-3.9915,-3.9625,-3.9712,-4.1033,-4.1424,-4.1149,-4.1816,-4.2092,-4.2092,-4.2092,-4.2092,-4.2175,-4.2769,-4.3126,-4.3476,-4.5005,-4.5478,-4.5551,-4.641,-4.6896,-4.7183,-4.7557,-4.8113,-4.873,-4.9475,-4.9809,-5.0076,-5.056,-5.0548,-5.0368,-5.0317,-4.9818,-4.929,-4.9107,-4.9063,-4.9001,-4.9001,-4.9001,-4.9001,-4.9001,-4.9656,-5.0497,-5.153,-5.2343,-5.2912,-5.3164,-5.3206,-5.3206,-5.3206,-5.3206,-5.3206,-5.3206,-5.329,-5.3418,-5.3619,-5.3832,-5.4018,-5.4252,-5.4233,-5.4371,-5.4584,-5.5132,-5.537,-5.523,-5.5955,-5.621,-5.5986,-5.6193,-5.6329,0.0,0.0,0.0,0.0,0.0,0.0,0.0,0.0,0.0,0.0,0.0,0.0,0.0,0.0,0.0,0.0,0.0,0.0,0.0,0.0,0.0,0.0,0.0,0.0,0.0,0.0,0.0,0.0,0.0,0.0,-3.7953,-3.8458,-3.9065,-3.9686,-3.9339,-3.9186,-3.9233,-3.9311,-3.9355,-3.9127,-4.0365,-4.1047,-4.125,-4.0699,-4.0379,-4.0307,-4.0974,-4.1265,-4.1308,-4.186,-4.2092,-4.2092,-4.2092,-4.2092,-4.2175,-4.2688,-4.2915,-4.314,-4.4495,-4.4962,-4.5036,-4.6001,-4.6636,-4.6981,-4.7033,-4.7488,-4.8133,-4.8746,-4.9011,-4.9277,-5.0076,-5.0234,-5.0084,-5.0164,-4.9854,-4.9471,-4.9229,-4.9107,-4.9001,-4.9001,-4.9001,-4.9063,-4.9107,-4.9815,-5.0497,-5.1155,-5.191,-5.2608,-5.3121,-5.3206,-5.3206,-5.3206,-5.3206,-5.3206,-5.3206,-5.3378,-5.3579,-5.3813,-5.3981,-5.4198,-5.439,-5.4409,-5.4627,-5.5074,-5.5664,-5.5887,-5.5692,-5.6501,-5.6688,-5.6289,-5.6319,-5.6388,0.0,0.0,0.0,0.0,0.0,0.0,0.0,0.0,0.0,0.0,0.0,0.0,0.0,0.0,0.0,0.0,0.0,0.0,0.0,0.0,0.0,0.0,0.0,0.0,0.0,0.0,0.0,0.0,0.0,0.0,-3.9448,-3.9285,-3.9414,-3.97,-3.9618,-3.9595,-3.962,-3.9332,-3.9073,-3.8837,-3.9807,-4.0844,-4.1961,-4.1874,-4.1512,-4.1004,-4.1671,-4.1961,-4.1976,-4.2063,-4.2092,-4.2092,-4.2092,-4.2092,-4.2092,-4.2175,-4.2474,-4.2915,-4.3959,-4.422,-4.4419,-4.5857,-4.6356,-4.6496,-4.6981,-4.7488,-4.8017,-4.8117,-4.8614,-4.9045,-4.8773,-4.9379,-5.0028,-4.964,-4.9599,-4.959,-4.929,-4.9107,-4.9001,-4.9001,-4.9001,-4.9168,-4.9656,-5.0085,-5.0661,-5.1732,-5.2203,-5.2608,-5.3121,-5.3206,-5.3206,-5.3206,-5.3206,-5.3206,-5.3206,-5.3378,-5.3579,-5.3813,-5.3981,-5.4198,-5.439,-5.4409,-5.5001,-5.6248,-5.5708,-5.5497,-5.5692,-5.6165,-5.6353,-5.6289,-5.6417,-5.6483,-2.0962,0.0,0.0,0.0,0.0,0.0,0.0,0.0,0.0,0.0,0.0,0.0,0.0,0.0,0.0,0.0,0.0,0.0,0.0,0.0,0.0,0.0,0.0,0.0,0.0,0.0,0.0,0.0,0.0,-3.8364,-3.897,-3.9203,-3.9407,-3.97,-3.9431,-3.936,-3.9508,-3.921,-3.9363,-3.9945,-4.0299,-4.1097,-4.2092,-4.2092,-4.1932,-4.1671,-4.1961,-4.2092,-4.2092,-4.2092,-4.2092,-4.2092,-4.2092,-4.2092,-4.2092,-4.2092,-4.231,-4.2769,-4.3442,-4.3864,-4.4205,-4.5405,-4.6001,-4.6426,-4.6913,-4.7488,-4.8001,-4.8001,-4.8233,-4.8464,-4.8439,-4.8652,-4.8826,-4.8771,-4.8956,-4.9032,-4.8796,-4.894,-4.9124,-4.9001,-4.9001,-4.9046,-4.9333,-4.993,-5.0552,-5.1396,-5.2024,-5.2608,-5.3121,-5.3206,-5.3206,-5.3206,-5.3206,-5.3248,-5.3355,-5.3539,-5.3756,-5.3944,-5.4181,-5.4321,-5.4409,-5.4409,-5.4812,-5.5747,-5.5954,-5.6246,-5.6695,-5.6919,-5.6816,-5.6417,-5.6474,-5.6503,0.0,0.0,0.0,0.0,0.0,0.0,0.0,0.0,0.0,0.0,0.0,0.0,0.0,0.0,0.0,0.0,0.0,0.0,0.0,0.0,0.0,0.0,0.0,0.0,0.0,0.0,0.0,0.0,0.0,-3.7506,-3.8166,-3.8782,-3.9244,-3.97,-3.9394,-3.9319,-3.9589,-3.9367,-3.9722,-4.0713,-4.0713,-4.1126,-4.1995,-4.1995,-4.2009,-4.2092,-4.2092,-4.2092,-4.2092,-4.2092,-4.2092,-4.2092,-4.2092,-4.2092,-4.2092,-4.2242,-4.2474,-4.293,-4.3329,-4.3738,-4.4358,-4.5348,-4.5913,-4.6426,-4.7118,-4.7638,-4.8001,-4.8001,-4.8001,-4.8016,-4.8186,-4.8102,-4.8027,-4.8124,-4.8326,-4.8528,-4.8616,-4.8916,-4.9107,-4.9001,-4.9001,-4.9001,-4.9001,-4.9698,-5.048,-5.1034,-5.1861,-5.2608,-5.3121,-5.3206,-5.323,-5.323,-5.3248,-5.3355,-5.3521,-5.3717,-5.3907,-5.4091,-5.4287,-5.4409,-5.4409,-5.4491,-5.4841,-5.553,-5.6107,-5.6657,-5.7165,-5.7259,-5.7031,-5.6503,-5.6503,-5.6503,0.0,0.0,0.0,0.0,0.0,0.0,0.0,0.0,0.0,0.0,0.0,0.0,0.0,0.0,0.0,0.0,0.0,0.0,0.0,0.0,0.0,0.0,0.0,0.0,0.0,0.0,0.0,0.0,0.0,-3.6823,-3.7391,-3.8088,-3.8823,-3.9686,-3.9672,-3.9719,-3.9954,-3.9745,-3.9954,-4.041,-4.041,-4.0918,-4.1702,-4.1702,-4.1883,-4.2092,-4.2092,-4.2092,-4.2092,-4.2092,-4.2092,-4.2092,-4.2092,-4.2092,-4.2175,-4.2541,-4.293,-4.3329,-4.3817,-4.4205,-4.4723,-4.5857,-4.6285,-4.6512,-4.7638,-4.8001,-4.8001,-4.8001,-4.8001,-4.79,-4.7471,-4.7914,-4.8375,-4.796,-4.809,-4.8455,-4.9008,-4.909,-4.9001,-4.9001,-4.9001,-4.9001,-4.9001,-4.9698,-5.048,-5.1034,-5.1861,-5.2608,-5.3121,-5.3254,-5.33,-5.33,-5.34,-5.3521,-5.3602,-5.3795,-5.3944,-5.4091,-5.4287,-5.4409,-5.4409,-5.4661,-5.5332,-5.6501,-5.6078,-5.5978,-5.6272,-5.6456,-5.6541,-5.6503,-5.6503,-5.6503,0.0,0.0,0.0,0.0,0.0,0.0,0.0,0.0,0.0,0.0,0.0,0.0,0.0,0.0,0.0,0.0,0.0,0.0,0.0,0.0,0.0,0.0,0.0,0.0,0.0,0.0,0.0,0.0,0.0,0.0,-3.7352,-3.7947,-3.8607,-3.9394,-3.8952,-3.9101,-3.9996,-3.9948,-4.0166,-4.0759,-4.0759,-4.1139,-4.1688,-4.1688,-4.1883,-4.2092,-4.2092,-4.2092,-4.2092,-4.2092,-4.2092,-4.2092,-4.2092,-4.2092,-4.2175,-4.2541,-4.293,-4.3329,-4.3832,-4.448,-4.5274,-4.6072,-4.6566,-4.6981,-4.7787,-4.8001,-4.8001,-4.8001,-4.8001,-4.7934,-4.7782,-4.7725,-4.7742,-4.7781,-4.7971,-4.8371,-4.9059,-4.9168,-4.9107,-4.9001,-4.9001,-4.9107,-4.9496,-5.0276,-5.0999,-5.1615,-5.2389,-5.2999,-5.3254,-5.3277,-5.3318,-5.34,-5.3502,-5.3641,-5.3795,-5.3963,-5.4108,-5.4287,-5.4356,-5.4472,-5.4661,-5.4765,-5.5195,-5.6015,-5.5883,-5.6222,-5.7091,-5.6709,-5.6503,-5.6503,-5.6503,-5.6503,-1.9194,0.0,0.0,0.0,0.0,0.0,0.0,0.0,0.0,0.0,0.0,0.0,0.0,0.0,0.0,0.0,0.0,0.0,0.0,0.0,0.0,0.0,0.0,0.0,0.0,0.0,0.0,0.0,0.0,0.0,-3.6428,-3.7502,-3.8431,-3.9176,-3.8824,-3.906,-3.9996,-4.017,-4.043,-4.093,-4.093,-4.11,-4.1437,-4.1535,-4.1717,-4.1995,-4.2092,-4.2092,-4.2092,-4.2092,-4.2092,-4.2092,-4.2092,-4.2175,-4.2325,-4.2769,-4.317,-4.3581,-4.405,-4.4632,-4.52,-4.5769,-4.6356,-4.6913,-4.7488,-4.7853,-4.8001,-4.8001,-4.8001,-4.8001,-4.8001,-4.7749,-4.7538,-4.7597,-4.7933,-4.8325,-4.8744,-4.9059,-4.9168,-4.9046,-4.9001,-4.9314,-5.0176,-5.0764,-5.1398,-5.222,-5.2844,-5.3254,-5.33,-5.3359,-5.3499,-5.3579,-5.3678,-5.3813,-5.4018,-5.411,-5.4217,-5.439,-5.4409,-5.4505,-5.4673,-5.4857,-5.5205,-5.5653,-5.5852,-5.6382,-5.7225,-5.6738,-5.6503,-5.6503,-5.6503,-5.6503,0.0,0.0,0.0,0.0,0.0,0.0,0.0,0.0,0.0,0.0,0.0,0.0,0.0,0.0,0.0,0.0,0.0,0.0,0.0,0.0,0.0,0.0,0.0,0.0,0.0,0.0,0.0,0.0,0.0,-3.4161,-3.4843,-3.695,-3.8343,-3.8854,-3.9326,-3.9706,-3.9996,-4.0443,-4.0702,-4.0702,-4.0702,-4.0773,-4.1001,-4.1297,-4.1549,-4.1702,-4.1995,-4.2092,-4.2092,-4.2092,-4.2092,-4.2092,-4.2092,-4.2325,-4.2769,-4.317,-4.3581,-4.4065,-4.4435,-4.4572,-4.4723,-4.5184,-4.5841,-4.6426,-4.6913,-4.7488,-4.8001,-4.8001,-4.8001,-4.8001,-4.8001,-4.8001,-4.7884,-4.7437,-4.7931,-4.8409,-4.8175,-4.8642,-4.9168,-4.9229,-4.9124,-4.9467,-5.0907,-5.1115,-5.1558,-5.2916,-5.3225,-5.33,-5.3318,-5.3518,-5.3734,-5.3813,-5.3944,-5.4074,-5.4273,-5.4308,-5.4324,-5.4409,-5.439,-5.4458,-5.4519,-5.5023,-5.5404,-5.5614,-5.6063,-5.6378,-5.6503,-5.6503,-5.6503,-5.6503,-5.6503,-5.6503,-1.7912,0.0,0.0,0.0,0.0,0.0,0.0,0.0,0.0,0.0,0.0,0.0,0.0,0.0,0.0,0.0,0.0,0.0,0.0,0.0,0.0,0.0,0.0,0.0,0.0,0.0,0.0,0.0,-3.3575,-3.5111,-3.6289,-3.7989,-3.8661,-3.8025,-3.9223,-3.9908,-3.9996,-4.0443,-4.0702,-4.0702,-4.0702,-4.0873,-4.1297,-4.1396,-4.1647,-4.1995,-4.2092,-4.2092,-4.2092,-4.2092,-4.2092,-4.2092,-4.2242,-4.2459,-4.2769,-4.3329,-4.3723,-4.4065,-4.4281,-4.4708,-4.52,-4.5184,-4.5969,-4.6913,-4.705,-4.7488,-4.8001,-4.8001,-4.8001,-4.8001,-4.8001,-4.8001,-4.7951,-4.7865,-4.8142,-4.8409,-4.796,-4.8521,-4.9046,-4.9168,-4.9124,-4.9572,-5.1359,-5.1369,-5.1729,-5.3505,-5.35,-5.3359,-5.344,-5.3598,-5.3773,-5.3907,-5.4,-5.411,-5.4308,-5.4359,-5.4375,-5.4409,-5.4458,-5.4654,-5.5057,-5.5265,-5.5596,-5.611,-5.6236,-5.6378,-5.6503,-5.6503,-5.6503,-5.6503,-5.6503,-5.6503,-1.803,-1.7569,-1.7065,0.0,0.0,0.0,-1.9705,-2.1033,0.0,0.0,0.0,0.0,0.0,0.0,0.0,0.0,0.0,0.0,0.0,0.0,0.0,0.0,0.0,0.0,0.0,0.0,0.0,-3.1952,-3.3564,-3.5228,-3.6975,-3.8349,-3.8741,-3.796,-3.939,-4.0131,-4.0053,-4.0646,-4.0958,-4.0845,-4.0773,-4.0873,-4.1128,-4.1213,-4.1381,-4.1633,-4.1814,-4.1897,-4.1897,-4.2078,-4.2175,-4.2242,-4.231,-4.2637,-4.301,-4.3472,-4.3801,-4.4127,-4.4358,-4.4708,-4.5067,-4.4918,-4.5769,-4.6775,-4.6775,-4.7337,-4.8001,-4.8001,-4.8001,-4.8001,-4.8001,-4.8001,-4.8001,-4.8001,-4.8115,-4.8219,-4.7882,-4.8146,-4.8528,-4.883,-4.9129,-4.9983,-5.2043,-5.1917,-5.2189,-5.4292,-5.3885,-5.344,-5.3558,-5.3676,-5.3831,-5.4,-5.4073,-5.4181,-5.4324,-5.4375,-5.4409,-5.4409,-5.4472,-5.4673,-5.5061,-5.5331,-5.5673,-5.6082,-5.6267,-5.6417,-5.6503,-5.6503,-5.6503,-5.6503,-5.6503,-5.6316,-1.7954,-1.7221,-1.6582,0.0,0.0,0.0,-2.0391,-2.1223,-2.2404,0.0,0.0,0.0,0.0,0.0,0.0,0.0,0.0,0.0,0.0,0.0,0.0,0.0,0.0,0.0,0.0,-3.111,-3.1413,-3.1552,-3.3217,-3.5063,-3.6845,-3.8069,-3.8564,-3.8216,-3.9491,-4.015,-4.0054,-4.0942,-4.1198,-4.1001,-4.0859,-4.0773,-4.0773,-4.093,-4.1085,-4.1085,-4.1521,-4.1688,-4.1702,-4.1995,-4.216,-4.2392,-4.2392,-4.2784,-4.3329,-4.3472,-4.3864,-4.4281,-4.4419,-4.4496,-4.4572,-4.4572,-4.5363,-4.6285,-4.6356,-4.715,-4.8001,-4.8001,-4.8001,-4.8001,-4.8001,-4.8001,-4.8001,-4.8001,-4.8001,-4.7963,-4.772,-4.7619,-4.7747,-4.836,-4.9223,-5.0506,-5.274,-5.2495,-5.2773,-5.4957,-5.4289,-5.3539,-5.3656,-5.3754,-5.387,-5.4091,-5.4127,-5.4217,-5.439,-5.4409,-5.439,-5.4424,-5.4505,-5.4667,-5.4871,-5.537,-5.5692,-5.5859,-5.6275,-5.6503,-5.6503,-5.6503,-5.6503,-5.6503,-5.6503,-5.609,0.0,0.0,0.0,0.0,0.0,0.0,-1.6388,-1.6376,-1.7069,0.0,0.0,0.0,0.0,0.0,0.0,0.0,0.0,0.0,0.0,0.0,0.0,0.0,0.0,0.0,0.0,-3.0976,-3.1561,-3.2767,-3.4487,-3.5717,-3.6081,-3.7137,-3.7547,-3.7351,-3.8751,-3.9678,-4.0003,-4.0546,-4.0859,-4.1001,-4.1213,-4.1114,-4.0916,-4.1213,-4.1367,-4.1604,-4.1688,-4.1688,-4.1688,-4.1785,-4.2049,-4.2392,-4.2392,-4.2703,-4.3076,-4.3061,-4.3488,-4.3972,-4.3472,-4.3864,-4.4572,-4.4541,-4.5332,-4.6356,-4.6844,-4.7421,-4.8001,-4.8001,-4.8001,-4.8001,-4.8001,-4.8001,-4.8001,-4.8001,-4.8001,-4.783,-4.708,-4.7265,-4.7911,-4.8938,-4.917,-4.9986,-5.2636,-5.2489,-5.2575,-5.4342,-5.386,-5.34,-5.3539,-5.3697,-5.387,-5.4091,-5.42,-5.4289,-5.439,-5.4409,-5.4491,-5.4629,-5.4761,-5.5019,-5.5427,-5.5692,-5.5965,-5.6201,-5.6398,-5.6503,-5.6503,-5.6503,-5.6503,-5.6503,-5.6503,-5.6422,0.0,0.0,0.0,-1.6859,0.0,0.0,0.0,-1.6846,-1.734,0.0,0.0,0.0,0.0,0.0,0.0,0.0,0.0,0.0,0.0,0.0,0.0,0.0,0.0,0.0,0.0,-3.1298,-3.2003,-3.3247,-3.4931,-3.5904,-3.5742,-3.704,-3.7695,-3.748,-3.8939,-3.9917,-4.0224,-4.0873,-4.1269,-4.1339,-4.1381,-4.1297,-4.1198,-4.1311,-4.1381,-4.1339,-4.1451,-4.1549,-4.1549,-4.1619,-4.1951,-4.2392,-4.2213,-4.2377,-4.2688,-4.2915,-4.3235,-4.3488,-4.3235,-4.3472,-4.402,-4.4526,-4.5258,-4.6143,-4.6913,-4.7488,-4.8001,-4.8001,-4.8001,-4.8001,-4.8001,-4.8001,-4.8001,-4.8001,-4.8001,-4.778,-4.6911,-4.7224,-4.7912,-4.8655,-4.9293,-5.0539,-5.3243,-5.3056,-5.2971,-5.4338,-5.3893,-5.3459,-5.3598,-5.3697,-5.3832,-5.4,-5.42,-5.4324,-5.439,-5.4424,-5.4505,-5.4597,-5.4803,-5.5102,-5.5431,-5.575,-5.6063,-5.6388,-5.6465,-5.6503,-5.6503,-5.6503,-5.6503,-5.6503,-5.6503,-5.6032,0.0,0.0,0.0,0.0,0.0,-1.6132,0.0,0.0,0.0,0.0,0.0,0.0,0.0,0.0,0.0,0.0,0.0,0.0,0.0,0.0,0.0,0.0,0.0,0.0,0.0,-3.0707,-3.1675,-3.3259,-3.4073,-3.4719,-3.5327,-3.6819,-3.7571,-3.7473,-3.9123,-4.0068,-4.0342,-4.1122,-4.1604,-4.1688,-4.1564,-4.148,-4.1396,-4.148,-4.1367,-4.117,-4.1297,-4.1396,-4.148,-4.1633,-4.1883,-4.2228,-4.2049,-4.2131,-4.2392,-4.2592,-4.2754,-4.2915,-4.301,-4.325,-4.363,-4.4434,-4.5316,-4.6198,-4.6896,-4.7555,-4.8001,-4.8001,-4.8001,-4.8001,-4.8001,-4.8001,-4.8001,-4.8001,-4.8001,-4.783,-4.708,-4.7368,-4.8089,-4.8941,-4.9827,-5.1129,-5.3536,-5.3472,-5.339,-5.4285,-5.3883,-5.3499,-5.3637,-5.3736,-5.3832,-5.3963,-5.4181,-5.4359,-5.4409,-5.4472,-5.4552,-5.4616,-5.4933,-5.5217,-5.5408,-5.5788,-5.6135,-5.6483,-5.6503,-5.6503,-5.6503,-5.6503,-5.6405,-5.6249,-5.6425,-5.567,0.0,0.0,0.0,0.0,-1.5984,0.0,0.0,0.0,0.0,0.0,0.0,0.0,0.0,0.0,0.0,0.0,0.0,0.0,0.0,0.0,0.0,0.0,0.0,0.0,0.0,0.0,-2.885,-3.2812,-3.0544,-3.0604,-3.4462,-3.543,-3.6048,-3.6492,-3.7839,-3.9126,-4.0122,-4.0787,-4.1254,-4.1688,-4.1912,-4.1829,-4.1396,-4.1619,-4.1619,-4.1604,-4.1465,-4.1465,-4.1619,-4.1465,-4.148,-4.1564,-4.1702,-4.1868,-4.2049,-4.1717,-4.1966,-4.2377,-4.2034,-4.29,-4.4189,-4.4495,-4.5722,-4.7202,-4.7337,-4.7638,-4.8001,-4.8001,-4.8001,-4.8001,-4.8001,-4.8001,-4.8001,-4.8001,-4.8001,-4.7963,-4.772,-4.7723,-4.8651,-5.1457,-5.1165,-5.0855,-5.234,-5.2985,-5.3295,-5.3429,-5.3373,-5.3381,-5.3602,-5.3699,-5.3926,-5.4219,-5.434,-5.4409,-5.4409,-5.4584,-5.4784,-5.5009,-5.535,-5.5607,-5.5827,-5.6097,-5.6325,-5.6503,-5.6503,-5.6503,-5.6503,-5.6503,-5.6093,-5.5372,-5.6132,-5.6016,0.0,0.0,0.0,0.0,0.0,0.0,-1.5782,0.0,-1.4983,0.0,0.0,0.0,0.0,0.0,0.0,0.0,0.0,0.0,0.0,0.0,0.0,0.0,0.0,0.0,0.0,0.0,0.0,0.0,0.0,-3.1593,-3.5691,-3.6394,-3.6847,-3.7263,-3.8284,-3.913,-3.9762,-4.0592,-4.1155,-4.1334,-4.1903,-4.2009,-4.1829,-4.1912,-4.1883,-4.1702,-4.1619,-4.1619,-4.1688,-4.1619,-4.1647,-4.1829,-4.1717,-4.1785,-4.1785,-4.1814,-4.1995,-4.216,-4.1995,-4.2607,-4.3693,-4.4721,-4.6095,-4.7404,-4.7404,-4.7704,-4.8001,-4.8001,-4.8001,-4.8001,-4.8001,-4.8001,-4.8001,-4.8001,-4.8115,-4.8219,-4.7882,-4.8873,-5.0034,-5.077,-5.1665,-5.2387,-5.2554,-5.3054,-5.344,-5.3518,-5.3579,-5.3582,-5.3602,-5.3813,-5.4037,-5.4146,-5.4321,-5.4424,-5.4439,-5.4698,-5.4903,-5.5126,-5.5612,-5.5965,-5.6132,-5.6314,-5.6437,-5.6503,-5.6503,-5.6503,-5.6503,-5.6503,-5.6054,-5.5217,-5.6081,-5.6075,-1.676,0.0,0.0,0.0,0.0,0.0,0.0,0.0,0.0,0.0,0.0,0.0,0.0,0.0,0.0,-1.4209,0.0,-1.5665,0.0,0.0,0.0,0.0,0.0,0.0,0.0,0.0,0.0,-3.344,-3.0936,-3.1488,-3.6726,-3.7242,-3.748,-3.7811,-3.8564,-3.9079,-3.9427,-4.035,-4.0829,-4.0829,-4.1497,-4.1816,-4.1831,-4.202,-4.1995,-4.18,-4.1702,-4.1702,-4.1785,-4.1702,-4.1883,-4.2092,-4.1897,-4.18,-4.18,-4.1912,-4.1912,-4.1995,-4.1995,-4.2526,-4.3442,-4.4796,-4.6127,-4.727,-4.727,-4.7638,-4.8001,-4.8001,-4.8001,-4.8001,-4.8001,-4.8001,-4.7951,-4.7865,-4.8142,-4.8522,-4.8438,-4.9791,-5.1088,-5.1086,-5.2414,-5.3417,-5.3291,-5.3429,-5.3579,-5.3656,-5.3736,-5.3756,-5.3662,-5.3926,-5.4127,-5.4163,-5.4321,-5.4458,-5.4505,-5.4814,-5.5172,-5.5465,-5.591,-5.6207,-5.6356,-5.6456,-5.6503,-5.6503,-5.6503,-5.6503,-5.6503,-5.6503,-5.6171,-5.5567,-5.621,-5.6065,0.0,0.0,0.0,-1.6169,0.0,0.0,0.0,0.0,-1.5062,0.0,0.0,0.0,0.0,0.0,-1.4231,-1.3794,-1.385,0.0,0.0,0.0,0.0,0.0,0.0,0.0,0.0,0.0,0.0,-2.948,-2.6703,-2.8257,-3.6599,-3.7007,-3.7176,-3.7577,-3.8253,-3.8831,-3.9233,-3.9828,-4.0133,-4.0133,-4.08,-4.1134,-4.1149,-4.1802,-4.2092,-4.2092,-4.18,-4.1883,-4.2092,-4.18,-4.1883,-4.2092,-4.2092,-4.2092,-4.2009,-4.1578,-4.1549,-4.1688,-4.1688,-4.2659,-4.4004,-4.4586,-4.5769,-4.6945,-4.6945,-4.7437,-4.8001,-4.8001,-4.8001,-4.8001,-4.8001,-4.8001,-4.7884,-4.7437,-4.7948,-4.8765,-4.9873,-5.0293,-5.1245,-5.3904,-5.3626,-5.3286,-5.4451,-5.4177,-5.3736,-5.3539,-5.3678,-5.3832,-5.387,-5.4,-5.4163,-5.4356,-5.4439,-5.4505,-5.4505,-5.5053,-5.5631,-5.6226,-5.6271,-5.6347,-5.6483,-5.6503,-5.6503,-5.6503,-5.6503,-5.6503,-5.6503,-5.6503,-5.6483,-5.6472,-5.6484,-5.6077,0.0,0.0,-2.083,-1.7988,0.0,0.0,0.0,0.0,0.0,0.0,0.0,0.0,0.0,-1.4419,-1.4329,-1.4176,-1.3971,-1.3618,0.0,0.0,0.0,0.0,0.0,0.0,0.0,0.0,0.0,-3.0508,-3.0093,-3.1948,-3.7476,-3.7825,-3.7825,-3.7976,-3.8193,-3.8384,-3.8551,-3.9175,-3.9509,-3.9509,-4.0133,-4.0437,-4.0452,-4.1134,-4.1439,-4.1453,-4.1807,-4.1995,-4.2092,-4.1995,-4.1995,-4.2092,-4.2092,-4.2092,-4.2092,-4.1926,-4.1912,-4.2063,-4.29,-4.3442,-4.4082,-4.5083,-4.6104,-4.6876,-4.6876,-4.7437,-4.8001,-4.8001,-4.8001,-4.8001,-4.8001,-4.7749,-4.7608,-4.8031,-4.8209,-4.8839,-5.0541,-5.147,-5.2319,-5.3725,-5.4052,-5.4101,-5.4102,-5.3998,-5.3907,-5.3736,-5.387,-5.4018,-5.4036,-5.4198,-5.4405,-5.4629,-5.5196,-5.5435,-5.5115,-5.5574,-5.5994,-5.6271,-5.6377,-5.6446,-5.6503,-5.6503,-5.6503,-5.6503,-5.6503,-5.6503,-5.6503,-5.6503,-5.6503,-5.6503,-5.6554,-5.6426,-1.9583,-2.1307,0.0,-1.9415,-2.0011,0.0,-1.6843,0.0,0.0,0.0,0.0,0.0,0.0,0.0,-1.4422,-1.42,-1.3971,-1.3618,0.0,-1.2643,0.0,0.0,0.0,0.0,0.0,0.0,-2.3166,-2.827,-2.9242,-3.1404,0.0,0.0,-3.8066,-3.8066,-3.8127,-3.8202,-3.8202,-3.8638,-3.8841,-3.8855,-3.9479,-3.9784,-3.9799,-4.0452,-4.0873,-4.112,-4.1555,-4.1874,-4.2092,-4.2092,-4.2092,-4.2092,-4.2092,-4.2092,-4.2092,-4.2092,-4.2242,-4.2541,-4.3314,-4.3834,-4.4373,-4.5157,-4.6104,-4.6876,-4.6876,-4.7437,-4.805,-4.8315,-4.8199,-4.8067,-4.8332,-4.8077,-4.7797,-4.8157,-4.8821,-4.9752,-5.1109,-5.2287,-5.3237,-5.3918,-5.4215,-5.4269,-5.3867,-5.3907,-5.3982,-5.3888,-5.4037,-5.4181,-5.4181,-5.4306,-5.4618,-5.5193,-5.5521,-5.5675,-5.5653,-5.5924,-5.6194,-5.6367,-5.6437,-5.6503,-5.6503,-5.6503,-5.6483,-5.6455,-5.6483,-5.6483,-5.6455,-5.6483,-5.65,-5.651,-5.6578,-5.6606]}]]